Wetterdaten: Mittwoch, 11.10.2017
Datum Zeit Temp. A. Pool Temp. Feuchte A. Luftdruck Regen Wind Richtung Richtung Sonnenschein ET UV Solar Taupunkt Windchill Windben Empfang
11.10.2017 00:00 11,3 C 11,1 C 94 % 1020,7 hPa 0,0 l/m 13,1 km/h (3 Bft) SW 222 0 min 0,000 mm 0,0 UV-I 0 W/m 10,4 C 7,5 C 22,5 km/h (4 Bft) 98,21 %
11.10.2017 00:02 11,3 C 11,1 C 93 % 1020,7 hPa 0,0 l/m 12,3 km/h (3 Bft) S-SW 197 0 min 0,000 mm 0,0 UV-I 0 W/m 10,2 C 7,9 C 22,5 km/h (4 Bft) 95,35 %
11.10.2017 00:04 11,3 C 11,1 C 93 % 1020,7 hPa 0,0 l/m 12,7 km/h (3 Bft) S-SW 206 0 min 0,000 mm 0,0 UV-I 0 W/m 10,2 C 7,7 C 22,5 km/h (4 Bft) 98,00 %
11.10.2017 00:06 11,3 C 11,1 C 93 % 1020,6 hPa 0,0 l/m 10,6 km/h (2 Bft) W 259 0 min 0,000 mm 0,0 UV-I 0 W/m 10,2 C 8,7 C 14,5 km/h (3 Bft) 97,56 %
11.10.2017 00:08 11,3 C 11,1 C 93 % 1020,6 hPa 0,0 l/m 10,4 km/h (2 Bft) SW 227 0 min 0,000 mm 0,0 UV-I 0 W/m 10,2 C 8,8 C 16,1 km/h (3 Bft) 97,73 %
11.10.2017 00:10 11,4 C 11,1 C 93 % 1020,6 hPa 0,0 l/m 10,2 km/h (2 Bft) S-SW 202 0 min 0,000 mm 0,0 UV-I 0 W/m 10,3 C 9,0 C 17,7 km/h (3 Bft) 98,00 %
11.10.2017 00:12 11,4 C 11,1 C 93 % 1020,6 hPa 0,0 l/m 13,9 km/h (3 Bft) SW 220 0 min 0,000 mm 0,0 UV-I 0 W/m 10,3 C 7,3 C 22,5 km/h (4 Bft) 97,62 %
11.10.2017 00:14 11,4 C 11,1 C 93 % 1020,6 hPa 0,0 l/m 10,7 km/h (2 Bft) W-SW 238 0 min 0,000 mm 0,0 UV-I 0 W/m 10,3 C 8,8 C 20,9 km/h (4 Bft) 98,18 %
11.10.2017 00:16 11,4 C 11,1 C 93 % 1020,6 hPa 0,0 l/m 10,7 km/h (2 Bft) SW 229 0 min 0,000 mm 0,0 UV-I 0 W/m 10,3 C 8,8 C 19,3 km/h (3 Bft) 98,00 %
11.10.2017 00:18 11,4 C 11,1 C 93 % 1020,6 hPa 0,0 l/m 11,3 km/h (2 Bft) S 175 0 min 0,000 mm 0,0 UV-I 0 W/m 10,3 C 8,5 C 16,1 km/h (3 Bft) 97,44 %
11.10.2017 00:20 11,4 C 11,1 C 93 % 1020,5 hPa 0,0 l/m 9,7 km/h (2 Bft) W-SW 250 0 min 0,000 mm 0,0 UV-I 0 W/m 10,3 C 9,3 C 12,9 km/h (3 Bft) 95,12 %
11.10.2017 00:22 11,4 C 11,1 C 93 % 1020,6 hPa 0,0 l/m 11,6 km/h (2 Bft) SW 221 0 min 0,000 mm 0,0 UV-I 0 W/m 10,3 C 8,3 C 16,1 km/h (3 Bft) 96,23 %
11.10.2017 00:24 11,4 C 11,1 C 93 % 1020,5 hPa 0,0 l/m 12,0 km/h (2 Bft) SW 221 0 min 0,000 mm 0,0 UV-I 0 W/m 10,3 C 8,1 C 17,7 km/h (3 Bft) 96,23 %
11.10.2017 00:26 11,4 C 11,1 C 93 % 1020,5 hPa 0,0 l/m 11,9 km/h (2 Bft) S-SW 195 0 min 0,000 mm 0,0 UV-I 0 W/m 10,3 C 8,2 C 17,7 km/h (3 Bft) 97,87 %
11.10.2017 00:28 11,4 C 11,1 C 93 % 1020,5 hPa 0,0 l/m 11,9 km/h (2 Bft) S-SW 211 0 min 0,000 mm 0,0 UV-I 0 W/m 10,3 C 8,2 C 19,3 km/h (3 Bft) 97,73 %
11.10.2017 00:30 11,4 C 11,1 C 93 % 1020,4 hPa 0,0 l/m 10,7 km/h (2 Bft) S-SW 208 0 min 0,000 mm 0,0 UV-I 0 W/m 10,3 C 8,8 C 17,7 km/h (3 Bft) 95,65 %
11.10.2017 00:32 11,4 C 11,1 C 93 % 1020,5 hPa 0,0 l/m 11,7 km/h (2 Bft) SW 214 0 min 0,000 mm 0,0 UV-I 0 W/m 10,3 C 8,3 C 19,3 km/h (3 Bft) 97,30 %
11.10.2017 00:34 11,4 C 11,1 C 93 % 1020,5 hPa 0,0 l/m 9,6 km/h (2 Bft) SW 221 0 min 0,000 mm 0,0 UV-I 0 W/m 10,3 C 9,4 C 12,9 km/h (3 Bft) 97,73 %
11.10.2017 00:36 11,4 C 11,1 C 93 % 1020,5 hPa 0,0 l/m 12,0 km/h (2 Bft) S-SW 202 0 min 0,000 mm 0,0 UV-I 0 W/m 10,3 C 8,1 C 22,5 km/h (4 Bft) 97,56 %
11.10.2017 00:38 11,4 C 11,1 C 93 % 1020,5 hPa 0,0 l/m 15,0 km/h (3 Bft) SW 236 0 min 0,000 mm 0,0 UV-I 0 W/m 10,3 C 6,8 C 20,9 km/h (4 Bft) 97,73 %
11.10.2017 00:40 11,4 C 11,1 C 93 % 1020,5 hPa 0,0 l/m 9,6 km/h (2 Bft) S-SW 211 0 min 0,000 mm 0,0 UV-I 0 W/m 10,3 C 9,4 C 17,7 km/h (3 Bft) 96,00 %
11.10.2017 00:42 11,5 C 11,1 C 93 % 1020,5 hPa 0,0 l/m 12,4 km/h (3 Bft) W-SW 248 0 min 0,000 mm 0,0 UV-I 0 W/m 10,4 C 8,1 C 24,1 km/h (4 Bft) 97,87 %
11.10.2017 00:44 11,5 C 11,1 C 93 % 1020,5 hPa 0,0 l/m 12,0 km/h (2 Bft) W-SW 239 0 min 0,000 mm 0,0 UV-I 0 W/m 10,4 C 8,2 C 16,1 km/h (3 Bft) 97,73 %
11.10.2017 00:46 11,4 C 11,1 C 93 % 1020,5 hPa 0,0 l/m 13,1 km/h (3 Bft) W-SW 247 0 min 0,000 mm 0,0 UV-I 0 W/m 10,3 C 7,6 C 20,9 km/h (4 Bft) 98,00 %
11.10.2017 00:48 11,5 C 11,1 C 93 % 1020,5 hPa 0,0 l/m 11,8 km/h (2 Bft) S 183 0 min 0,000 mm 0,0 UV-I 0 W/m 10,4 C 8,3 C 19,3 km/h (3 Bft) 96,43 %
11.10.2017 00:50 11,5 C 11,1 C 93 % 1020,5 hPa 0,0 l/m 10,6 km/h (2 Bft) SW 229 0 min 0,000 mm 0,0 UV-I 0 W/m 10,4 C 8,9 C 19,3 km/h (3 Bft) 100,00 %
11.10.2017 00:52 11,5 C 11,1 C 93 % 1020,5 hPa 0,0 l/m 11,9 km/h (2 Bft) SW 232 0 min 0,000 mm 0,0 UV-I 0 W/m 10,4 C 8,3 C 22,5 km/h (4 Bft) 98,44 %
11.10.2017 00:54 11,6 C 11,1 C 93 % 1020,5 hPa 0,0 l/m 12,7 km/h (3 Bft) S-SW 207 0 min 0,000 mm 0,0 UV-I 0 W/m 10,5 C 8,0 C 17,7 km/h (3 Bft) 100,00 %
11.10.2017 00:56 11,6 C 11,1 C 93 % 1020,5 hPa 0,0 l/m 11,3 km/h (2 Bft) S-SO 163 0 min 0,000 mm 0,0 UV-I 0 W/m 10,5 C 8,7 C 20,9 km/h (4 Bft) 96,55 %
11.10.2017 00:58 11,6 C 11,1 C 93 % 1020,5 hPa 0,0 l/m 12,7 km/h (3 Bft) S-SW 200 0 min 0,000 mm 0,0 UV-I 0 W/m 10,5 C 8,0 C 17,7 km/h (3 Bft) 97,22 %
11.10.2017 01:00 11,6 C 11,1 C 93 % 1020,6 hPa 0,0 l/m 12,2 km/h (2 Bft) SW 215 0 min 0,000 mm 0,0 UV-I 0 W/m 10,5 C 8,3 C 19,3 km/h (3 Bft) 96,43 %
11.10.2017 01:02 11,6 C 11,1 C 93 % 1020,6 hPa 0,0 l/m 13,7 km/h (3 Bft) SW 227 0 min 0,000 mm 0,0 UV-I 0 W/m 10,5 C 7,6 C 20,9 km/h (4 Bft) 97,56 %
11.10.2017 01:04 11,6 C 11,1 C 93 % 1020,6 hPa 0,0 l/m 11,5 km/h (2 Bft) S 186 0 min 0,000 mm 0,0 UV-I 0 W/m 10,5 C 8,6 C 17,7 km/h (3 Bft) 96,00 %
11.10.2017 01:06 11,6 C 11,1 C 93 % 1020,6 hPa 0,0 l/m 13,7 km/h (3 Bft) SW 221 0 min 0,000 mm 0,0 UV-I 0 W/m 10,5 C 7,6 C 19,3 km/h (3 Bft) 98,00 %
11.10.2017 01:08 11,6 C 11,1 C 93 % 1020,6 hPa 0,0 l/m 10,3 km/h (2 Bft) S-SW 208 0 min 0,000 mm 0,0 UV-I 0 W/m 10,5 C 9,2 C 16,1 km/h (3 Bft) 96,00 %
11.10.2017 01:10 11,6 C 11,1 C 93 % 1020,6 hPa 0,0 l/m 11,6 km/h (2 Bft) SW 215 0 min 0,000 mm 0,0 UV-I 0 W/m 10,5 C 8,5 C 17,7 km/h (3 Bft) 97,87 %
11.10.2017 01:12 11,6 C 11,1 C 93 % 1020,6 hPa 0,0 l/m 15,1 km/h (3 Bft) SW 223 0 min 0,000 mm 0,0 UV-I 0 W/m 10,5 C 7,0 C 20,9 km/h (4 Bft) 95,74 %
11.10.2017 01:14 11,6 C 11,1 C 93 % 1020,6 hPa 0,0 l/m 11,2 km/h (2 Bft) SW 232 0 min 0,000 mm 0,0 UV-I 0 W/m 10,5 C 8,7 C 17,7 km/h (3 Bft) 97,37 %
11.10.2017 01:16 11,6 C 11,1 C 93 % 1020,6 hPa 0,0 l/m 10,5 km/h (2 Bft) SW 236 0 min 0,000 mm 0,0 UV-I 0 W/m 10,5 C 9,1 C 16,1 km/h (3 Bft) 98,00 %
11.10.2017 01:18 11,6 C 11,1 C 93 % 1020,6 hPa 0,0 l/m 10,4 km/h (2 Bft) S-SW 193 0 min 0,000 mm 0,0 UV-I 0 W/m 10,5 C 9,1 C 16,1 km/h (3 Bft) 97,87 %
11.10.2017 01:20 11,6 C 11,1 C 93 % 1020,6 hPa 0,0 l/m 8,7 km/h (2 Bft) SW 229 0 min 0,000 mm 0,0 UV-I 0 W/m 10,5 C 10,1 C 16,1 km/h (3 Bft) 95,12 %
11.10.2017 01:22 11,5 C 11,1 C 93 % 1020,6 hPa 0,0 l/m 8,6 km/h (2 Bft) S-SW 201 0 min 0,000 mm 0,0 UV-I 0 W/m 10,4 C 10,1 C 16,1 km/h (3 Bft) 93,62 %
11.10.2017 01:24 11,5 C 11,1 C 93 % 1020,6 hPa 0,0 l/m 10,3 km/h (2 Bft) S-SW 203 0 min 0,000 mm 0,0 UV-I 0 W/m 10,4 C 9,1 C 16,1 km/h (3 Bft) 98,00 %
11.10.2017 01:26 11,5 C 11,1 C 93 % 1020,6 hPa 0,0 l/m 8,6 km/h (2 Bft) SW 231 0 min 0,000 mm 0,0 UV-I 0 W/m 10,4 C 10,1 C 16,1 km/h (3 Bft) 98,11 %
11.10.2017 01:28 11,5 C 11,1 C 93 % 1020,6 hPa 0,0 l/m 8,5 km/h (2 Bft) W-SW 242 0 min 0,000 mm 0,0 UV-I 0 W/m 10,4 C 10,1 C 11,3 km/h (2 Bft) 100,00 %
11.10.2017 01:30 11,5 C 11,1 C 93 % 1020,6 hPa 0,0 l/m 6,7 km/h (2 Bft) S-SW 201 0 min 0,000 mm 0,0 UV-I 0 W/m 10,4 C 11,3 C 9,7 km/h (2 Bft) 100,00 %
11.10.2017 01:32 11,5 C 11,1 C 93 % 1020,7 hPa 0,0 l/m 6,3 km/h (2 Bft) S-SW 197 0 min 0,000 mm 0,0 UV-I 0 W/m 10,4 C 11,5 C 9,7 km/h (2 Bft) 98,00 %
11.10.2017 01:34 11,5 C 11,1 C 93 % 1020,7 hPa 0,0 l/m 7,0 km/h (2 Bft) W-SW 250 0 min 0,000 mm 0,0 UV-I 0 W/m 10,4 C 11,1 C 12,9 km/h (3 Bft) 100,00 %
11.10.2017 01:36 11,4 C 11,1 C 93 % 1020,7 hPa 0,0 l/m 6,9 km/h (2 Bft) W-SW 238 0 min 0,000 mm 0,0 UV-I 0 W/m 10,3 C 11,1 C 9,7 km/h (2 Bft) 100,00 %
11.10.2017 01:38 11,4 C 11,1 C 93 % 1020,6 hPa 0,0 l/m 7,8 km/h (2 Bft) S 182 0 min 0,000 mm 0,0 UV-I 0 W/m 10,3 C 10,5 C 12,9 km/h (3 Bft) 100,00 %
11.10.2017 01:40 11,4 C 11,1 C 93 % 1020,6 hPa 0,0 l/m 5,7 km/h (1 Bft) SW 227 0 min 0,000 mm 0,0 UV-I 0 W/m 10,3 C 11,4 C 9,7 km/h (2 Bft) 98,21 %
11.10.2017 01:42 11,4 C 11,1 C 93 % 1020,7 hPa 0,0 l/m 7,1 km/h (2 Bft) W-SW 244 0 min 0,000 mm 0,0 UV-I 0 W/m 10,3 C 10,9 C 11,3 km/h (2 Bft) 100,00 %
11.10.2017 01:44 11,4 C 11,1 C 93 % 1020,7 hPa 0,0 l/m 6,8 km/h (2 Bft) SW 217 0 min 0,000 mm 0,0 UV-I 0 W/m 10,3 C 11,1 C 11,3 km/h (2 Bft) 98,11 %
11.10.2017 01:46 11,4 C 11,1 C 93 % 1020,7 hPa 0,0 l/m 7,7 km/h (2 Bft) S-SW 207 0 min 0,000 mm 0,0 UV-I 0 W/m 10,3 C 10,5 C 9,7 km/h (2 Bft) 100,00 %
11.10.2017 01:48 11,4 C 11,1 C 93 % 1020,7 hPa 0,0 l/m 7,1 km/h (2 Bft) S-SW 205 0 min 0,000 mm 0,0 UV-I 0 W/m 10,3 C 10,9 C 11,3 km/h (2 Bft) 100,00 %
11.10.2017 01:50 11,4 C 11,1 C 93 % 1020,7 hPa 0,0 l/m 7,6 km/h (2 Bft) W-SW 247 0 min 0,000 mm 0,0 UV-I 0 W/m 10,3 C 10,6 C 14,5 km/h (3 Bft) 100,00 %
11.10.2017 01:52 11,3 C 11,1 C 93 % 1020,7 hPa 0,0 l/m 6,8 km/h (2 Bft) SW 231 0 min 0,000 mm 0,0 UV-I 0 W/m 10,2 C 11,0 C 9,7 km/h (2 Bft) 100,00 %
11.10.2017 01:54 11,3 C 11,1 C 93 % 1020,7 hPa 0,0 l/m 6,7 km/h (2 Bft) SW 233 0 min 0,000 mm 0,0 UV-I 0 W/m 10,2 C 11,1 C 11,3 km/h (2 Bft) 100,00 %
11.10.2017 01:56 11,3 C 11,1 C 93 % 1020,6 hPa 0,0 l/m 6,6 km/h (2 Bft) SW 228 0 min 0,000 mm 0,0 UV-I 0 W/m 10,2 C 11,2 C 11,3 km/h (2 Bft) 98,11 %
11.10.2017 01:58 11,3 C 11,1 C 93 % 1020,7 hPa 0,0 l/m 8,5 km/h (2 Bft) W-SW 238 0 min 0,000 mm 0,0 UV-I 0 W/m 10,2 C 9,9 C 12,9 km/h (3 Bft) 98,21 %
11.10.2017 02:00 11,3 C 11,1 C 93 % 1020,7 hPa 0,0 l/m 9,6 km/h (2 Bft) SW 232 0 min 0,000 mm 0,0 UV-I 0 W/m 10,2 C 9,3 C 14,5 km/h (3 Bft) 97,56 %
11.10.2017 02:02 11,2 C 11,1 C 93 % 1020,7 hPa 0,0 l/m 7,6 km/h (2 Bft) W-SW 246 0 min 0,000 mm 0,0 UV-I 0 W/m 10,1 C 10,4 C 12,9 km/h (3 Bft) 100,00 %
11.10.2017 02:04 11,2 C 11,1 C 93 % 1020,7 hPa 0,0 l/m 8,2 km/h (2 Bft) SW 229 0 min 0,000 mm 0,0 UV-I 0 W/m 10,1 C 10,0 C 14,5 km/h (3 Bft) 100,00 %
11.10.2017 02:06 11,2 C 11,1 C 93 % 1020,6 hPa 0,0 l/m 7,9 km/h (2 Bft) SW 232 0 min 0,000 mm 0,0 UV-I 0 W/m 10,1 C 10,2 C 14,5 km/h (3 Bft) 97,87 %
11.10.2017 02:08 11,2 C 11,1 C 93 % 1020,6 hPa 0,0 l/m 9,8 km/h (2 Bft) SW 219 0 min 0,000 mm 0,0 UV-I 0 W/m 10,1 C 9,0 C 14,5 km/h (3 Bft) 100,00 %
11.10.2017 02:10 11,2 C 11,1 C 93 % 1020,7 hPa 0,0 l/m 7,6 km/h (2 Bft) SW 236 0 min 0,000 mm 0,0 UV-I 0 W/m 10,1 C 10,4 C 12,9 km/h (3 Bft) 100,00 %
11.10.2017 02:12 11,2 C 11,1 C 93 % 1020,7 hPa 0,0 l/m 8,1 km/h (2 Bft) W 275 0 min 0,000 mm 0,0 UV-I 0 W/m 10,1 C 10,0 C 14,5 km/h (3 Bft) 100,00 %
11.10.2017 02:14 11,2 C 11,1 C 93 % 1020,7 hPa 0,0 l/m 7,6 km/h (2 Bft) SW 235 0 min 0,000 mm 0,0 UV-I 0 W/m 10,1 C 10,4 C 11,3 km/h (2 Bft) 100,00 %
11.10.2017 02:16 11,2 C 11,1 C 93 % 1020,7 hPa 0,0 l/m 8,5 km/h (2 Bft) SW 226 0 min 0,000 mm 0,0 UV-I 0 W/m 10,1 C 9,8 C 11,3 km/h (2 Bft) 100,00 %
11.10.2017 02:18 11,2 C 11,1 C 93 % 1020,7 hPa 0,0 l/m 10,5 km/h (2 Bft) SW 226 0 min 0,000 mm 0,0 UV-I 0 W/m 10,1 C 8,7 C 17,7 km/h (3 Bft) 100,00 %
11.10.2017 02:20 11,2 C 11,1 C 93 % 1020,7 hPa 0,0 l/m 8,3 km/h (2 Bft) SW 219 0 min 0,000 mm 0,0 UV-I 0 W/m 10,1 C 9,9 C 16,1 km/h (3 Bft) 100,00 %
11.10.2017 02:22 11,2 C 11,1 C 93 % 1020,7 hPa 0,0 l/m 7,8 km/h (2 Bft) S-SW 211 0 min 0,000 mm 0,0 UV-I 0 W/m 10,1 C 10,2 C 14,5 km/h (3 Bft) 100,00 %
11.10.2017 02:24 11,2 C 11,1 C 93 % 1020,7 hPa 0,0 l/m 8,2 km/h (2 Bft) SW 228 0 min 0,000 mm 0,0 UV-I 0 W/m 10,1 C 10,0 C 11,3 km/h (2 Bft) 97,56 %
11.10.2017 02:26 11,2 C 11,1 C 93 % 1020,6 hPa 0,0 l/m 5,4 km/h (1 Bft) S-SW 211 0 min 0,000 mm 0,0 UV-I 0 W/m 10,1 C 11,2 C 8,0 km/h (2 Bft) 100,00 %
11.10.2017 02:28 11,2 C 11,1 C 93 % 1020,7 hPa 0,0 l/m 7,4 km/h (2 Bft) S-SW 212 0 min 0,000 mm 0,0 UV-I 0 W/m 10,1 C 10,5 C 11,3 km/h (2 Bft) 100,00 %
11.10.2017 02:30 11,2 C 11,1 C 93 % 1020,6 hPa 0,0 l/m 7,3 km/h (2 Bft) SW 218 0 min 0,000 mm 0,0 UV-I 0 W/m 10,1 C 10,6 C 12,9 km/h (3 Bft) 100,00 %
11.10.2017 02:32 11,2 C 11,1 C 93 % 1020,6 hPa 0,0 l/m 7,5 km/h (2 Bft) S-SW 210 0 min 0,000 mm 0,0 UV-I 0 W/m 10,1 C 10,4 C 11,3 km/h (2 Bft) 100,00 %
11.10.2017 02:34 11,1 C 11,1 C 93 % 1020,6 hPa 0,0 l/m 6,1 km/h (2 Bft) SW 219 0 min 0,000 mm 0,0 UV-I 0 W/m 10,0 C 11,1 C 9,7 km/h (2 Bft) 95,74 %
11.10.2017 02:36 11,1 C 11,1 C 93 % 1020,5 hPa 0,0 l/m 8,4 km/h (2 Bft) S-SW 207 0 min 0,000 mm 0,0 UV-I 0 W/m 10,0 C 9,8 C 11,3 km/h (2 Bft) 100,00 %
11.10.2017 02:38 11,1 C 11,1 C 93 % 1020,6 hPa 0,0 l/m 10,0 km/h (2 Bft) SW 227 0 min 0,000 mm 0,0 UV-I 0 W/m 10,0 C 8,8 C 17,7 km/h (3 Bft) 100,00 %
11.10.2017 02:40 11,1 C 11,1 C 93 % 1020,6 hPa 0,0 l/m 8,8 km/h (2 Bft) SW 231 0 min 0,000 mm 0,0 UV-I 0 W/m 10,0 C 9,5 C 14,5 km/h (3 Bft) 100,00 %
11.10.2017 02:42 11,1 C 11,1 C 93 % 1020,5 hPa 0,0 l/m 6,9 km/h (2 Bft) S-SW 196 0 min 0,000 mm 0,0 UV-I 0 W/m 10,0 C 10,8 C 11,3 km/h (2 Bft) 98,11 %
11.10.2017 02:44 11,1 C 11,1 C 93 % 1020,5 hPa 0,0 l/m 10,1 km/h (2 Bft) SW 219 0 min 0,000 mm 0,0 UV-I 0 W/m 10,0 C 8,8 C 16,1 km/h (3 Bft) 100,00 %
11.10.2017 02:46 11,1 C 11,1 C 93 % 1020,6 hPa 0,0 l/m 8,8 km/h (2 Bft) S-SW 202 0 min 0,000 mm 0,0 UV-I 0 W/m 10,0 C 9,5 C 12,9 km/h (3 Bft) 97,56 %
11.10.2017 02:48 11,1 C 11,1 C 93 % 1020,5 hPa 0,0 l/m 10,1 km/h (2 Bft) S-SW 204 0 min 0,000 mm 0,0 UV-I 0 W/m 10,0 C 8,8 C 16,1 km/h (3 Bft) 100,00 %
11.10.2017 02:50 11,1 C 11,1 C 93 % 1020,6 hPa 0,0 l/m 7,0 km/h (2 Bft) S-SW 204 0 min 0,000 mm 0,0 UV-I 0 W/m 10,0 C 10,7 C 12,9 km/h (3 Bft) 97,87 %
11.10.2017 02:52 11,1 C 11,1 C 93 % 1020,6 hPa 0,0 l/m 5,0 km/h (1 Bft) S-SW 211 0 min 0,000 mm 0,0 UV-I 0 W/m 10,0 C 11,1 C 9,7 km/h (2 Bft) 100,00 %
11.10.2017 02:54 11,1 C 11,1 C 93 % 1020,6 hPa 0,0 l/m 7,5 km/h (2 Bft) S-SW 209 0 min 0,000 mm 0,0 UV-I 0 W/m 10,0 C 10,3 C 11,3 km/h (2 Bft) 100,00 %
11.10.2017 02:56 11,1 C 11,1 C 93 % 1020,5 hPa 0,0 l/m 7,2 km/h (2 Bft) S-SW 205 0 min 0,000 mm 0,0 UV-I 0 W/m 10,0 C 10,5 C 9,7 km/h (2 Bft) 96,43 %
11.10.2017 02:58 11,1 C 11,1 C 93 % 1020,5 hPa 0,0 l/m 6,8 km/h (2 Bft) W-SW 239 0 min 0,000 mm 0,0 UV-I 0 W/m 10,0 C 10,8 C 11,3 km/h (2 Bft) 94,74 %
11.10.2017 03:00 11,1 C 11,1 C 93 % 1020,5 hPa 0,0 l/m 7,8 km/h (2 Bft) S-SW 199 0 min 0,000 mm 0,0 UV-I 0 W/m 10,0 C 10,1 C 11,3 km/h (2 Bft) 97,56 %
11.10.2017 03:02 11,1 C 11,1 C 93 % 1020,5 hPa 0,0 l/m 10,4 km/h (2 Bft) SW 222 0 min 0,000 mm 0,0 UV-I 0 W/m 10,0 C 8,6 C 16,1 km/h (3 Bft) 98,21 %
11.10.2017 03:04 11,2 C 11,1 C 93 % 1020,5 hPa 0,0 l/m 10,6 km/h (2 Bft) SW 224 0 min 0,000 mm 0,0 UV-I 0 W/m 10,1 C 8,6 C 16,1 km/h (3 Bft) 97,14 %
11.10.2017 03:06 11,2 C 11,1 C 93 % 1020,5 hPa 0,0 l/m 11,1 km/h (2 Bft) W-SW 242 0 min 0,000 mm 0,0 UV-I 0 W/m 10,1 C 8,3 C 17,7 km/h (3 Bft) 95,12 %
11.10.2017 03:08 11,2 C 11,1 C 93 % 1020,5 hPa 0,0 l/m 11,7 km/h (2 Bft) S-SW 198 0 min 0,000 mm 0,0 UV-I 0 W/m 10,1 C 8,0 C 17,7 km/h (3 Bft) 96,92 %
11.10.2017 03:10 11,2 C 11,1 C 92 % 1020,5 hPa 0,0 l/m 13,5 km/h (3 Bft) S-SW 208 0 min 0,000 mm 0,0 UV-I 0 W/m 9,9 C 7,2 C 17,7 km/h (3 Bft) 96,23 %
11.10.2017 03:12 11,2 C 11,1 C 92 % 1020,5 hPa 0,0 l/m 13,3 km/h (3 Bft) W-SW 247 0 min 0,000 mm 0,0 UV-I 0 W/m 9,9 C 7,3 C 17,7 km/h (3 Bft) 95,12 %
11.10.2017 03:14 11,3 C 11,1 C 92 % 1020,5 hPa 0,0 l/m 13,9 km/h (3 Bft) SW 215 0 min 0,000 mm 0,0 UV-I 0 W/m 10,0 C 7,2 C 19,3 km/h (3 Bft) 98,11 %
11.10.2017 03:16 11,3 C 11,1 C 92 % 1020,5 hPa 0,0 l/m 11,9 km/h (2 Bft) SW 225 0 min 0,000 mm 0,0 UV-I 0 W/m 10,0 C 8,1 C 19,3 km/h (3 Bft) 97,56 %
11.10.2017 03:18 11,3 C 11,1 C 92 % 1020,5 hPa 0,0 l/m 12,1 km/h (2 Bft) SW 234 0 min 0,000 mm 0,0 UV-I 0 W/m 10,0 C 8,0 C 19,3 km/h (3 Bft) 98,00 %
11.10.2017 03:20 11,3 C 11,1 C 92 % 1020,4 hPa 0,0 l/m 12,9 km/h (3 Bft) W-SW 255 0 min 0,000 mm 0,0 UV-I 0 W/m 10,0 C 7,6 C 17,7 km/h (3 Bft) 97,56 %
11.10.2017 03:22 11,4 C 11,1 C 92 % 1020,4 hPa 0,0 l/m 13,8 km/h (3 Bft) SW 223 0 min 0,000 mm 0,0 UV-I 0 W/m 10,1 C 7,3 C 17,7 km/h (3 Bft) 95,45 %
11.10.2017 03:24 11,4 C 11,1 C 92 % 1020,4 hPa 0,0 l/m 12,3 km/h (3 Bft) S-SW 210 0 min 0,000 mm 0,0 UV-I 0 W/m 10,1 C 8,0 C 19,3 km/h (3 Bft) 96,23 %
11.10.2017 03:26 11,4 C 11,1 C 92 % 1020,3 hPa 0,0 l/m 13,1 km/h (3 Bft) SW 219 0 min 0,000 mm 0,0 UV-I 0 W/m 10,1 C 7,6 C 19,3 km/h (3 Bft) 97,62 %
11.10.2017 03:28 11,4 C 11,1 C 91 % 1020,3 hPa 0,0 l/m 14,3 km/h (3 Bft) SW 234 0 min 0,000 mm 0,0 UV-I 0 W/m 10,0 C 7,1 C 20,9 km/h (4 Bft) 97,56 %
11.10.2017 03:30 11,4 C 11,1 C 91 % 1020,4 hPa 0,0 l/m 13,9 km/h (3 Bft) W-SW 244 0 min 0,000 mm 0,0 UV-I 0 W/m 10,0 C 7,3 C 19,3 km/h (3 Bft) 96,43 %
11.10.2017 03:32 11,5 C 11,1 C 91 % 1020,4 hPa 0,0 l/m 11,6 km/h (2 Bft) SW 223 0 min 0,000 mm 0,0 UV-I 0 W/m 10,1 C 8,4 C 17,7 km/h (3 Bft) 100,00 %
11.10.2017 03:34 11,5 C 11,1 C 91 % 1020,4 hPa 0,0 l/m 14,7 km/h (3 Bft) SW 216 0 min 0,000 mm 0,0 UV-I 0 W/m 10,1 C 7,1 C 19,3 km/h (3 Bft) 98,00 %
11.10.2017 03:36 11,5 C 11,1 C 91 % 1020,4 hPa 0,0 l/m 15,4 km/h (3 Bft) W 271 0 min 0,000 mm 0,0 UV-I 0 W/m 10,1 C 6,8 C 19,3 km/h (3 Bft) 100,00 %
11.10.2017 03:38 11,5 C 11,1 C 91 % 1020,4 hPa 0,0 l/m 10,6 km/h (2 Bft) SW 227 0 min 0,000 mm 0,0 UV-I 0 W/m 10,1 C 8,9 C 17,7 km/h (3 Bft) 98,21 %
11.10.2017 03:40 11,5 C 11,1 C 91 % 1020,4 hPa 0,0 l/m 11,2 km/h (2 Bft) W-SW 246 0 min 0,000 mm 0,0 UV-I 0 W/m 10,1 C 8,6 C 16,1 km/h (3 Bft) 92,11 %
11.10.2017 03:42 11,6 C 11,1 C 91 % 1020,5 hPa 0,0 l/m 8,9 km/h (2 Bft) SW 218 0 min 0,000 mm 0,0 UV-I 0 W/m 10,2 C 10,0 C 14,5 km/h (3 Bft) 98,11 %
11.10.2017 03:44 11,6 C 11,1 C 91 % 1020,4 hPa 0,0 l/m 11,1 km/h (2 Bft) W-SW 256 0 min 0,000 mm 0,0 UV-I 0 W/m 10,2 C 8,8 C 16,1 km/h (3 Bft) 97,56 %
11.10.2017 03:46 11,6 C 11,1 C 91 % 1020,5 hPa 0,0 l/m 13,2 km/h (3 Bft) W-SW 254 0 min 0,000 mm 0,0 UV-I 0 W/m 10,2 C 7,8 C 19,3 km/h (3 Bft) 98,00 %
11.10.2017 03:48 11,6 C 11,1 C 91 % 1020,5 hPa 0,0 l/m 10,2 km/h (2 Bft) W-SW 237 0 min 0,000 mm 0,0 UV-I 0 W/m 10,2 C 9,3 C 16,1 km/h (3 Bft) 98,00 %
11.10.2017 03:50 11,6 C 11,1 C 91 % 1020,5 hPa 0,0 l/m 9,2 km/h (2 Bft) W-SW 246 0 min 0,000 mm 0,0 UV-I 0 W/m 10,2 C 9,8 C 16,1 km/h (3 Bft) 94,74 %
11.10.2017 03:52 11,6 C 11,1 C 90 % 1020,4 hPa 0,0 l/m 10,1 km/h (2 Bft) W-SW 241 0 min 0,000 mm 0,0 UV-I 0 W/m 10,0 C 9,3 C 14,5 km/h (3 Bft) 96,00 %
11.10.2017 03:54 11,6 C 11,1 C 90 % 1020,4 hPa 0,0 l/m 10,1 km/h (2 Bft) SW 234 0 min 0,000 mm 0,0 UV-I 0 W/m 10,0 C 9,3 C 14,5 km/h (3 Bft) 97,87 %
11.10.2017 03:56 11,6 C 11,1 C 90 % 1020,4 hPa 0,0 l/m 11,5 km/h (2 Bft) SW 231 0 min 0,000 mm 0,0 UV-I 0 W/m 10,0 C 8,6 C 17,7 km/h (3 Bft) 97,73 %
11.10.2017 03:58 11,6 C 11,1 C 90 % 1020,3 hPa 0,0 l/m 11,1 km/h (2 Bft) W-SW 240 0 min 0,000 mm 0,0 UV-I 0 W/m 10,0 C 8,8 C 16,1 km/h (3 Bft) 96,43 %
11.10.2017 04:00 11,6 C 11,1 C 90 % 1020,5 hPa 0,0 l/m 10,1 km/h (2 Bft) W-SW 237 0 min 0,025 mm 0,0 UV-I 0 W/m 10,0 C 9,3 C 17,7 km/h (3 Bft) 97,37 %
11.10.2017 04:02 11,5 C 11,1 C 90 % 1020,4 hPa 0,0 l/m 11,5 km/h (2 Bft) W-SW 257 0 min 0,000 mm 0,0 UV-I 0 W/m 9,9 C 8,5 C 14,5 km/h (3 Bft) 96,55 %
11.10.2017 04:04 11,5 C 11,1 C 90 % 1020,5 hPa 0,0 l/m 10,6 km/h (2 Bft) W-SW 239 0 min 0,000 mm 0,0 UV-I 0 W/m 9,9 C 8,9 C 16,1 km/h (3 Bft) 97,92 %
11.10.2017 04:06 11,5 C 11,1 C 90 % 1020,5 hPa 0,0 l/m 8,2 km/h (2 Bft) W 263 0 min 0,000 mm 0,0 UV-I 0 W/m 9,9 C 10,3 C 12,9 km/h (3 Bft) 96,15 %
11.10.2017 04:08 11,5 C 11,1 C 90 % 1020,5 hPa 0,0 l/m 9,8 km/h (2 Bft) W-SW 254 0 min 0,000 mm 0,0 UV-I 0 W/m 9,9 C 9,4 C 14,5 km/h (3 Bft) 98,00 %
11.10.2017 04:10 11,5 C 11,1 C 90 % 1020,5 hPa 0,0 l/m 8,4 km/h (2 Bft) SW 236 0 min 0,000 mm 0,0 UV-I 0 W/m 9,9 C 10,2 C 12,9 km/h (3 Bft) 97,44 %
11.10.2017 04:12 11,5 C 11,1 C 90 % 1020,5 hPa 0,0 l/m 8,3 km/h (2 Bft) W-SW 244 0 min 0,000 mm 0,0 UV-I 0 W/m 9,9 C 10,2 C 14,5 km/h (3 Bft) 96,36 %
11.10.2017 04:14 11,5 C 11,1 C 90 % 1020,6 hPa 0,0 l/m 8,8 km/h (2 Bft) W-SW 251 0 min 0,000 mm 0,0 UV-I 0 W/m 9,9 C 9,9 C 12,9 km/h (3 Bft) 97,44 %
11.10.2017 04:16 11,5 C 11,1 C 90 % 1020,6 hPa 0,0 l/m 8,5 km/h (2 Bft) W-SW 237 0 min 0,000 mm 0,0 UV-I 0 W/m 9,9 C 10,1 C 14,5 km/h (3 Bft) 98,00 %
11.10.2017 04:18 11,6 C 11,1 C 90 % 1020,6 hPa 0,0 l/m 8,7 km/h (2 Bft) SW 229 0 min 0,000 mm 0,0 UV-I 0 W/m 10,0 C 10,1 C 12,9 km/h (3 Bft) 96,00 %
11.10.2017 04:20 11,6 C 11,1 C 90 % 1020,6 hPa 0,0 l/m 10,0 km/h (2 Bft) SW 232 0 min 0,000 mm 0,0 UV-I 0 W/m 10,0 C 9,4 C 12,9 km/h (3 Bft) 97,73 %
11.10.2017 04:22 11,6 C 11,1 C 90 % 1020,6 hPa 0,0 l/m 8,1 km/h (2 Bft) W 260 0 min 0,000 mm 0,0 UV-I 0 W/m 10,0 C 10,5 C 12,9 km/h (3 Bft) 100,00 %
11.10.2017 04:24 11,6 C 11,1 C 90 % 1020,6 hPa 0,0 l/m 7,6 km/h (2 Bft) S-SW 206 0 min 0,000 mm 0,0 UV-I 0 W/m 10,0 C 10,8 C 11,3 km/h (2 Bft) 96,00 %
11.10.2017 04:26 11,6 C 11,1 C 90 % 1020,6 hPa 0,0 l/m 10,1 km/h (2 Bft) SW 227 0 min 0,000 mm 0,0 UV-I 0 W/m 10,0 C 9,3 C 14,5 km/h (3 Bft) 97,73 %
11.10.2017 04:28 11,7 C 11,1 C 90 % 1020,6 hPa 0,0 l/m 10,2 km/h (2 Bft) SW 234 0 min 0,000 mm 0,0 UV-I 0 W/m 10,1 C 9,4 C 14,5 km/h (3 Bft) 96,00 %
11.10.2017 04:30 11,6 C 11,1 C 90 % 1020,6 hPa 0,0 l/m 9,6 km/h (2 Bft) SW 229 0 min 0,000 mm 0,0 UV-I 0 W/m 10,0 C 9,6 C 16,1 km/h (3 Bft) 98,11 %
11.10.2017 04:32 11,7 C 11,1 C 90 % 1020,6 hPa 0,0 l/m 9,4 km/h (2 Bft) SW 234 0 min 0,000 mm 0,0 UV-I 0 W/m 10,1 C 9,8 C 12,9 km/h (3 Bft) 97,37 %
11.10.2017 04:34 11,7 C 11,1 C 90 % 1020,5 hPa 0,0 l/m 7,8 km/h (2 Bft) SW 225 0 min 0,000 mm 0,0 UV-I 0 W/m 10,1 C 10,8 C 12,9 km/h (3 Bft) 97,62 %
11.10.2017 04:36 11,7 C 11,1 C 90 % 1020,5 hPa 0,0 l/m 8,8 km/h (2 Bft) SW 229 0 min 0,000 mm 0,0 UV-I 0 W/m 10,1 C 10,1 C 12,9 km/h (3 Bft) 98,21 %
11.10.2017 04:38 11,7 C 11,1 C 90 % 1020,5 hPa 0,0 l/m 7,8 km/h (2 Bft) W-SW 242 0 min 0,000 mm 0,0 UV-I 0 W/m 10,1 C 10,8 C 11,3 km/h (2 Bft) 94,74 %
11.10.2017 04:40 11,7 C 11,1 C 90 % 1020,5 hPa 0,0 l/m 9,4 km/h (2 Bft) W-SW 238 0 min 0,000 mm 0,0 UV-I 0 W/m 10,1 C 9,8 C 14,5 km/h (3 Bft) 98,21 %
11.10.2017 04:42 11,7 C 11,1 C 90 % 1020,5 hPa 0,0 l/m 6,3 km/h (2 Bft) SW 217 0 min 0,000 mm 0,0 UV-I 0 W/m 10,1 C 11,7 C 9,7 km/h (2 Bft) 95,83 %
11.10.2017 04:44 11,7 C 11,1 C 90 % 1020,5 hPa 0,0 l/m 8,4 km/h (2 Bft) SW 229 0 min 0,000 mm 0,0 UV-I 0 W/m 10,1 C 10,4 C 12,9 km/h (3 Bft) 97,01 %
11.10.2017 04:46 11,7 C 11,1 C 90 % 1020,5 hPa 0,0 l/m 7,3 km/h (2 Bft) SW 223 0 min 0,000 mm 0,0 UV-I 0 W/m 10,1 C 11,1 C 9,7 km/h (2 Bft) 97,62 %
11.10.2017 04:48 11,7 C 11,1 C 90 % 1020,5 hPa 0,0 l/m 6,8 km/h (2 Bft) SW 229 0 min 0,000 mm 0,0 UV-I 0 W/m 10,1 C 11,4 C 9,7 km/h (2 Bft) 97,73 %
11.10.2017 04:50 11,7 C 11,1 C 90 % 1020,5 hPa 0,0 l/m 5,9 km/h (2 Bft) SW 227 0 min 0,000 mm 0,0 UV-I 0 W/m 10,1 C 11,7 C 11,3 km/h (2 Bft) 100,00 %
11.10.2017 04:52 11,7 C 11,1 C 90 % 1020,5 hPa 0,0 l/m 6,9 km/h (2 Bft) W-SW 238 0 min 0,000 mm 0,0 UV-I 0 W/m 10,1 C 11,4 C 11,3 km/h (2 Bft) 98,18 %
11.10.2017 04:54 11,7 C 11,1 C 90 % 1020,4 hPa 0,0 l/m 6,8 km/h (2 Bft) SW 234 0 min 0,000 mm 0,0 UV-I 0 W/m 10,1 C 11,4 C 9,7 km/h (2 Bft) 97,44 %
11.10.2017 04:56 11,7 C 11,1 C 90 % 1020,5 hPa 0,0 l/m 6,0 km/h (2 Bft) SW 229 0 min 0,000 mm 0,0 UV-I 0 W/m 10,1 C 11,7 C 8,0 km/h (2 Bft) 100,00 %
11.10.2017 04:58 11,7 C 11,1 C 90 % 1020,5 hPa 0,0 l/m 6,6 km/h (2 Bft) W-SW 240 0 min 0,000 mm 0,0 UV-I 0 W/m 10,1 C 11,6 C 9,7 km/h (2 Bft) 100,00 %
11.10.2017 05:00 11,7 C 11,1 C 90 % 1020,5 hPa 0,0 l/m 6,1 km/h (2 Bft) SW 229 0 min 0,000 mm 0,0 UV-I 0 W/m 10,1 C 11,7 C 8,0 km/h (2 Bft) 100,00 %
11.10.2017 05:02 11,7 C 11,1 C 90 % 1020,4 hPa 0,0 l/m 5,8 km/h (2 Bft) SW 230 0 min 0,000 mm 0,0 UV-I 0 W/m 10,1 C 11,7 C 8,0 km/h (2 Bft) 98,00 %
11.10.2017 05:04 11,7 C 11,1 C 90 % 1020,4 hPa 0,0 l/m 5,6 km/h (1 Bft) SW 236 0 min 0,000 mm 0,0 UV-I 0 W/m 10,1 C 11,7 C 8,0 km/h (2 Bft) 97,14 %
11.10.2017 05:06 11,7 C 11,1 C 90 % 1020,5 hPa 0,0 l/m 5,3 km/h (1 Bft) W-SW 237 0 min 0,000 mm 0,0 UV-I 0 W/m 10,1 C 11,7 C 9,7 km/h (2 Bft) 98,00 %
11.10.2017 05:08 11,7 C 11,1 C 90 % 1020,4 hPa 0,0 l/m 4,0 km/h (1 Bft) SW 234 0 min 0,000 mm 0,0 UV-I 0 W/m 10,1 C 11,7 C 6,4 km/h (2 Bft) 98,21 %
11.10.2017 05:10 11,7 C 11,1 C 90 % 1020,4 hPa 0,0 l/m 6,3 km/h (2 Bft) S-SW 209 0 min 0,000 mm 0,0 UV-I 0 W/m 10,1 C 11,7 C 9,7 km/h (2 Bft) 95,45 %
11.10.2017 05:12 11,7 C 11,1 C 90 % 1020,5 hPa 0,0 l/m 5,4 km/h (1 Bft) SW 227 0 min 0,000 mm 0,0 UV-I 0 W/m 10,1 C 11,7 C 8,0 km/h (2 Bft) 97,56 %
11.10.2017 05:14 11,7 C 11,1 C 90 % 1020,5 hPa 0,0 l/m 4,5 km/h (1 Bft) W-SW 244 0 min 0,000 mm 0,0 UV-I 0 W/m 10,1 C 11,7 C 6,4 km/h (2 Bft) 97,87 %
11.10.2017 05:16 11,7 C 11,1 C 90 % 1020,5 hPa 0,0 l/m 4,0 km/h (1 Bft) SW 227 0 min 0,000 mm 0,0 UV-I 0 W/m 10,1 C 11,7 C 8,0 km/h (2 Bft) 93,62 %
11.10.2017 05:18 11,7 C 11,1 C 90 % 1020,5 hPa 0,0 l/m 4,5 km/h (1 Bft) SW 226 0 min 0,000 mm 0,0 UV-I 0 W/m 10,1 C 11,7 C 6,4 km/h (2 Bft) 97,87 %
11.10.2017 05:20 11,6 C 11,1 C 90 % 1020,4 hPa 0,0 l/m 4,8 km/h (1 Bft) S-SW 210 0 min 0,000 mm 0,0 UV-I 0 W/m 10,0 C 11,6 C 8,0 km/h (2 Bft) 97,87 %
11.10.2017 05:22 11,6 C 11,1 C 90 % 1020,4 hPa 0,0 l/m 5,4 km/h (1 Bft) SW 235 0 min 0,000 mm 0,0 UV-I 0 W/m 10,0 C 11,6 C 9,7 km/h (2 Bft) 96,00 %
11.10.2017 05:24 11,6 C 11,1 C 90 % 1020,4 hPa 0,0 l/m 5,2 km/h (1 Bft) W-SW 238 0 min 0,000 mm 0,0 UV-I 0 W/m 10,0 C 11,6 C 8,0 km/h (2 Bft) 96,00 %
11.10.2017 05:26 11,6 C 11,1 C 90 % 1020,4 hPa 0,0 l/m 5,6 km/h (1 Bft) W-SW 237 0 min 0,000 mm 0,0 UV-I 0 W/m 10,0 C 11,6 C 6,4 km/h (2 Bft) 97,44 %
11.10.2017 05:28 11,5 C 11,1 C 90 % 1020,4 hPa 0,0 l/m 4,9 km/h (1 Bft) SW 232 0 min 0,000 mm 0,0 UV-I 0 W/m 9,9 C 11,5 C 6,4 km/h (2 Bft) 98,00 %
11.10.2017 05:30 11,5 C 11,1 C 90 % 1020,4 hPa 0,0 l/m 4,5 km/h (1 Bft) SW 236 0 min 0,000 mm 0,0 UV-I 0 W/m 9,9 C 11,5 C 6,4 km/h (2 Bft) 97,87 %
11.10.2017 05:32 11,4 C 11,1 C 91 % 1020,4 hPa 0,0 l/m 4,5 km/h (1 Bft) SW 235 0 min 0,000 mm 0,0 UV-I 0 W/m 10,0 C 11,4 C 6,4 km/h (2 Bft) 96,00 %
11.10.2017 05:34 11,4 C 11,1 C 91 % 1020,4 hPa 0,0 l/m 5,3 km/h (1 Bft) SW 227 0 min 0,000 mm 0,0 UV-I 0 W/m 10,0 C 11,4 C 6,4 km/h (2 Bft) 98,00 %
11.10.2017 05:36 11,4 C 11,1 C 91 % 1020,3 hPa 0,0 l/m 6,1 km/h (2 Bft) SW 217 0 min 0,000 mm 0,0 UV-I 0 W/m 10,0 C 11,4 C 8,0 km/h (2 Bft) 96,15 %
11.10.2017 05:38 11,3 C 11,1 C 91 % 1020,3 hPa 0,0 l/m 5,9 km/h (2 Bft) S-SW 210 0 min 0,000 mm 0,0 UV-I 0 W/m 9,9 C 11,3 C 8,0 km/h (2 Bft) 96,92 %
11.10.2017 05:40 11,3 C 11,1 C 91 % 1020,3 hPa 0,0 l/m 5,1 km/h (1 Bft) SW 236 0 min 0,000 mm 0,0 UV-I 0 W/m 9,9 C 11,3 C 9,7 km/h (2 Bft) 100,00 %
11.10.2017 05:42 11,3 C 11,1 C 91 % 1020,3 hPa 0,0 l/m 5,3 km/h (1 Bft) W 263 0 min 0,000 mm 0,0 UV-I 0 W/m 9,9 C 11,3 C 9,7 km/h (2 Bft) 97,87 %
11.10.2017 05:44 11,3 C 11,1 C 91 % 1020,3 hPa 0,0 l/m 4,3 km/h (1 Bft) SW 223 0 min 0,000 mm 0,0 UV-I 0 W/m 9,9 C 11,3 C 6,4 km/h (2 Bft) 96,00 %
11.10.2017 05:46 11,2 C 11,1 C 91 % 1020,3 hPa 0,0 l/m 5,0 km/h (1 Bft) W-SW 237 0 min 0,000 mm 0,0 UV-I 0 W/m 9,8 C 11,2 C 8,0 km/h (2 Bft) 97,87 %
11.10.2017 05:48 11,2 C 11,1 C 91 % 1020,3 hPa 0,0 l/m 5,0 km/h (1 Bft) S-SW 212 0 min 0,000 mm 0,0 UV-I 0 W/m 9,8 C 11,2 C 8,0 km/h (2 Bft) 100,00 %
11.10.2017 05:50 11,1 C 11,1 C 91 % 1020,3 hPa 0,0 l/m 6,8 km/h (2 Bft) W-SW 238 0 min 0,000 mm 0,0 UV-I 0 W/m 9,7 C 10,8 C 9,7 km/h (2 Bft) 100,00 %
11.10.2017 05:52 11,1 C 11,1 C 91 % 1020,3 hPa 0,0 l/m 6,3 km/h (2 Bft) SW 227 0 min 0,000 mm 0,0 UV-I 0 W/m 9,7 C 11,1 C 9,7 km/h (2 Bft) 100,00 %
11.10.2017 05:54 11,0 C 11,1 C 91 % 1020,3 hPa 0,0 l/m 5,7 km/h (1 Bft) S-SW 203 0 min 0,000 mm 0,0 UV-I 0 W/m 9,6 C 11,0 C 8,0 km/h (2 Bft) 100,00 %
11.10.2017 05:56 10,9 C 11,1 C 92 % 1020,3 hPa 0,0 l/m 5,7 km/h (1 Bft) S-SW 205 0 min 0,000 mm 0,0 UV-I 0 W/m 9,7 C 10,9 C 9,7 km/h (2 Bft) 100,00 %
11.10.2017 05:58 10,9 C 11,1 C 92 % 1020,3 hPa 0,0 l/m 6,6 km/h (2 Bft) SW 217 0 min 0,000 mm 0,0 UV-I 0 W/m 9,7 C 10,8 C 9,7 km/h (2 Bft) 100,00 %
11.10.2017 06:00 10,8 C 11,1 C 92 % 1020,3 hPa 0,0 l/m 4,9 km/h (1 Bft) SW 234 0 min 0,000 mm 0,0 UV-I 0 W/m 9,6 C 10,8 C 8,0 km/h (2 Bft) 100,00 %
11.10.2017 06:02 10,8 C 11,1 C 92 % 1020,3 hPa 0,0 l/m 3,8 km/h (1 Bft) SW 229 0 min 0,000 mm 0,0 UV-I 0 W/m 9,6 C 10,8 C 6,4 km/h (2 Bft) 100,00 %
11.10.2017 06:04 10,8 C 11,1 C 92 % 1020,3 hPa 0,0 l/m 4,9 km/h (1 Bft) SW 228 0 min 0,000 mm 0,0 UV-I 0 W/m 9,6 C 10,8 C 6,4 km/h (2 Bft) 100,00 %
11.10.2017 06:06 10,7 C 11,1 C 92 % 1020,3 hPa 0,0 l/m 5,7 km/h (1 Bft) SW 220 0 min 0,000 mm 0,0 UV-I 0 W/m 9,5 C 10,7 C 8,0 km/h (2 Bft) 100,00 %
11.10.2017 06:08 10,7 C 11,1 C 92 % 1020,3 hPa 0,0 l/m 5,1 km/h (1 Bft) SW 223 0 min 0,000 mm 0,0 UV-I 0 W/m 9,5 C 10,7 C 6,4 km/h (2 Bft) 100,00 %
11.10.2017 06:10 10,6 C 11,1 C 92 % 1020,3 hPa 0,0 l/m 5,8 km/h (2 Bft) S-SW 205 0 min 0,000 mm 0,0 UV-I 0 W/m 9,4 C 10,6 C 8,0 km/h (2 Bft) 97,87 %
11.10.2017 06:12 10,6 C 11,1 C 92 % 1020,3 hPa 0,0 l/m 5,6 km/h (1 Bft) SW 214 0 min 0,000 mm 0,0 UV-I 0 W/m 9,4 C 10,6 C 9,7 km/h (2 Bft) 100,00 %
11.10.2017 06:14 10,6 C 11,1 C 92 % 1020,3 hPa 0,0 l/m 6,9 km/h (2 Bft) SW 234 0 min 0,000 mm 0,0 UV-I 0 W/m 9,4 C 10,3 C 8,0 km/h (2 Bft) 100,00 %
11.10.2017 06:16 10,5 C 11,1 C 93 % 1020,3 hPa 0,0 l/m 5,1 km/h (1 Bft) W-SW 243 0 min 0,000 mm 0,0 UV-I 0 W/m 9,4 C 10,5 C 8,0 km/h (2 Bft) 100,00 %
11.10.2017 06:18 10,5 C 11,1 C 93 % 1020,3 hPa 0,0 l/m 4,8 km/h (1 Bft) SW 221 0 min 0,000 mm 0,0 UV-I 0 W/m 9,4 C 10,5 C 8,0 km/h (2 Bft) 100,00 %
11.10.2017 06:20 10,5 C 11,1 C 93 % 1020,3 hPa 0,0 l/m 3,3 km/h (1 Bft) SW 221 0 min 0,000 mm 0,0 UV-I 0 W/m 9,4 C 10,5 C 4,8 km/h (1 Bft) 97,56 %
11.10.2017 06:22 10,4 C 11,1 C 93 % 1020,3 hPa 0,0 l/m 4,5 km/h (1 Bft) SW 229 0 min 0,000 mm 0,0 UV-I 0 W/m 9,3 C 10,4 C 6,4 km/h (2 Bft) 100,00 %
11.10.2017 06:24 10,4 C 11,1 C 93 % 1020,3 hPa 0,0 l/m 5,1 km/h (1 Bft) SW 227 0 min 0,000 mm 0,0 UV-I 0 W/m 9,3 C 10,4 C 6,4 km/h (2 Bft) 97,87 %
11.10.2017 06:26 10,4 C 11,1 C 93 % 1020,3 hPa 0,0 l/m 4,4 km/h (1 Bft) S 186 0 min 0,000 mm 0,0 UV-I 0 W/m 9,3 C 10,4 C 8,0 km/h (2 Bft) 100,00 %
11.10.2017 06:28 10,3 C 11,1 C 93 % 1020,3 hPa 0,0 l/m 5,4 km/h (1 Bft) SW 225 0 min 0,000 mm 0,0 UV-I 0 W/m 9,2 C 10,3 C 9,7 km/h (2 Bft) 100,00 %
11.10.2017 06:30 10,3 C 11,1 C 93 % 1020,3 hPa 0,0 l/m 6,3 km/h (2 Bft) SW 220 0 min 0,000 mm 0,0 UV-I 0 W/m 9,2 C 10,3 C 9,7 km/h (2 Bft) 100,00 %
11.10.2017 06:32 10,3 C 11,1 C 93 % 1020,3 hPa 0,0 l/m 5,9 km/h (2 Bft) S-SW 205 0 min 0,000 mm 0,0 UV-I 0 W/m 9,2 C 10,3 C 8,0 km/h (2 Bft) 97,37 %
11.10.2017 06:34 10,3 C 11,1 C 93 % 1020,3 hPa 0,0 l/m 7,1 km/h (2 Bft) SW 215 0 min 0,000 mm 0,0 UV-I 0 W/m 9,2 C 9,8 C 12,9 km/h (3 Bft) 100,00 %
11.10.2017 06:36 10,3 C 11,1 C 93 % 1020,3 hPa 0,0 l/m 5,4 km/h (1 Bft) SW 233 0 min 0,000 mm 0,0 UV-I 0 W/m 9,2 C 10,3 C 8,0 km/h (2 Bft) 100,00 %
11.10.2017 06:38 10,2 C 11,1 C 93 % 1020,3 hPa 0,0 l/m 5,8 km/h (2 Bft) S-SW 207 0 min 0,000 mm 0,0 UV-I 0 W/m 9,1 C 10,2 C 8,0 km/h (2 Bft) 100,00 %
11.10.2017 06:40 10,2 C 11,1 C 93 % 1020,3 hPa 0,0 l/m 5,7 km/h (1 Bft) SW 221 0 min 0,000 mm 0,0 UV-I 0 W/m 9,1 C 10,2 C 8,0 km/h (2 Bft) 100,00 %
11.10.2017 06:42 10,2 C 11,1 C 93 % 1020,3 hPa 0,0 l/m 6,0 km/h (2 Bft) SW 231 0 min 0,000 mm 0,0 UV-I 0 W/m 9,1 C 10,2 C 8,0 km/h (2 Bft) 97,37 %
11.10.2017 06:44 10,2 C 11,1 C 93 % 1020,3 hPa 0,0 l/m 5,1 km/h (1 Bft) SW 227 0 min 0,000 mm 0,0 UV-I 0 W/m 9,1 C 10,2 C 9,7 km/h (2 Bft) 100,00 %
11.10.2017 06:46 10,2 C 11,1 C 93 % 1020,3 hPa 0,0 l/m 6,2 km/h (2 Bft) S-SW 208 0 min 0,000 mm 0,0 UV-I 0 W/m 9,1 C 10,2 C 9,7 km/h (2 Bft) 100,00 %
11.10.2017 06:48 10,2 C 11,1 C 93 % 1020,3 hPa 0,0 l/m 6,8 km/h (2 Bft) S-SW 207 0 min 0,000 mm 0,0 UV-I 0 W/m 9,1 C 9,9 C 9,7 km/h (2 Bft) 100,00 %
11.10.2017 06:50 10,2 C 11,1 C 93 % 1020,3 hPa 0,0 l/m 7,0 km/h (2 Bft) S-SW 200 0 min 0,000 mm 0,0 UV-I 0 W/m 9,1 C 9,8 C 9,7 km/h (2 Bft) 98,00 %
11.10.2017 06:52 10,2 C 11,1 C 93 % 1020,3 hPa 0,0 l/m 7,3 km/h (2 Bft) SW 219 0 min 0,000 mm 0,0 UV-I 0 W/m 9,1 C 9,6 C 9,7 km/h (2 Bft) 100,00 %
11.10.2017 06:54 10,1 C 11,1 C 93 % 1020,2 hPa 0,0 l/m 6,5 km/h (2 Bft) S-SW 210 0 min 0,000 mm 0,0 UV-I 0 W/m 9,0 C 10,1 C 9,7 km/h (2 Bft) 100,00 %
11.10.2017 06:56 10,1 C 11,1 C 94 % 1020,2 hPa 0,0 l/m 6,1 km/h (2 Bft) S-SW 205 0 min 0,000 mm 0,0 UV-I 0 W/m 9,2 C 10,1 C 9,7 km/h (2 Bft) 98,00 %
11.10.2017 06:58 10,2 C 11,1 C 94 % 1020,2 hPa 0,0 l/m 7,4 km/h (2 Bft) SW 215 0 min 0,000 mm 0,0 UV-I 0 W/m 9,3 C 9,5 C 12,9 km/h (3 Bft) 100,00 %
11.10.2017 07:00 10,2 C 11,1 C 94 % 1020,2 hPa 0,0 l/m 7,6 km/h (2 Bft) S-SW 207 0 min 0,000 mm 0,0 UV-I 0 W/m 9,3 C 9,3 C 9,7 km/h (2 Bft) 100,00 %
11.10.2017 07:02 10,1 C 11,1 C 93 % 1020,2 hPa 0,0 l/m 6,6 km/h (2 Bft) S-SW 210 0 min 0,000 mm 0,0 UV-I 0 W/m 9,0 C 10,0 C 8,0 km/h (2 Bft) 98,11 %
11.10.2017 07:04 10,1 C 11,1 C 93 % 1020,1 hPa 0,0 l/m 5,8 km/h (2 Bft) SW 222 0 min 0,000 mm 0,0 UV-I 0 W/m 9,0 C 10,1 C 8,0 km/h (2 Bft) 100,00 %
11.10.2017 07:06 10,1 C 11,1 C 94 % 1020,3 hPa 0,0 l/m 5,7 km/h (1 Bft) SW 222 0 min 0,000 mm 0,0 UV-I 0 W/m 9,2 C 10,1 C 8,0 km/h (2 Bft) 97,14 %
11.10.2017 07:08 10,1 C 11,1 C 94 % 1020,3 hPa 0,0 l/m 6,1 km/h (2 Bft) S-SW 207 0 min 0,000 mm 0,0 UV-I 5 W/m 9,2 C 10,1 C 8,0 km/h (2 Bft) 98,31 %
11.10.2017 07:10 10,1 C 11,1 C 93 % 1020,3 hPa 0,0 l/m 7,0 km/h (2 Bft) S-SW 211 0 min 0,000 mm 0,0 UV-I 5 W/m 9,0 C 9,7 C 11,3 km/h (2 Bft) 100,00 %
11.10.2017 07:12 10,0 C 11,1 C 93 % 1020,3 hPa 0,0 l/m 5,1 km/h (1 Bft) SW 223 0 min 0,000 mm 0,0 UV-I 5 W/m 8,9 C 10,0 C 8,0 km/h (2 Bft) 98,11 %
11.10.2017 07:14 9,9 C 11,1 C 94 % 1020,3 hPa 0,0 l/m 5,9 km/h (2 Bft) S-SW 212 0 min 0,000 mm 0,0 UV-I 6 W/m 9,0 C 9,9 C 8,0 km/h (2 Bft) 97,56 %
11.10.2017 07:16 9,9 C 11,1 C 94 % 1020,3 hPa 0,0 l/m 5,4 km/h (1 Bft) SW 217 0 min 0,000 mm 0,0 UV-I 7 W/m 9,0 C 9,9 C 8,0 km/h (2 Bft) 94,00 %
11.10.2017 07:18 9,9 C 11,1 C 94 % 1020,3 hPa 0,0 l/m 6,0 km/h (2 Bft) S-SW 202 0 min 0,000 mm 0,0 UV-I 7 W/m 9,0 C 9,9 C 8,0 km/h (2 Bft) 96,00 %
11.10.2017 07:20 9,9 C 11,1 C 94 % 1020,3 hPa 0,0 l/m 5,6 km/h (1 Bft) S-SW 211 0 min 0,000 mm 0,0 UV-I 9 W/m 9,0 C 9,9 C 8,0 km/h (2 Bft) 97,73 %
11.10.2017 07:22 9,9 C 11,1 C 94 % 1020,3 hPa 0,0 l/m 6,5 km/h (2 Bft) SW 215 0 min 0,000 mm 0,0 UV-I 10 W/m 9,0 C 9,9 C 8,0 km/h (2 Bft) 95,24 %
11.10.2017 07:24 9,9 C 11,1 C 94 % 1020,3 hPa 0,0 l/m 5,6 km/h (1 Bft) SW 220 0 min 0,000 mm 0,0 UV-I 11 W/m 9,0 C 9,9 C 8,0 km/h (2 Bft) 98,08 %
11.10.2017 07:26 9,9 C 11,1 C 94 % 1020,3 hPa 0,0 l/m 5,9 km/h (2 Bft) SW 229 0 min 0,000 mm 0,0 UV-I 13 W/m 9,0 C 9,9 C 11,3 km/h (2 Bft) 96,00 %
11.10.2017 07:28 9,8 C 11,1 C 94 % 1020,4 hPa 0,0 l/m 5,1 km/h (1 Bft) SW 220 2 min 0,000 mm 0,0 UV-I 14 W/m 8,9 C 9,8 C 8,0 km/h (2 Bft) 97,44 %
11.10.2017 07:30 9,8 C 11,1 C 94 % 1020,3 hPa 0,0 l/m 7,6 km/h (2 Bft) S-SW 209 2 min 0,000 mm 0,0 UV-I 17 W/m 8,9 C 8,9 C 9,7 km/h (2 Bft) 98,11 %
11.10.2017 07:32 9,8 C 11,1 C 94 % 1020,4 hPa 0,0 l/m 7,0 km/h (2 Bft) S-SW 206 2 min 0,000 mm 0,0 UV-I 18 W/m 8,9 C 9,4 C 9,7 km/h (2 Bft) 94,00 %
11.10.2017 07:34 9,8 C 11,1 C 94 % 1020,3 hPa 0,0 l/m 7,8 km/h (2 Bft) SW 214 2 min 0,000 mm 0,0 UV-I 19 W/m 8,9 C 8,8 C 11,3 km/h (2 Bft) 92,11 %
11.10.2017 07:36 9,8 C 11,1 C 94 % 1020,4 hPa 0,0 l/m 7,4 km/h (2 Bft) S-SW 196 0 min 0,000 mm 0,0 UV-I 21 W/m 8,9 C 9,1 C 11,3 km/h (2 Bft) 95,45 %
11.10.2017 07:38 9,8 C 11,1 C 94 % 1020,4 hPa 0,0 l/m 6,6 km/h (2 Bft) S-SW 202 2 min 0,000 mm 0,0 UV-I 25 W/m 8,9 C 9,7 C 9,7 km/h (2 Bft) 94,34 %
11.10.2017 07:40 9,8 C 11,1 C 94 % 1020,4 hPa 0,0 l/m 6,6 km/h (2 Bft) S-SW 200 0 min 0,000 mm 0,0 UV-I 27 W/m 8,9 C 9,7 C 11,3 km/h (2 Bft) 96,23 %
11.10.2017 07:42 9,9 C 11,1 C 94 % 1020,4 hPa 0,0 l/m 6,4 km/h (2 Bft) S-SW 206 0 min 0,000 mm 0,0 UV-I 30 W/m 9,0 C 9,9 C 8,0 km/h (2 Bft) 94,74 %
11.10.2017 07:44 9,9 C 11,1 C 94 % 1020,4 hPa 0,0 l/m 5,0 km/h (1 Bft) SW 221 0 min 0,000 mm 0,0 UV-I 34 W/m 9,0 C 9,9 C 8,0 km/h (2 Bft) 93,62 %
11.10.2017 07:46 9,9 C 11,1 C 94 % 1020,5 hPa 0,0 l/m 6,2 km/h (2 Bft) S-SW 212 0 min 0,000 mm 0,0 UV-I 37 W/m 9,0 C 9,9 C 8,0 km/h (2 Bft) 94,00 %
11.10.2017 07:48 9,8 C 11,1 C 94 % 1020,4 hPa 0,0 l/m 4,6 km/h (1 Bft) S-SW 207 0 min 0,000 mm 0,0 UV-I 40 W/m 8,9 C 9,8 C 8,0 km/h (2 Bft) 98,00 %
11.10.2017 07:50 9,8 C 11,1 C 94 % 1020,4 hPa 0,0 l/m 3,9 km/h (1 Bft) S-SW 207 0 min 0,000 mm 0,0 UV-I 43 W/m 8,9 C 9,8 C 6,4 km/h (2 Bft) 97,37 %
11.10.2017 07:52 9,8 C 11,1 C 94 % 1020,5 hPa 0,0 l/m 4,8 km/h (1 Bft) S-SW 212 2 min 0,000 mm 0,0 UV-I 63 W/m 8,9 C 9,8 C 8,0 km/h (2 Bft) 98,11 %
11.10.2017 07:54 9,9 C 11,1 C 94 % 1020,5 hPa 0,0 l/m 4,1 km/h (1 Bft) S-SW 211 2 min 0,000 mm 0,0 UV-I 54 W/m 9,0 C 9,9 C 6,4 km/h (2 Bft) 96,00 %
11.10.2017 07:56 9,9 C 11,1 C 94 % 1020,5 hPa 0,0 l/m 4,1 km/h (1 Bft) SW 219 2 min 0,000 mm 0,0 UV-I 65 W/m 9,0 C 9,9 C 6,4 km/h (2 Bft) 93,62 %
11.10.2017 07:58 9,9 C 11,1 C 94 % 1020,5 hPa 0,0 l/m 3,8 km/h (1 Bft) SW 219 2 min 0,000 mm 0,0 UV-I 76 W/m 9,0 C 9,9 C 6,4 km/h (2 Bft) 97,87 %
11.10.2017 08:00 9,9 C 11,1 C 94 % 1020,6 hPa 0,0 l/m 5,6 km/h (1 Bft) S-SW 211 2 min 0,026 mm 0,0 UV-I 85 W/m 9,0 C 9,9 C 8,0 km/h (2 Bft) 97,37 %
11.10.2017 08:02 9,9 C 11,1 C 94 % 1020,6 hPa 0,0 l/m 4,9 km/h (1 Bft) SW 221 2 min 0,000 mm 0,0 UV-I 103 W/m 9,0 C 9,9 C 8,0 km/h (2 Bft) 96,23 %
11.10.2017 08:04 10,0 C 11,1 C 94 % 1020,6 hPa 0,0 l/m 5,0 km/h (1 Bft) SW 221 2 min 0,000 mm 0,0 UV-I 121 W/m 9,1 C 10,0 C 6,4 km/h (2 Bft) 98,00 %
11.10.2017 08:06 10,1 C 11,1 C 94 % 1020,6 hPa 0,0 l/m 6,9 km/h (2 Bft) S-SW 204 2 min 0,000 mm 0,0 UV-I 124 W/m 9,2 C 9,7 C 11,3 km/h (2 Bft) 97,44 %
11.10.2017 08:08 10,2 C 11,1 C 94 % 1020,6 hPa 0,0 l/m 5,7 km/h (1 Bft) S-SW 205 2 min 0,000 mm 0,0 UV-I 131 W/m 9,3 C 10,2 C 8,0 km/h (2 Bft) 98,00 %
11.10.2017 08:10 10,3 C 11,1 C 94 % 1020,6 hPa 0,0 l/m 4,6 km/h (1 Bft) SW 217 2 min 0,000 mm 0,0 UV-I 142 W/m 9,4 C 10,3 C 8,0 km/h (2 Bft) 98,00 %
11.10.2017 08:12 10,3 C 11,1 C 94 % 1020,6 hPa 0,0 l/m 6,5 km/h (2 Bft) S-SW 202 2 min 0,000 mm 0,0 UV-I 147 W/m 9,4 C 10,3 C 9,7 km/h (2 Bft) 97,87 %
11.10.2017 08:14 10,4 C 11,1 C 94 % 1020,6 hPa 0,0 l/m 5,1 km/h (1 Bft) S-SW 200 2 min 0,000 mm 0,0 UV-I 152 W/m 9,5 C 10,4 C 8,0 km/h (2 Bft) 97,73 %
11.10.2017 08:16 10,6 C 11,1 C 94 % 1020,5 hPa 0,0 l/m 7,1 km/h (2 Bft) S-SW 202 2 min 0,000 mm 0,0 UV-I 159 W/m 9,7 C 10,1 C 11,3 km/h (2 Bft) 95,74 %
11.10.2017 08:18 10,6 C 11,1 C 93 % 1020,6 hPa 0,0 l/m 5,7 km/h (1 Bft) S-SW 201 2 min 0,000 mm 0,0 UV-I 168 W/m 9,5 C 10,6 C 11,3 km/h (2 Bft) 98,00 %
11.10.2017 08:20 10,7 C 11,1 C 93 % 1020,6 hPa 0,0 l/m 8,4 km/h (2 Bft) S-SW 212 2 min 0,000 mm 0,0 UV-I 174 W/m 9,6 C 9,3 C 11,3 km/h (2 Bft) 97,56 %
11.10.2017 08:22 10,8 C 11,1 C 93 % 1020,6 hPa 0,0 l/m 7,5 km/h (2 Bft) S-SW 207 2 min 0,000 mm 0,0 UV-I 181 W/m 9,7 C 10,0 C 9,7 km/h (2 Bft) 98,11 %
11.10.2017 08:24 10,8 C 11,1 C 92 % 1020,6 hPa 0,0 l/m 6,8 km/h (2 Bft) S-SW 211 2 min 0,000 mm 0,0 UV-I 186 W/m 9,6 C 10,5 C 9,7 km/h (2 Bft) 97,37 %
11.10.2017 08:26 10,9 C 11,1 C 92 % 1020,6 hPa 0,0 l/m 7,4 km/h (2 Bft) SW 217 2 min 0,000 mm 0,0 UV-I 190 W/m 9,7 C 10,2 C 11,3 km/h (2 Bft) 97,87 %
11.10.2017 08:28 10,9 C 11,1 C 92 % 1020,7 hPa 0,0 l/m 6,4 km/h (2 Bft) S-SW 207 2 min 0,000 mm 0,0 UV-I 192 W/m 9,7 C 10,9 C 9,7 km/h (2 Bft) 98,18 %
11.10.2017 08:30 11,0 C 11,1 C 92 % 1020,7 hPa 0,0 l/m 5,9 km/h (2 Bft) SW 232 2 min 0,000 mm 0,0 UV-I 194 W/m 9,8 C 11,0 C 9,7 km/h (2 Bft) 97,87 %
11.10.2017 08:32 11,1 C 11,1 C 92 % 1020,7 hPa 0,0 l/m 4,9 km/h (1 Bft) SW 227 2 min 0,000 mm 0,0 UV-I 196 W/m 9,8 C 11,1 C 8,0 km/h (2 Bft) 97,37 %
11.10.2017 08:34 11,1 C 11,1 C 92 % 1020,7 hPa 0,0 l/m 7,8 km/h (2 Bft) SW 225 2 min 0,000 mm 0,0 UV-I 197 W/m 9,8 C 10,1 C 12,9 km/h (3 Bft) 98,00 %
11.10.2017 08:36 11,2 C 11,1 C 92 % 1020,8 hPa 0,0 l/m 6,6 km/h (2 Bft) SW 223 2 min 0,000 mm 0,0 UV-I 200 W/m 9,9 C 11,1 C 9,7 km/h (2 Bft) 95,83 %
11.10.2017 08:38 11,2 C 11,1 C 91 % 1020,8 hPa 0,0 l/m 7,5 km/h (2 Bft) SW 227 2 min 0,000 mm 0,0 UV-I 201 W/m 9,8 C 10,4 C 12,9 km/h (3 Bft) 100,00 %
11.10.2017 08:40 11,3 C 11,1 C 91 % 1020,8 hPa 0,0 l/m 7,2 km/h (2 Bft) SW 226 2 min 0,000 mm 0,0 UV-I 195 W/m 9,9 C 10,8 C 11,3 km/h (2 Bft) 98,00 %
11.10.2017 08:42 11,3 C 11,1 C 91 % 1020,8 hPa 0,0 l/m 8,1 km/h (2 Bft) W-SW 248 2 min 0,000 mm 0,0 UV-I 192 W/m 9,9 C 10,2 C 11,3 km/h (2 Bft) 96,67 %
11.10.2017 08:44 11,4 C 11,1 C 91 % 1020,8 hPa 0,0 l/m 6,0 km/h (2 Bft) S-SW 209 2 min 0,000 mm 0,0 UV-I 168 W/m 10,0 C 11,4 C 9,7 km/h (2 Bft) 100,00 %
11.10.2017 08:46 11,4 C 11,1 C 91 % 1020,8 hPa 0,0 l/m 6,2 km/h (2 Bft) SW 232 2 min 0,000 mm 0,0 UV-I 148 W/m 10,0 C 11,4 C 11,3 km/h (2 Bft) 97,37 %
11.10.2017 08:48 11,4 C 11,1 C 91 % 1020,8 hPa 0,0 l/m 7,2 km/h (2 Bft) S-SW 197 2 min 0,000 mm 0,0 UV-I 161 W/m 10,0 C 10,9 C 11,3 km/h (2 Bft) 100,00 %
11.10.2017 08:50 11,5 C 11,1 C 90 % 1020,8 hPa 0,0 l/m 7,2 km/h (2 Bft) S-SW 213 2 min 0,000 mm 0,0 UV-I 206 W/m 9,9 C 11,0 C 11,3 km/h (2 Bft) 100,00 %
11.10.2017 08:52 11,6 C 11,1 C 90 % 1020,9 hPa 0,0 l/m 8,0 km/h (2 Bft) SW 229 2 min 0,000 mm 0,0 UV-I 160 W/m 10,0 C 10,5 C 12,9 km/h (3 Bft) 100,00 %
11.10.2017 08:54 11,6 C 11,1 C 90 % 1020,9 hPa 0,0 l/m 6,0 km/h (2 Bft) S-SW 208 2 min 0,000 mm 0,0 UV-I 149 W/m 10,0 C 11,6 C 9,7 km/h (2 Bft) 97,37 %
11.10.2017 08:56 11,6 C 11,1 C 90 % 1020,9 hPa 0,0 l/m 6,9 km/h (2 Bft) SW 231 2 min 0,000 mm 0,0 UV-I 162 W/m 10,0 C 11,3 C 11,3 km/h (2 Bft) 100,00 %
11.10.2017 08:58 11,6 C 11,1 C 90 % 1020,9 hPa 0,0 l/m 7,9 km/h (2 Bft) W-SW 254 2 min 0,000 mm 0,0 UV-I 185 W/m 10,0 C 10,6 C 12,9 km/h (3 Bft) 100,00 %
11.10.2017 09:00 11,7 C 11,1 C 90 % 1021,0 hPa 0,0 l/m 7,7 km/h (2 Bft) W-SW 246 2 min 0,076 mm 0,0 UV-I 219 W/m 10,1 C 10,8 C 9,7 km/h (2 Bft) 100,00 %
11.10.2017 09:02 11,7 C 11,1 C 90 % 1020,9 hPa 0,0 l/m 5,8 km/h (2 Bft) SW 232 2 min 0,000 mm 0,0 UV-I 231 W/m 10,1 C 11,7 C 8,0 km/h (2 Bft) 100,00 %
11.10.2017 09:04 11,8 C 11,1 C 90 % 1021,0 hPa 0,0 l/m 6,8 km/h (2 Bft) W-SW 244 2 min 0,000 mm 0,0 UV-I 187 W/m 10,2 C 11,5 C 12,9 km/h (3 Bft) 94,74 %
11.10.2017 09:06 11,8 C 11,1 C 89 % 1021,0 hPa 0,0 l/m 8,2 km/h (2 Bft) S-SW 208 2 min 0,000 mm 0,1 UV-I 189 W/m 10,0 C 10,6 C 12,9 km/h (3 Bft) 100,00 %
11.10.2017 09:08 11,8 C 11,1 C 89 % 1021,0 hPa 0,0 l/m 7,5 km/h (2 Bft) S-SW 213 2 min 0,000 mm 0,5 UV-I 222 W/m 10,0 C 11,1 C 11,3 km/h (2 Bft) 100,00 %
11.10.2017 09:10 11,9 C 11,1 C 89 % 1020,9 hPa 0,0 l/m 6,5 km/h (2 Bft) S 188 2 min 0,000 mm 0,5 UV-I 205 W/m 10,1 C 11,9 C 9,7 km/h (2 Bft) 98,00 %
11.10.2017 09:12 11,9 C 11,1 C 89 % 1020,9 hPa 0,0 l/m 7,6 km/h (2 Bft) S-SW 194 2 min 0,000 mm 0,5 UV-I 227 W/m 10,1 C 11,1 C 11,3 km/h (2 Bft) 97,37 %
11.10.2017 09:14 12,0 C 11,1 C 89 % 1020,9 hPa 0,0 l/m 9,0 km/h (2 Bft) S-SW 208 2 min 0,000 mm 0,5 UV-I 206 W/m 10,2 C 10,4 C 11,3 km/h (2 Bft) 98,11 %
11.10.2017 09:16 12,0 C 11,1 C 89 % 1020,9 hPa 0,0 l/m 7,2 km/h (2 Bft) S-SW 209 2 min 0,000 mm 0,5 UV-I 222 W/m 10,2 C 11,5 C 11,3 km/h (2 Bft) 95,45 %
11.10.2017 09:18 12,1 C 11,1 C 88 % 1020,9 hPa 0,0 l/m 7,2 km/h (2 Bft) S-SW 192 2 min 0,000 mm 0,6 UV-I 259 W/m 10,2 C 11,6 C 11,3 km/h (2 Bft) 98,00 %
11.10.2017 09:20 12,2 C 11,1 C 88 % 1020,9 hPa 0,0 l/m 7,8 km/h (2 Bft) SW 227 2 min 0,000 mm 0,6 UV-I 266 W/m 10,3 C 11,3 C 11,3 km/h (2 Bft) 97,62 %
11.10.2017 09:22 12,2 C 11,1 C 88 % 1020,9 hPa 0,0 l/m 6,6 km/h (2 Bft) SW 230 2 min 0,000 mm 0,6 UV-I 280 W/m 10,3 C 12,1 C 9,7 km/h (2 Bft) 97,96 %
11.10.2017 09:24 12,3 C 11,1 C 88 % 1020,9 hPa 0,0 l/m 7,7 km/h (2 Bft) SW 225 2 min 0,000 mm 0,6 UV-I 305 W/m 10,4 C 11,5 C 11,3 km/h (2 Bft) 97,92 %
11.10.2017 09:26 12,4 C 11,1 C 88 % 1020,9 hPa 0,0 l/m 7,2 km/h (2 Bft) W-SW 244 2 min 0,000 mm 0,7 UV-I 314 W/m 10,5 C 11,9 C 12,9 km/h (3 Bft) 97,37 %
11.10.2017 09:28 12,4 C 11,1 C 87 % 1020,9 hPa 0,0 l/m 8,6 km/h (2 Bft) S-SW 210 2 min 0,000 mm 0,7 UV-I 294 W/m 10,3 C 11,0 C 14,5 km/h (3 Bft) 98,21 %
11.10.2017 09:30 12,5 C 11,1 C 87 % 1020,9 hPa 0,0 l/m 7,4 km/h (2 Bft) SW 228 2 min 0,000 mm 0,7 UV-I 324 W/m 10,4 C 11,9 C 11,3 km/h (2 Bft) 96,00 %
11.10.2017 09:32 12,6 C 11,1 C 87 % 1020,8 hPa 0,0 l/m 7,8 km/h (2 Bft) S-SW 213 2 min 0,000 mm 0,7 UV-I 328 W/m 10,5 C 11,7 C 12,9 km/h (3 Bft) 97,37 %
11.10.2017 09:34 12,7 C 11,1 C 87 % 1020,8 hPa 0,0 l/m 7,2 km/h (2 Bft) S-SW 204 2 min 0,000 mm 0,8 UV-I 332 W/m 10,6 C 12,2 C 11,3 km/h (2 Bft) 96,23 %
11.10.2017 09:36 12,8 C 11,1 C 86 % 1020,9 hPa 0,0 l/m 8,0 km/h (2 Bft) S-SW 200 2 min 0,000 mm 0,8 UV-I 337 W/m 10,5 C 11,8 C 12,9 km/h (3 Bft) 98,00 %
11.10.2017 09:38 12,9 C 11,1 C 86 % 1020,9 hPa 0,0 l/m 8,7 km/h (2 Bft) SW 216 2 min 0,000 mm 0,8 UV-I 342 W/m 10,6 C 11,5 C 12,9 km/h (3 Bft) 100,00 %
11.10.2017 09:40 13,0 C 11,1 C 86 % 1020,9 hPa 0,0 l/m 5,9 km/h (2 Bft) SW 221 2 min 0,000 mm 0,8 UV-I 348 W/m 10,7 C 13,0 C 11,3 km/h (2 Bft) 100,00 %
11.10.2017 09:42 13,1 C 11,1 C 86 % 1020,9 hPa 0,0 l/m 7,5 km/h (2 Bft) S-SW 210 2 min 0,000 mm 0,8 UV-I 348 W/m 10,8 C 12,4 C 11,3 km/h (2 Bft) 100,00 %
11.10.2017 09:44 13,2 C 11,1 C 86 % 1020,9 hPa 0,0 l/m 7,6 km/h (2 Bft) W-SW 254 2 min 0,000 mm 0,9 UV-I 351 W/m 10,9 C 12,5 C 11,3 km/h (2 Bft) 100,00 %
11.10.2017 09:46 13,3 C 11,1 C 85 % 1020,9 hPa 0,0 l/m 5,9 km/h (2 Bft) SW 217 2 min 0,000 mm 0,9 UV-I 353 W/m 10,8 C 13,3 C 9,7 km/h (2 Bft) 100,00 %
11.10.2017 09:48 13,4 C 11,1 C 85 % 1020,9 hPa 0,0 l/m 5,3 km/h (1 Bft) S-SW 200 2 min 0,000 mm 0,9 UV-I 355 W/m 10,9 C 13,4 C 9,7 km/h (2 Bft) 100,00 %
11.10.2017 09:50 13,6 C 11,1 C 85 % 1020,9 hPa 0,0 l/m 4,5 km/h (1 Bft) SW 222 2 min 0,000 mm 0,9 UV-I 350 W/m 11,1 C 13,6 C 8,0 km/h (2 Bft) 100,00 %
11.10.2017 09:52 13,7 C 11,1 C 84 % 1021,0 hPa 0,0 l/m 5,4 km/h (1 Bft) SW 229 2 min 0,000 mm 1,0 UV-I 359 W/m 11,0 C 13,7 C 12,9 km/h (3 Bft) 100,00 %
11.10.2017 09:54 13,8 C 11,1 C 84 % 1020,9 hPa 0,0 l/m 4,9 km/h (1 Bft) S-SW 208 2 min 0,000 mm 1,0 UV-I 367 W/m 11,1 C 13,8 C 6,4 km/h (2 Bft) 100,00 %
11.10.2017 09:56 13,8 C 11,1 C 83 % 1020,9 hPa 0,0 l/m 6,2 km/h (2 Bft) SW 234 2 min 0,000 mm 1,0 UV-I 372 W/m 11,0 C 13,8 C 11,3 km/h (2 Bft) 100,00 %
11.10.2017 09:58 13,8 C 11,1 C 82 % 1021,0 hPa 0,0 l/m 7,6 km/h (2 Bft) W-SW 248 2 min 0,000 mm 1,0 UV-I 370 W/m 10,8 C 13,1 C 12,9 km/h (3 Bft) 100,00 %
11.10.2017 10:00 13,9 C 11,1 C 82 % 1020,9 hPa 0,0 l/m 6,0 km/h (2 Bft) W-SW 238 2 min 0,152 mm 1,0 UV-I 321 W/m 10,9 C 13,9 C 8,0 km/h (2 Bft) 100,00 %
11.10.2017 10:02 13,9 C 11,1 C 83 % 1020,9 hPa 0,0 l/m 6,0 km/h (2 Bft) W-SW 237 2 min 0,000 mm 1,1 UV-I 385 W/m 11,1 C 13,9 C 9,7 km/h (2 Bft) 100,00 %
11.10.2017 10:04 14,0 C 11,1 C 82 % 1021,0 hPa 0,0 l/m 6,3 km/h (2 Bft) W-SW 238 2 min 0,000 mm 1,1 UV-I 393 W/m 11,0 C 14,0 C 9,7 km/h (2 Bft) 100,00 %
11.10.2017 10:06 14,0 C 11,1 C 82 % 1021,0 hPa 0,0 l/m 6,6 km/h (2 Bft) SW 229 2 min 0,000 mm 1,1 UV-I 399 W/m 11,0 C 13,9 C 11,3 km/h (2 Bft) 98,21 %
11.10.2017 10:08 14,1 C 11,1 C 82 % 1021,0 hPa 0,0 l/m 6,1 km/h (2 Bft) W-SW 237 2 min 0,000 mm 1,2 UV-I 403 W/m 11,1 C 14,1 C 11,3 km/h (2 Bft) 100,00 %
11.10.2017 10:10 14,2 C 11,1 C 81 % 1020,9 hPa 0,0 l/m 8,5 km/h (2 Bft) SW 227 2 min 0,000 mm 1,2 UV-I 401 W/m 11,0 C 13,0 C 12,9 km/h (3 Bft) 98,21 %
11.10.2017 10:12 14,2 C 11,1 C 81 % 1021,0 hPa 0,0 l/m 7,8 km/h (2 Bft) W-SW 238 2 min 0,000 mm 1,2 UV-I 403 W/m 11,0 C 13,4 C 9,7 km/h (2 Bft) 100,00 %
11.10.2017 10:14 14,2 C 11,1 C 81 % 1021,0 hPa 0,0 l/m 6,2 km/h (2 Bft) W-SW 248 2 min 0,000 mm 1,2 UV-I 404 W/m 11,0 C 14,2 C 9,7 km/h (2 Bft) 100,00 %
11.10.2017 10:16 14,3 C 11,1 C 81 % 1021,0 hPa 0,0 l/m 9,1 km/h (2 Bft) SW 215 2 min 0,000 mm 1,3 UV-I 414 W/m 11,1 C 12,8 C 12,9 km/h (3 Bft) 100,00 %
11.10.2017 10:18 14,4 C 11,1 C 80 % 1021,0 hPa 0,0 l/m 6,8 km/h (2 Bft) S 182 2 min 0,000 mm 1,3 UV-I 411 W/m 11,0 C 14,2 C 11,3 km/h (2 Bft) 100,00 %
11.10.2017 10:20 14,5 C 11,1 C 80 % 1021,0 hPa 0,0 l/m 5,7 km/h (1 Bft) S-SW 200 2 min 0,000 mm 1,3 UV-I 418 W/m 11,1 C 14,5 C 9,7 km/h (2 Bft) 100,00 %
11.10.2017 10:22 14,7 C 11,1 C 81 % 1021,0 hPa 0,0 l/m 5,3 km/h (1 Bft) W-SW 240 2 min 0,000 mm 1,3 UV-I 423 W/m 11,5 C 14,7 C 9,7 km/h (2 Bft) 100,00 %
11.10.2017 10:24 14,7 C 11,1 C 80 % 1021,0 hPa 0,0 l/m 5,7 km/h (1 Bft) SW 229 2 min 0,000 mm 1,3 UV-I 418 W/m 11,3 C 14,7 C 9,7 km/h (2 Bft) 100,00 %
11.10.2017 10:26 14,8 C 11,1 C 80 % 1021,0 hPa 0,0 l/m 7,7 km/h (2 Bft) SW 221 2 min 0,000 mm 1,4 UV-I 419 W/m 11,4 C 14,1 C 14,5 km/h (3 Bft) 95,74 %
11.10.2017 10:28 14,8 C 11,1 C 79 % 1021,0 hPa 0,0 l/m 8,8 km/h (2 Bft) S-SW 211 2 min 0,000 mm 1,4 UV-I 414 W/m 11,2 C 13,5 C 11,3 km/h (2 Bft) 100,00 %
11.10.2017 10:30 14,8 C 11,1 C 79 % 1021,0 hPa 0,0 l/m 6,1 km/h (2 Bft) S-SW 208 2 min 0,000 mm 1,4 UV-I 428 W/m 11,2 C 14,8 C 9,7 km/h (2 Bft) 100,00 %
11.10.2017 10:32 14,9 C 11,1 C 80 % 1020,9 hPa 0,0 l/m 5,8 km/h (2 Bft) S-SW 208 2 min 0,000 mm 1,4 UV-I 440 W/m 11,5 C 14,9 C 9,7 km/h (2 Bft) 98,04 %
11.10.2017 10:34 14,9 C 11,1 C 78 % 1021,0 hPa 0,0 l/m 5,8 km/h (2 Bft) W-SW 258 2 min 0,000 mm 1,5 UV-I 448 W/m 11,1 C 14,9 C 9,7 km/h (2 Bft) 100,00 %
11.10.2017 10:36 15,0 C 11,1 C 78 % 1021,0 hPa 0,0 l/m 5,7 km/h (1 Bft) SW 223 2 min 0,000 mm 1,5 UV-I 452 W/m 11,2 C 15,0 C 9,7 km/h (2 Bft) 94,74 %
11.10.2017 10:38 15,1 C 11,1 C 78 % 1021,0 hPa 0,0 l/m 5,0 km/h (1 Bft) W-SW 240 2 min 0,000 mm 1,5 UV-I 448 W/m 11,3 C 15,1 C 8,0 km/h (2 Bft) 100,00 %
11.10.2017 10:40 15,2 C 11,1 C 78 % 1021,0 hPa 0,0 l/m 4,0 km/h (1 Bft) SW 234 2 min 0,000 mm 1,6 UV-I 453 W/m 11,4 C 15,2 C 6,4 km/h (2 Bft) 100,00 %
11.10.2017 10:42 15,3 C 11,1 C 79 % 1021,0 hPa 0,0 l/m 3,9 km/h (1 Bft) W-SW 255 2 min 0,000 mm 1,6 UV-I 454 W/m 11,7 C 15,3 C 6,4 km/h (2 Bft) 100,00 %
11.10.2017 10:44 15,4 C 11,1 C 78 % 1021,0 hPa 0,0 l/m 4,3 km/h (1 Bft) W-NW 301 2 min 0,000 mm 1,6 UV-I 456 W/m 11,6 C 15,4 C 11,3 km/h (2 Bft) 97,22 %
11.10.2017 10:46 15,4 C 11,1 C 77 % 1021,0 hPa 0,0 l/m 7,0 km/h (2 Bft) W-SW 257 2 min 0,000 mm 1,6 UV-I 463 W/m 11,4 C 15,1 C 11,3 km/h (2 Bft) 98,21 %
11.10.2017 10:48 15,3 C 11,1 C 76 % 1021,0 hPa 0,0 l/m 6,7 km/h (2 Bft) SW 229 2 min 0,000 mm 1,7 UV-I 464 W/m 11,1 C 15,1 C 11,3 km/h (2 Bft) 97,37 %
11.10.2017 10:50 15,4 C 11,1 C 77 % 1020,9 hPa 0,0 l/m 4,8 km/h (1 Bft) W-SW 240 2 min 0,000 mm 1,7 UV-I 473 W/m 11,4 C 15,4 C 9,7 km/h (2 Bft) 98,00 %
11.10.2017 10:52 15,6 C 11,1 C 76 % 1020,9 hPa 0,0 l/m 5,8 km/h (2 Bft) W-SW 256 2 min 0,000 mm 1,7 UV-I 468 W/m 11,4 C 15,6 C 11,3 km/h (2 Bft) 98,15 %
11.10.2017 10:54 15,7 C 11,1 C 76 % 1020,8 hPa 0,0 l/m 6,7 km/h (2 Bft) W 275 2 min 0,000 mm 1,7 UV-I 477 W/m 11,5 C 15,5 C 11,3 km/h (2 Bft) 97,87 %
11.10.2017 10:56 15,8 C 11,1 C 75 % 1020,8 hPa 0,0 l/m 5,6 km/h (1 Bft) W-SW 244 2 min 0,000 mm 1,8 UV-I 470 W/m 11,4 C 15,8 C 12,9 km/h (3 Bft) 97,56 %
11.10.2017 10:58 15,8 C 11,1 C 75 % 1020,8 hPa 0,0 l/m 3,5 km/h (1 Bft) W-SW 250 2 min 0,000 mm 1,8 UV-I 500 W/m 11,4 C 15,8 C 8,0 km/h (2 Bft) 96,00 %
11.10.2017 11:00 15,9 C 11,1 C 75 % 1020,8 hPa 0,0 l/m 5,0 km/h (1 Bft) SW 229 2 min 0,254 mm 1,9 UV-I 496 W/m 11,5 C 15,9 C 12,9 km/h (3 Bft) 97,73 %
11.10.2017 11:02 15,9 C 11,1 C 75 % 1020,8 hPa 0,0 l/m 9,1 km/h (2 Bft) W-SW 246 2 min 0,000 mm 1,9 UV-I 496 W/m 11,5 C 14,5 C 12,9 km/h (3 Bft) 98,00 %
11.10.2017 11:04 15,9 C 11,1 C 76 % 1020,7 hPa 0,0 l/m 5,6 km/h (1 Bft) SW 225 2 min 0,000 mm 1,9 UV-I 493 W/m 11,7 C 15,9 C 9,7 km/h (2 Bft) 94,29 %
11.10.2017 11:06 16,0 C 11,1 C 74 % 1020,7 hPa 0,0 l/m 11,5 km/h (2 Bft) SW 228 2 min 0,000 mm 1,9 UV-I 494 W/m 11,4 C 13,6 C 17,7 km/h (3 Bft) 98,11 %
11.10.2017 11:08 15,9 C 11,1 C 74 % 1020,7 hPa 0,0 l/m 6,5 km/h (2 Bft) SW 216 2 min 0,000 mm 1,9 UV-I 494 W/m 11,3 C 15,9 C 9,7 km/h (2 Bft) 97,56 %
11.10.2017 11:10 15,8 C 11,1 C 74 % 1020,7 hPa 0,0 l/m 6,8 km/h (2 Bft) W-SW 242 2 min 0,000 mm 2,0 UV-I 510 W/m 11,2 C 15,6 C 14,5 km/h (3 Bft) 98,00 %
11.10.2017 11:12 15,8 C 11,1 C 74 % 1020,8 hPa 0,0 l/m 5,3 km/h (1 Bft) W-NW 283 2 min 0,000 mm 2,0 UV-I 493 W/m 11,2 C 15,8 C 11,3 km/h (2 Bft) 100,00 %
11.10.2017 11:14 15,8 C 11,1 C 73 % 1020,7 hPa 0,0 l/m 9,4 km/h (2 Bft) W 274 2 min 0,000 mm 2,0 UV-I 493 W/m 11,0 C 14,3 C 17,7 km/h (3 Bft) 100,00 %
11.10.2017 11:16 15,9 C 11,1 C 73 % 1020,7 hPa 0,0 l/m 9,6 km/h (2 Bft) W-SW 247 2 min 0,000 mm 2,0 UV-I 495 W/m 11,1 C 14,3 C 14,5 km/h (3 Bft) 100,00 %
11.10.2017 11:18 16,0 C 11,1 C 73 % 1020,7 hPa 0,0 l/m 4,4 km/h (1 Bft) W-NW 288 2 min 0,000 mm 2,0 UV-I 499 W/m 11,2 C 16,0 C 8,0 km/h (2 Bft) 100,00 %
11.10.2017 11:20 16,2 C 11,1 C 74 % 1020,7 hPa 0,0 l/m 4,5 km/h (1 Bft) W-SW 248 2 min 0,000 mm 2,0 UV-I 500 W/m 11,6 C 16,2 C 11,3 km/h (2 Bft) 100,00 %
11.10.2017 11:22 16,3 C 11,1 C 74 % 1020,8 hPa 0,0 l/m 3,9 km/h (1 Bft) W-SW 252 2 min 0,000 mm 2,1 UV-I 499 W/m 11,7 C 16,3 C 8,0 km/h (2 Bft) 100,00 %
11.10.2017 11:24 16,4 C 11,1 C 72 % 1020,8 hPa 0,0 l/m 5,0 km/h (1 Bft) W-SW 242 2 min 0,000 mm 2,1 UV-I 508 W/m 11,3 C 16,4 C 8,0 km/h (2 Bft) 100,00 %
11.10.2017 11:26 16,4 C 11,1 C 70 % 1020,7 hPa 0,0 l/m 10,4 km/h (2 Bft) W-SW 250 2 min 0,000 mm 2,2 UV-I 523 W/m 10,9 C 14,5 C 16,1 km/h (3 Bft) 100,00 %
11.10.2017 11:28 16,3 C 11,1 C 71 % 1020,7 hPa 0,0 l/m 9,9 km/h (2 Bft) SW 218 2 min 0,000 mm 2,2 UV-I 528 W/m 11,0 C 14,6 C 14,5 km/h (3 Bft) 100,00 %
11.10.2017 11:30 16,3 C 11,1 C 71 % 1020,8 hPa 0,0 l/m 8,2 km/h (2 Bft) W-SW 248 2 min 0,000 mm 2,2 UV-I 528 W/m 11,0 C 15,4 C 12,9 km/h (3 Bft) 100,00 %
11.10.2017 11:32 16,4 C 11,1 C 72 % 1020,8 hPa 0,0 l/m 6,7 km/h (2 Bft) W 267 2 min 0,000 mm 2,2 UV-I 525 W/m 11,3 C 16,3 C 9,7 km/h (2 Bft) 100,00 %
11.10.2017 11:34 16,4 C 11,1 C 72 % 1020,8 hPa 0,0 l/m 3,2 km/h (1 Bft) W 279 2 min 0,000 mm 2,2 UV-I 517 W/m 11,3 C 16,4 C 6,4 km/h (2 Bft) 100,00 %
11.10.2017 11:36 16,4 C 11,1 C 72 % 1020,8 hPa 0,0 l/m 1,6 km/h (1 Bft) W 269 2 min 0,000 mm 2,2 UV-I 516 W/m 11,3 C 16,4 C 4,8 km/h (1 Bft) 100,00 %
11.10.2017 11:38 16,6 C 11,1 C 72 % 1020,8 hPa 0,0 l/m 7,5 km/h (2 Bft) S-SW 205 2 min 0,000 mm 2,3 UV-I 528 W/m 11,5 C 16,0 C 11,3 km/h (2 Bft) 100,00 %
11.10.2017 11:40 16,6 C 11,1 C 73 % 1020,8 hPa 0,0 l/m 4,3 km/h (1 Bft) SW 226 2 min 0,000 mm 2,3 UV-I 527 W/m 11,7 C 16,6 C 6,4 km/h (2 Bft) 100,00 %
11.10.2017 11:42 16,7 C 11,1 C 70 % 1020,7 hPa 0,0 l/m 8,7 km/h (2 Bft) W-SW 246 2 min 0,000 mm 2,3 UV-I 531 W/m 11,2 C 15,6 C 14,5 km/h (3 Bft) 100,00 %
11.10.2017 11:44 16,6 C 11,1 C 70 % 1020,7 hPa 0,0 l/m 8,6 km/h (2 Bft) S-SW 200 2 min 0,000 mm 2,4 UV-I 538 W/m 11,1 C 15,5 C 12,9 km/h (3 Bft) 100,00 %
11.10.2017 11:46 16,6 C 11,1 C 72 % 1020,7 hPa 0,0 l/m 7,7 km/h (2 Bft) W-SW 258 2 min 0,000 mm 2,4 UV-I 538 W/m 11,5 C 15,9 C 14,5 km/h (3 Bft) 100,00 %
11.10.2017 11:48 16,6 C 11,1 C 71 % 1020,7 hPa 0,0 l/m 6,3 km/h (2 Bft) W-SW 250 2 min 0,000 mm 2,4 UV-I 552 W/m 11,3 C 16,6 C 9,7 km/h (2 Bft) 98,00 %
11.10.2017 11:50 16,7 C 11,1 C 71 % 1020,7 hPa 0,0 l/m 5,2 km/h (1 Bft) W 275 2 min 0,000 mm 2,4 UV-I 554 W/m 11,4 C 16,7 C 9,7 km/h (2 Bft) 100,00 %
11.10.2017 11:52 16,7 C 11,1 C 71 % 1020,7 hPa 0,0 l/m 6,3 km/h (2 Bft) W-SW 246 2 min 0,000 mm 2,4 UV-I 543 W/m 11,4 C 16,7 C 9,7 km/h (2 Bft) 100,00 %
11.10.2017 11:54 16,7 C 11,1 C 72 % 1020,7 hPa 0,0 l/m 4,4 km/h (1 Bft) NW 304 2 min 0,000 mm 2,5 UV-I 558 W/m 11,6 C 16,7 C 11,3 km/h (2 Bft) 100,00 %
11.10.2017 11:56 16,8 C 11,1 C 72 % 1020,7 hPa 0,0 l/m 4,0 km/h (1 Bft) SW 229 2 min 0,000 mm 2,4 UV-I 542 W/m 11,7 C 16,8 C 6,4 km/h (2 Bft) 100,00 %
11.10.2017 11:58 17,0 C 11,1 C 72 % 1020,7 hPa 0,0 l/m 7,3 km/h (2 Bft) SW 232 2 min 0,000 mm 2,5 UV-I 544 W/m 11,9 C 16,5 C 12,9 km/h (3 Bft) 98,11 %
11.10.2017 12:00 17,0 C 11,1 C 69 % 1020,7 hPa 0,0 l/m 7,4 km/h (2 Bft) S-SW 192 2 min 0,000 mm 2,5 UV-I 545 W/m 11,3 C 16,5 C 12,9 km/h (3 Bft) 100,00 %
11.10.2017 12:02 16,9 C 11,1 C 70 % 1020,6 hPa 0,0 l/m 8,4 km/h (2 Bft) SW 226 2 min 0,305 mm 2,5 UV-I 531 W/m 11,4 C 15,9 C 16,1 km/h (3 Bft) 95,83 %
11.10.2017 12:04 16,8 C 11,1 C 70 % 1020,6 hPa 0,0 l/m 8,8 km/h (2 Bft) W-SW 254 2 min 0,000 mm 2,5 UV-I 544 W/m 11,3 C 15,6 C 12,9 km/h (3 Bft) 100,00 %
11.10.2017 12:06 16,9 C 11,1 C 69 % 1020,6 hPa 0,0 l/m 6,6 km/h (2 Bft) W 260 2 min 0,000 mm 2,5 UV-I 558 W/m 11,2 C 16,8 C 11,3 km/h (2 Bft) 100,00 %
11.10.2017 12:08 16,9 C 11,1 C 71 % 1020,6 hPa 0,0 l/m 5,2 km/h (1 Bft) W 265 2 min 0,000 mm 2,6 UV-I 563 W/m 11,6 C 16,9 C 11,3 km/h (2 Bft) 100,00 %
11.10.2017 12:10 17,1 C 11,1 C 70 % 1020,6 hPa 0,0 l/m 5,2 km/h (1 Bft) S 188 2 min 0,000 mm 2,6 UV-I 564 W/m 11,6 C 17,1 C 9,7 km/h (2 Bft) 100,00 %
11.10.2017 12:12 17,3 C 11,1 C 71 % 1020,6 hPa 0,0 l/m 7,0 km/h (2 Bft) W-SW 239 2 min 0,000 mm 2,5 UV-I 573 W/m 12,0 C 17,0 C 12,9 km/h (3 Bft) 100,00 %
11.10.2017 12:14 17,3 C 11,1 C 67 % 1020,6 hPa 0,0 l/m 11,4 km/h (2 Bft) W 273 2 min 0,000 mm 2,4 UV-I 576 W/m 11,1 C 15,1 C 17,7 km/h (3 Bft) 100,00 %
11.10.2017 12:16 17,4 C 11,1 C 68 % 1020,6 hPa 0,0 l/m 7,1 km/h (2 Bft) S 191 2 min 0,000 mm 2,6 UV-I 577 W/m 11,4 C 17,1 C 11,3 km/h (2 Bft) 100,00 %
11.10.2017 12:18 17,4 C 11,1 C 68 % 1020,6 hPa 0,0 l/m 9,1 km/h (2 Bft) SW 236 2 min 0,000 mm 2,6 UV-I 581 W/m 11,4 C 16,1 C 14,5 km/h (3 Bft) 100,00 %
11.10.2017 12:20 17,5 C 11,1 C 68 % 1020,5 hPa 0,0 l/m 8,7 km/h (2 Bft) W-NW 294 2 min 0,000 mm 2,5 UV-I 577 W/m 11,5 C 16,4 C 17,7 km/h (3 Bft) 97,87 %
11.10.2017 12:22 17,5 C 11,1 C 65 % 1020,5 hPa 0,0 l/m 10,9 km/h (2 Bft) W 259 2 min 0,000 mm 2,6 UV-I 580 W/m 10,8 C 15,5 C 14,5 km/h (3 Bft) 94,29 %
11.10.2017 12:24 17,5 C 11,1 C 67 % 1020,5 hPa 0,0 l/m 8,3 km/h (2 Bft) W-SW 253 2 min 0,000 mm 2,6 UV-I 578 W/m 11,3 C 16,6 C 14,5 km/h (3 Bft) 100,00 %
11.10.2017 12:26 17,5 C 11,1 C 67 % 1020,5 hPa 0,0 l/m 9,2 km/h (2 Bft) NW 311 2 min 0,000 mm 2,6 UV-I 571 W/m 11,3 C 16,2 C 16,1 km/h (3 Bft) 96,08 %
11.10.2017 12:28 17,7 C 11,1 C 69 % 1020,5 hPa 0,0 l/m 10,0 km/h (2 Bft) S 188 2 min 0,000 mm 2,5 UV-I 554 W/m 11,9 C 16,1 C 17,7 km/h (3 Bft) 97,73 %
11.10.2017 12:30 17,8 C 11,1 C 66 % 1020,5 hPa 0,0 l/m 8,5 km/h (2 Bft) S 186 2 min 0,000 mm 2,5 UV-I 570 W/m 11,4 C 16,8 C 16,1 km/h (3 Bft) 97,87 %
11.10.2017 12:32 17,7 C 11,1 C 67 % 1020,5 hPa 0,0 l/m 8,8 km/h (2 Bft) SW 226 2 min 0,000 mm 2,6 UV-I 577 W/m 11,5 C 16,6 C 14,5 km/h (3 Bft) 98,00 %
11.10.2017 12:34 17,8 C 11,1 C 66 % 1020,5 hPa 0,0 l/m 10,7 km/h (2 Bft) W 269 2 min 0,000 mm 2,6 UV-I 599 W/m 11,4 C 15,9 C 14,5 km/h (3 Bft) 97,56 %
11.10.2017 12:36 17,9 C 11,1 C 64 % 1020,4 hPa 0,0 l/m 11,9 km/h (2 Bft) SW 236 2 min 0,000 mm 2,6 UV-I 620 W/m 11,0 C 15,6 C 19,3 km/h (3 Bft) 96,23 %
11.10.2017 12:38 17,9 C 11,7 C 64 % 1020,5 hPa 0,0 l/m 10,0 km/h (2 Bft) W 269 2 min 0,000 mm 2,7 UV-I 653 W/m 11,0 C 16,3 C 17,7 km/h (3 Bft) 97,44 %
11.10.2017 12:40 17,9 C 11,7 C 64 % 1020,5 hPa 0,0 l/m 10,2 km/h (2 Bft) W-SW 238 2 min 0,000 mm 2,8 UV-I 699 W/m 11,0 C 16,2 C 14,5 km/h (3 Bft) 98,11 %
11.10.2017 12:42 17,9 C 11,7 C 64 % 1020,5 hPa 0,0 l/m 10,7 km/h (2 Bft) W 261 2 min 0,000 mm 2,7 UV-I 747 W/m 11,0 C 16,1 C 16,1 km/h (3 Bft) 94,74 %
11.10.2017 12:44 18,0 C 11,7 C 64 % 1020,4 hPa 0,0 l/m 9,2 km/h (2 Bft) W-SW 247 2 min 0,000 mm 2,7 UV-I 779 W/m 11,1 C 16,7 C 14,5 km/h (3 Bft) 96,00 %
11.10.2017 12:46 18,1 C 11,7 C 64 % 1020,3 hPa 0,0 l/m 8,3 km/h (2 Bft) W-SW 254 2 min 0,000 mm 2,6 UV-I 786 W/m 11,2 C 17,2 C 14,5 km/h (3 Bft) 97,87 %
11.10.2017 12:48 18,2 C 11,7 C 66 % 1020,4 hPa 0,0 l/m 2,0 km/h (1 Bft) W-SW 248 2 min 0,000 mm 2,6 UV-I 776 W/m 11,7 C 18,2 C 8,0 km/h (2 Bft) 95,74 %
11.10.2017 12:50 18,3 C 11,7 C 64 % 1020,4 hPa 0,0 l/m 9,5 km/h (2 Bft) SW 214 2 min 0,000 mm 2,2 UV-I 763 W/m 11,4 C 17,0 C 14,5 km/h (3 Bft) 95,74 %
11.10.2017 12:52 18,3 C 11,7 C 63 % 1020,3 hPa 0,0 l/m 8,7 km/h (2 Bft) W-SW 243 2 min 0,000 mm 2,1 UV-I 763 W/m 11,1 C 17,3 C 17,7 km/h (3 Bft) 100,00 %
11.10.2017 12:54 18,2 C 11,7 C 64 % 1020,3 hPa 0,0 l/m 6,9 km/h (2 Bft) SW 219 2 min 0,000 mm 1,7 UV-I 763 W/m 11,3 C 18,0 C 11,3 km/h (2 Bft) 100,00 %
11.10.2017 12:56 18,0 C 11,1 C 66 % 1020,3 hPa 0,0 l/m 7,0 km/h (2 Bft) W-NW 297 0 min 0,000 mm 1,3 UV-I 268 W/m 11,6 C 17,7 C 19,3 km/h (3 Bft) 100,00 %
11.10.2017 12:58 17,8 C 11,1 C 65 % 1020,3 hPa 0,0 l/m 5,6 km/h (1 Bft) W-NW 290 0 min 0,000 mm 1,2 UV-I 214 W/m 11,1 C 17,8 C 12,9 km/h (3 Bft) 100,00 %
11.10.2017 13:00 17,6 C 11,1 C 66 % 1020,2 hPa 0,0 l/m 1,9 km/h (1 Bft) W-NW 292 0 min 0,000 mm 1,0 UV-I 195 W/m 11,2 C 17,6 C 3,2 km/h (1 Bft) 100,00 %
11.10.2017 13:02 17,4 C 11,1 C 65 % 1020,2 hPa 0,0 l/m 3,3 km/h (1 Bft) W-SW 257 0 min 0,330 mm 0,9 UV-I 175 W/m 10,8 C 17,4 C 4,8 km/h (1 Bft) 100,00 %
11.10.2017 13:04 17,2 C 11,1 C 66 % 1020,2 hPa 0,0 l/m 3,0 km/h (1 Bft) W-NW 284 0 min 0,000 mm 0,9 UV-I 178 W/m 10,8 C 17,2 C 6,4 km/h (2 Bft) 100,00 %
11.10.2017 13:06 17,1 C 11,1 C 69 % 1020,1 hPa 0,0 l/m 2,5 km/h (1 Bft) W 275 0 min 0,000 mm 1,1 UV-I 186 W/m 11,4 C 17,1 C 6,4 km/h (2 Bft) 100,00 %
11.10.2017 13:08 17,1 C 11,1 C 68 % 1020,1 hPa 0,0 l/m 3,1 km/h (1 Bft) W-NW 289 0 min 0,000 mm 1,2 UV-I 194 W/m 11,1 C 17,1 C 6,4 km/h (2 Bft) 100,00 %
11.10.2017 13:10 17,0 C 11,1 C 68 % 1020,1 hPa 0,0 l/m 1,1 km/h (1 Bft) W-NW 289 0 min 0,000 mm 1,3 UV-I 211 W/m 11,0 C 17,0 C 3,2 km/h (1 Bft) 97,73 %
11.10.2017 13:12 17,0 C 11,1 C 67 % 1020,1 hPa 0,0 l/m 2,6 km/h (1 Bft) W 278 0 min 0,000 mm 1,3 UV-I 206 W/m 10,8 C 17,0 C 4,8 km/h (1 Bft) 100,00 %
11.10.2017 13:14 17,1 C 11,7 C 68 % 1020,1 hPa 0,0 l/m 2,7 km/h (1 Bft) W-SW 244 0 min 0,000 mm 1,4 UV-I 248 W/m 11,1 C 17,1 C 6,4 km/h (2 Bft) 100,00 %
11.10.2017 13:16 17,1 C 11,7 C 68 % 1020,0 hPa 0,0 l/m 2,9 km/h (1 Bft) W-SW 249 0 min 0,000 mm 1,6 UV-I 280 W/m 11,1 C 17,1 C 11,3 km/h (2 Bft) 100,00 %
11.10.2017 13:18 17,2 C 11,7 C 68 % 1020,0 hPa 0,0 l/m 2,0 km/h (1 Bft) W 278 2 min 0,000 mm 2,0 UV-I 347 W/m 11,2 C 17,2 C 6,4 km/h (2 Bft) 98,00 %
11.10.2017 13:20 17,4 C 11,7 C 67 % 1020,0 hPa 0,0 l/m 4,2 km/h (1 Bft) W-NW 298 2 min 0,000 mm 2,3 UV-I 617 W/m 11,2 C 17,4 C 8,0 km/h (2 Bft) 100,00 %
11.10.2017 13:22 17,6 C 11,7 C 66 % 1020,0 hPa 0,0 l/m 3,9 km/h (1 Bft) W-NW 298 2 min 0,000 mm 2,2 UV-I 692 W/m 11,2 C 17,6 C 6,4 km/h (2 Bft) 100,00 %
11.10.2017 13:24 17,7 C 11,7 C 65 % 1020,0 hPa 0,0 l/m 5,6 km/h (1 Bft) W-NW 296 2 min 0,000 mm 2,2 UV-I 490 W/m 11,0 C 17,7 C 11,3 km/h (2 Bft) 100,00 %
11.10.2017 13:26 17,8 C 11,7 C 64 % 1019,9 hPa 0,0 l/m 7,6 km/h (2 Bft) W-NW 286 2 min 0,000 mm 2,3 UV-I 589 W/m 10,9 C 17,2 C 11,3 km/h (2 Bft) 100,00 %
11.10.2017 13:28 17,8 C 11,7 C 64 % 1019,9 hPa 0,0 l/m 6,5 km/h (2 Bft) W 271 2 min 0,000 mm 2,2 UV-I 673 W/m 10,9 C 17,8 C 9,7 km/h (2 Bft) 100,00 %
11.10.2017 13:30 17,9 C 11,7 C 63 % 1019,9 hPa 0,0 l/m 4,2 km/h (1 Bft) W-SW 252 2 min 0,000 mm 2,3 UV-I 637 W/m 10,8 C 17,9 C 8,0 km/h (2 Bft) 100,00 %
11.10.2017 13:32 18,0 C 11,7 C 64 % 1019,9 hPa 0,0 l/m 2,2 km/h (1 Bft) W-NW 292 2 min 0,000 mm 2,3 UV-I 619 W/m 11,1 C 18,0 C 4,8 km/h (1 Bft) 97,67 %
11.10.2017 13:34 17,9 C 11,7 C 61 % 1019,8 hPa 0,0 l/m 4,3 km/h (1 Bft) W-NW 300 2 min 0,000 mm 2,1 UV-I 619 W/m 10,3 C 17,9 C 6,4 km/h (2 Bft) 100,00 %
11.10.2017 13:36 17,8 C 11,7 C 61 % 1019,8 hPa 0,0 l/m 3,5 km/h (1 Bft) W 265 2 min 0,000 mm 2,3 UV-I 554 W/m 10,2 C 17,8 C 4,8 km/h (1 Bft) 100,00 %
11.10.2017 13:38 17,9 C 11,7 C 64 % 1019,8 hPa 0,0 l/m 0,8 km/h (0 Bft) W 266 2 min 0,000 mm 2,3 UV-I 581 W/m 11,0 C 17,9 C 3,2 km/h (1 Bft) 100,00 %
11.10.2017 13:40 18,1 C 11,7 C 63 % 1019,8 hPa 0,0 l/m 3,1 km/h (1 Bft) W-NW 298 2 min 0,000 mm 2,4 UV-I 631 W/m 10,9 C 18,1 C 4,8 km/h (1 Bft) 100,00 %
11.10.2017 13:42 18,2 C 11,7 C 63 % 1019,8 hPa 0,0 l/m 2,9 km/h (1 Bft) W-NW 298 2 min 0,000 mm 2,4 UV-I 635 W/m 11,0 C 18,2 C 6,4 km/h (2 Bft) 96,43 %
11.10.2017 13:44 18,2 C 11,7 C 62 % 1019,8 hPa 0,0 l/m 4,0 km/h (1 Bft) W-NW 295 2 min 0,000 mm 2,2 UV-I 524 W/m 10,8 C 18,2 C 11,3 km/h (2 Bft) 100,00 %
11.10.2017 13:46 18,1 C 11,7 C 62 % 1019,7 hPa 0,0 l/m 2,3 km/h (1 Bft) NW 309 2 min 0,000 mm 2,3 UV-I 556 W/m 10,7 C 18,1 C 6,4 km/h (2 Bft) 100,00 %
11.10.2017 13:48 18,1 C 11,7 C 64 % 1019,6 hPa 0,0 l/m 2,4 km/h (1 Bft) N-NO 17 2 min 0,000 mm 2,3 UV-I 558 W/m 11,2 C 18,1 C 6,4 km/h (2 Bft) 100,00 %
11.10.2017 13:50 18,2 C 11,7 C 63 % 1019,6 hPa 0,0 l/m 4,1 km/h (1 Bft) N-NO 23 2 min 0,000 mm 2,4 UV-I 594 W/m 11,0 C 18,2 C 6,4 km/h (2 Bft) 100,00 %
11.10.2017 13:52 18,3 C 11,7 C 64 % 1019,6 hPa 0,0 l/m 2,1 km/h (1 Bft) W-SW 254 2 min 0,000 mm 2,4 UV-I 597 W/m 11,4 C 18,3 C 4,8 km/h (1 Bft) 100,00 %
11.10.2017 13:54 18,3 C 11,7 C 61 % 1019,6 hPa 0,0 l/m 7,0 km/h (2 Bft) W-NW 292 2 min 0,000 mm 2,4 UV-I 560 W/m 10,6 C 18,0 C 12,9 km/h (3 Bft) 98,11 %
11.10.2017 13:56 18,2 C 11,7 C 61 % 1019,5 hPa 0,0 l/m 5,6 km/h (1 Bft) W-NW 296 2 min 0,000 mm 2,4 UV-I 558 W/m 10,6 C 18,2 C 9,7 km/h (2 Bft) 100,00 %
11.10.2017 13:58 18,3 C 11,7 C 64 % 1019,6 hPa 0,0 l/m 1,8 km/h (1 Bft) W-NW 294 2 min 0,000 mm 2,2 UV-I 501 W/m 11,4 C 18,3 C 3,2 km/h (1 Bft) 100,00 %
11.10.2017 14:00 18,5 C 11,7 C 63 % 1019,5 hPa 0,0 l/m 0,8 km/h (0 Bft) W-NW 293 2 min 0,000 mm 2,3 UV-I 538 W/m 11,3 C 18,5 C 3,2 km/h (1 Bft) 100,00 %
11.10.2017 14:02 18,7 C 11,7 C 61 % 1019,5 hPa 0,0 l/m 3,3 km/h (1 Bft) W 277 2 min 0,280 mm 2,4 UV-I 571 W/m 11,0 C 18,7 C 6,4 km/h (2 Bft) 97,87 %
11.10.2017 14:04 18,7 C 11,7 C 61 % 1019,5 hPa 0,0 l/m 3,9 km/h (1 Bft) W-SW 244 2 min 0,000 mm 2,4 UV-I 598 W/m 11,0 C 18,7 C 12,9 km/h (3 Bft) 100,00 %
11.10.2017 14:06 18,8 C 11,7 C 60 % 1019,5 hPa 0,0 l/m 8,0 km/h (2 Bft) W 266 2 min 0,000 mm 2,4 UV-I 574 W/m 10,9 C 18,1 C 12,9 km/h (3 Bft) 100,00 %
11.10.2017 14:08 18,7 C 11,7 C 59 % 1019,5 hPa 0,0 l/m 6,0 km/h (2 Bft) W-SW 238 2 min 0,000 mm 2,3 UV-I 544 W/m 10,5 C 18,7 C 9,7 km/h (2 Bft) 100,00 %
11.10.2017 14:10 18,7 C 11,7 C 60 % 1019,4 hPa 0,0 l/m 3,1 km/h (1 Bft) N 350 2 min 0,000 mm 2,3 UV-I 538 W/m 10,8 C 18,7 C 6,4 km/h (2 Bft) 96,00 %
11.10.2017 14:12 18,8 C 11,7 C 63 % 1019,5 hPa 0,0 l/m 2,7 km/h (1 Bft) W-SW 240 2 min 0,000 mm 2,3 UV-I 596 W/m 11,6 C 18,8 C 6,4 km/h (2 Bft) 96,00 %
11.10.2017 14:14 19,1 C 11,7 C 62 % 1019,4 hPa 0,0 l/m 6,0 km/h (2 Bft) W-SW 244 2 min 0,000 mm 2,3 UV-I 634 W/m 11,6 C 19,1 C 9,7 km/h (2 Bft) 97,56 %
11.10.2017 14:16 19,1 C 11,7 C 61 % 1019,4 hPa 0,0 l/m 5,5 km/h (1 Bft) W 271 2 min 0,000 mm 2,3 UV-I 621 W/m 11,4 C 19,1 C 9,7 km/h (2 Bft) 94,00 %
11.10.2017 14:18 19,2 C 11,7 C 59 % 1019,4 hPa 0,0 l/m 5,5 km/h (1 Bft) SW 214 2 min 0,000 mm 2,2 UV-I 573 W/m 11,0 C 19,2 C 8,0 km/h (2 Bft) 93,62 %
11.10.2017 14:20 19,2 C 11,7 C 56 % 1019,5 hPa 0,0 l/m 9,5 km/h (2 Bft) W 272 2 min 0,000 mm 2,2 UV-I 604 W/m 10,2 C 17,9 C 16,1 km/h (3 Bft) 92,68 %
11.10.2017 14:22 19,1 C 11,7 C 56 % 1019,4 hPa 0,0 l/m 8,0 km/h (2 Bft) S-SW 194 2 min 0,000 mm 2,2 UV-I 600 W/m 10,1 C 18,4 C 11,3 km/h (2 Bft) 94,34 %
11.10.2017 14:24 19,1 C 11,7 C 56 % 1019,4 hPa 0,0 l/m 10,3 km/h (2 Bft) SW 220 2 min 0,000 mm 2,2 UV-I 593 W/m 10,1 C 17,5 C 24,1 km/h (4 Bft) 96,23 %
11.10.2017 14:26 19,0 C 11,7 C 57 % 1019,3 hPa 0,0 l/m 15,4 km/h (3 Bft) SW 221 2 min 0,000 mm 2,1 UV-I 566 W/m 10,3 C 15,9 C 20,9 km/h (4 Bft) 94,29 %
11.10.2017 14:28 19,1 C 11,7 C 58 % 1019,4 hPa 0,0 l/m 8,5 km/h (2 Bft) W-SW 258 2 min 0,000 mm 2,1 UV-I 502 W/m 10,6 C 18,2 C 17,7 km/h (3 Bft) 94,34 %
11.10.2017 14:30 19,1 C 11,7 C 57 % 1019,4 hPa 0,0 l/m 9,1 km/h (2 Bft) W-NW 289 2 min 0,000 mm 2,0 UV-I 487 W/m 10,4 C 18,0 C 16,1 km/h (3 Bft) 96,23 %
11.10.2017 14:32 19,1 C 11,7 C 58 % 1019,3 hPa 0,0 l/m 4,1 km/h (1 Bft) SW 234 2 min 0,000 mm 2,0 UV-I 508 W/m 10,6 C 19,1 C 9,7 km/h (2 Bft) 94,87 %
11.10.2017 14:34 19,1 C 11,7 C 60 % 1019,3 hPa 0,0 l/m 4,0 km/h (1 Bft) S 186 2 min 0,000 mm 2,0 UV-I 533 W/m 11,1 C 19,1 C 8,0 km/h (2 Bft) 96,00 %
11.10.2017 14:36 19,1 C 11,7 C 60 % 1019,3 hPa 0,0 l/m 4,9 km/h (1 Bft) W-NW 291 2 min 0,000 mm 2,0 UV-I 509 W/m 11,1 C 19,1 C 9,7 km/h (2 Bft) 95,12 %
11.10.2017 14:38 19,0 C 11,7 C 61 % 1019,3 hPa 0,0 l/m 4,0 km/h (1 Bft) W-NW 286 2 min 0,000 mm 1,9 UV-I 477 W/m 11,3 C 19,0 C 9,7 km/h (2 Bft) 96,23 %
11.10.2017 14:40 18,9 C 11,7 C 61 % 1019,3 hPa 0,0 l/m 3,4 km/h (1 Bft) SW 217 2 min 0,000 mm 1,8 UV-I 427 W/m 11,2 C 18,9 C 6,4 km/h (2 Bft) 95,92 %
11.10.2017 14:42 19,0 C 11,7 C 62 % 1019,4 hPa 0,0 l/m 4,2 km/h (1 Bft) SW 222 2 min 0,000 mm 1,8 UV-I 426 W/m 11,6 C 19,0 C 8,0 km/h (2 Bft) 94,74 %
11.10.2017 14:44 18,9 C 11,7 C 59 % 1019,3 hPa 0,0 l/m 6,2 km/h (2 Bft) SW 214 2 min 0,000 mm 1,7 UV-I 387 W/m 10,7 C 18,9 C 8,0 km/h (2 Bft) 98,00 %
11.10.2017 14:46 18,9 C 11,7 C 59 % 1019,3 hPa 0,0 l/m 3,7 km/h (1 Bft) W 279 2 min 0,000 mm 1,7 UV-I 427 W/m 10,7 C 18,9 C 6,4 km/h (2 Bft) 98,00 %
11.10.2017 14:48 18,9 C 11,7 C 59 % 1019,4 hPa 0,0 l/m 4,9 km/h (1 Bft) W 273 2 min 0,000 mm 1,7 UV-I 442 W/m 10,7 C 18,9 C 9,7 km/h (2 Bft) 97,56 %
11.10.2017 14:50 19,0 C 11,7 C 58 % 1019,3 hPa 0,0 l/m 10,6 km/h (2 Bft) SW 234 2 min 0,000 mm 1,7 UV-I 447 W/m 10,5 C 17,3 C 16,1 km/h (3 Bft) 96,23 %
11.10.2017 14:52 19,0 C 11,7 C 59 % 1019,3 hPa 0,0 l/m 4,0 km/h (1 Bft) W-NW 300 2 min 0,000 mm 1,7 UV-I 446 W/m 10,8 C 19,0 C 9,7 km/h (2 Bft) 100,00 %
11.10.2017 14:54 18,9 C 11,7 C 58 % 1019,3 hPa 0,0 l/m 2,1 km/h (1 Bft) W-SW 247 2 min 0,000 mm 1,7 UV-I 445 W/m 10,5 C 18,9 C 4,8 km/h (1 Bft) 92,45 %
11.10.2017 14:56 18,9 C 11,7 C 59 % 1019,4 hPa 0,0 l/m 3,5 km/h (1 Bft) NO 40 2 min 0,000 mm 1,7 UV-I 438 W/m 10,7 C 18,9 C 11,3 km/h (2 Bft) 98,00 %
11.10.2017 14:58 18,9 C 11,7 C 58 % 1019,3 hPa 0,0 l/m 5,1 km/h (1 Bft) NO 55 2 min 0,000 mm 1,6 UV-I 438 W/m 10,5 C 18,9 C 14,5 km/h (3 Bft) 95,74 %
11.10.2017 15:00 18,8 C 11,7 C 60 % 1019,3 hPa 0,0 l/m 3,8 km/h (1 Bft) NW 312 2 min 0,330 mm 1,6 UV-I 432 W/m 10,9 C 18,8 C 4,8 km/h (1 Bft) 97,37 %
11.10.2017 15:02 18,7 C 11,7 C 57 % 1019,3 hPa 0,0 l/m 4,0 km/h (1 Bft) NW 320 2 min 0,000 mm 1,6 UV-I 430 W/m 10,0 C 18,7 C 9,7 km/h (2 Bft) 96,43 %
11.10.2017 15:04 18,6 C 11,7 C 60 % 1019,3 hPa 0,0 l/m 2,8 km/h (1 Bft) W-NW 303 2 min 0,000 mm 1,6 UV-I 410 W/m 10,7 C 18,6 C 6,4 km/h (2 Bft) 98,00 %
11.10.2017 15:06 18,7 C 11,7 C 59 % 1019,2 hPa 0,0 l/m 3,6 km/h (1 Bft) W 275 2 min 0,000 mm 1,5 UV-I 402 W/m 10,5 C 18,7 C 6,4 km/h (2 Bft) 97,56 %
11.10.2017 15:08 18,8 C 11,7 C 57 % 1019,2 hPa 0,0 l/m 5,2 km/h (1 Bft) W-SW 252 2 min 0,000 mm 1,5 UV-I 414 W/m 10,1 C 18,8 C 11,3 km/h (2 Bft) 97,87 %
11.10.2017 15:10 18,8 C 11,7 C 60 % 1019,2 hPa 0,0 l/m 4,1 km/h (1 Bft) W-SW 238 2 min 0,000 mm 1,5 UV-I 393 W/m 10,9 C 18,8 C 6,4 km/h (2 Bft) 98,00 %
11.10.2017 15:12 18,8 C 11,7 C 58 % 1019,2 hPa 0,0 l/m 6,0 km/h (2 Bft) W-SW 254 2 min 0,000 mm 1,5 UV-I 391 W/m 10,4 C 18,8 C 11,3 km/h (2 Bft) 97,22 %
11.10.2017 15:14 18,8 C 11,7 C 57 % 1019,1 hPa 0,0 l/m 4,2 km/h (1 Bft) W 275 2 min 0,000 mm 1,4 UV-I 369 W/m 10,1 C 18,8 C 9,7 km/h (2 Bft) 96,23 %
11.10.2017 15:16 18,8 C 11,7 C 56 % 1019,1 hPa 0,0 l/m 2,6 km/h (1 Bft) W-SW 258 2 min 0,000 mm 1,4 UV-I 361 W/m 9,8 C 18,8 C 4,8 km/h (1 Bft) 97,87 %
11.10.2017 15:18 18,8 C 11,7 C 55 % 1019,1 hPa 0,0 l/m 9,5 km/h (2 Bft) SW 221 2 min 0,000 mm 1,4 UV-I 378 W/m 9,6 C 17,5 C 14,5 km/h (3 Bft) 96,23 %
11.10.2017 15:20 18,7 C 11,7 C 57 % 1019,1 hPa 0,0 l/m 2,8 km/h (1 Bft) N 350 2 min 0,000 mm 1,3 UV-I 363 W/m 10,0 C 18,7 C 6,4 km/h (2 Bft) 97,37 %
11.10.2017 15:22 18,6 C 11,7 C 55 % 1019,1 hPa 0,0 l/m 4,0 km/h (1 Bft) NW 309 2 min 0,000 mm 1,3 UV-I 335 W/m 9,4 C 18,6 C 9,7 km/h (2 Bft) 95,74 %
11.10.2017 15:24 18,6 C 11,7 C 58 % 1019,1 hPa 0,0 l/m 3,3 km/h (1 Bft) W-SW 238 2 min 0,000 mm 1,3 UV-I 348 W/m 10,2 C 18,6 C 9,7 km/h (2 Bft) 97,87 %
11.10.2017 15:26 18,6 C 11,7 C 58 % 1019,0 hPa 0,0 l/m 2,4 km/h (1 Bft) W-NW 298 2 min 0,000 mm 1,3 UV-I 359 W/m 10,2 C 18,6 C 4,8 km/h (1 Bft) 98,00 %
11.10.2017 15:28 18,6 C 11,7 C 56 % 1019,0 hPa 0,0 l/m 3,5 km/h (1 Bft) S-SW 207 2 min 0,000 mm 1,3 UV-I 355 W/m 9,6 C 18,6 C 6,4 km/h (2 Bft) 98,11 %
11.10.2017 15:30 18,6 C 11,7 C 56 % 1019,0 hPa 0,0 l/m 4,7 km/h (1 Bft) W 266 2 min 0,000 mm 1,2 UV-I 354 W/m 9,6 C 18,6 C 9,7 km/h (2 Bft) 97,56 %
11.10.2017 15:32 18,6 C 11,7 C 58 % 1019,0 hPa 0,0 l/m 4,9 km/h (1 Bft) W 275 2 min 0,000 mm 1,2 UV-I 349 W/m 10,2 C 18,6 C 14,5 km/h (3 Bft) 94,34 %
11.10.2017 15:34 18,6 C 11,7 C 59 % 1019,0 hPa 0,0 l/m 4,7 km/h (1 Bft) SW 235 2 min 0,000 mm 1,2 UV-I 327 W/m 10,4 C 18,6 C 11,3 km/h (2 Bft) 100,00 %
11.10.2017 15:36 18,6 C 11,7 C 57 % 1019,0 hPa 0,0 l/m 1,4 km/h (1 Bft) W 259 2 min 0,000 mm 1,2 UV-I 308 W/m 9,9 C 18,6 C 4,8 km/h (1 Bft) 96,23 %
11.10.2017 15:38 18,6 C 11,7 C 59 % 1019,0 hPa 0,0 l/m 1,8 km/h (1 Bft) S-SW 205 2 min 0,000 mm 1,2 UV-I 327 W/m 10,4 C 18,6 C 4,8 km/h (1 Bft) 97,37 %
11.10.2017 15:40 18,7 C 11,7 C 60 % 1019,0 hPa 0,0 l/m 1,7 km/h (1 Bft) NW 312 2 min 0,000 mm 1,1 UV-I 338 W/m 10,8 C 18,7 C 4,8 km/h (1 Bft) 98,11 %
11.10.2017 15:42 18,7 C 11,7 C 57 % 1019,0 hPa 0,0 l/m 4,1 km/h (1 Bft) W 261 2 min 0,000 mm 1,1 UV-I 338 W/m 10,0 C 18,7 C 11,3 km/h (2 Bft) 97,37 %
11.10.2017 15:44 18,7 C 11,7 C 59 % 1019,0 hPa 0,0 l/m 3,0 km/h (1 Bft) W-SW 250 2 min 0,000 mm 1,1 UV-I 308 W/m 10,5 C 18,7 C 6,4 km/h (2 Bft) 100,00 %
11.10.2017 15:46 18,6 C 11,7 C 57 % 1018,9 hPa 0,0 l/m 4,1 km/h (1 Bft) NW 307 2 min 0,000 mm 1,0 UV-I 285 W/m 9,9 C 18,6 C 8,0 km/h (2 Bft) 97,56 %
11.10.2017 15:48 18,5 C 11,7 C 59 % 1019,0 hPa 0,0 l/m 4,7 km/h (1 Bft) W-SW 246 2 min 0,000 mm 1,0 UV-I 293 W/m 10,3 C 18,5 C 11,3 km/h (2 Bft) 96,43 %
11.10.2017 15:50 18,4 C 11,7 C 58 % 1018,9 hPa 0,0 l/m 2,5 km/h (1 Bft) NW 306 2 min 0,000 mm 1,0 UV-I 344 W/m 10,0 C 18,4 C 4,8 km/h (1 Bft) 97,44 %
11.10.2017 15:52 18,4 C 11,7 C 57 % 1018,9 hPa 0,0 l/m 3,7 km/h (1 Bft) W-NW 284 2 min 0,000 mm 1,0 UV-I 357 W/m 9,7 C 18,4 C 9,7 km/h (2 Bft) 98,00 %
11.10.2017 15:54 18,4 C 11,7 C 58 % 1018,9 hPa 0,0 l/m 6,4 km/h (2 Bft) NW 308 2 min 0,000 mm 1,0 UV-I 346 W/m 10,0 C 18,4 C 9,7 km/h (2 Bft) 100,00 %
11.10.2017 15:56 18,4 C 11,7 C 58 % 1018,9 hPa 0,0 l/m 2,7 km/h (1 Bft) W 279 2 min 0,000 mm 1,0 UV-I 334 W/m 10,0 C 18,4 C 6,4 km/h (2 Bft) 94,87 %
11.10.2017 15:58 18,4 C 11,7 C 58 % 1018,9 hPa 0,0 l/m 4,1 km/h (1 Bft) W 279 2 min 0,000 mm 0,9 UV-I 328 W/m 10,0 C 18,4 C 9,7 km/h (2 Bft) 100,00 %
11.10.2017 16:00 18,4 C 11,7 C 58 % 1018,9 hPa 0,0 l/m 3,3 km/h (1 Bft) W-NW 291 2 min 0,229 mm 0,9 UV-I 315 W/m 10,0 C 18,4 C 6,4 km/h (2 Bft) 96,15 %
11.10.2017 16:02 18,4 C 11,7 C 58 % 1018,9 hPa 0,0 l/m 3,9 km/h (1 Bft) SW 224 2 min 0,000 mm 0,9 UV-I 312 W/m 10,0 C 18,4 C 6,4 km/h (2 Bft) 98,53 %
11.10.2017 16:04 18,5 C 11,7 C 59 % 1018,9 hPa 0,0 l/m 4,1 km/h (1 Bft) W 263 2 min 0,000 mm 0,9 UV-I 299 W/m 10,3 C 18,5 C 6,4 km/h (2 Bft) 97,37 %
11.10.2017 16:06 18,6 C 11,7 C 59 % 1018,9 hPa 0,0 l/m 3,9 km/h (1 Bft) W 259 2 min 0,000 mm 0,8 UV-I 300 W/m 10,4 C 18,6 C 4,8 km/h (1 Bft) 98,00 %
11.10.2017 16:08 18,6 C 11,7 C 59 % 1018,9 hPa 0,0 l/m 1,9 km/h (1 Bft) W-SW 257 2 min 0,000 mm 0,8 UV-I 287 W/m 10,4 C 18,6 C 4,8 km/h (1 Bft) 97,87 %
11.10.2017 16:10 18,5 C 11,7 C 58 % 1018,9 hPa 0,0 l/m 1,2 km/h (1 Bft) W-SW 258 2 min 0,000 mm 0,8 UV-I 279 W/m 10,1 C 18,5 C 3,2 km/h (1 Bft) 94,00 %
11.10.2017 16:12 18,4 C 11,7 C 58 % 1018,8 hPa 0,0 l/m 2,5 km/h (1 Bft) NW 318 2 min 0,000 mm 0,7 UV-I 264 W/m 10,0 C 18,4 C 6,4 km/h (2 Bft) 100,00 %
11.10.2017 16:14 18,4 C 11,7 C 57 % 1018,8 hPa 0,0 l/m 0,8 km/h (0 Bft) W-NW 302 2 min 0,000 mm 0,7 UV-I 261 W/m 9,7 C 18,4 C 3,2 km/h (1 Bft) 94,64 %
11.10.2017 16:16 18,4 C 11,7 C 58 % 1018,8 hPa 0,0 l/m 2,4 km/h (1 Bft) W-NW 288 2 min 0,000 mm 0,7 UV-I 237 W/m 10,0 C 18,4 C 4,8 km/h (1 Bft) 97,37 %
11.10.2017 16:18 18,4 C 11,7 C 58 % 1018,8 hPa 0,0 l/m 4,9 km/h (1 Bft) W-SW 258 2 min 0,000 mm 0,7 UV-I 250 W/m 10,0 C 18,4 C 11,3 km/h (2 Bft) 96,00 %
11.10.2017 16:20 18,3 C 11,7 C 56 % 1018,8 hPa 0,0 l/m 3,1 km/h (1 Bft) W 267 2 min 0,000 mm 0,7 UV-I 238 W/m 9,4 C 18,3 C 4,8 km/h (1 Bft) 96,00 %
11.10.2017 16:22 18,2 C 11,7 C 58 % 1018,8 hPa 0,0 l/m 4,4 km/h (1 Bft) W-SW 243 2 min 0,000 mm 0,6 UV-I 221 W/m 9,8 C 18,2 C 11,3 km/h (2 Bft) 97,87 %
11.10.2017 16:24 18,2 C 11,7 C 58 % 1018,8 hPa 0,0 l/m 6,4 km/h (2 Bft) SW 235 2 min 0,000 mm 0,6 UV-I 217 W/m 9,8 C 18,2 C 9,7 km/h (2 Bft) 97,22 %
11.10.2017 16:26 18,2 C 11,7 C 58 % 1018,8 hPa 0,0 l/m 5,4 km/h (1 Bft) W-NW 285 2 min 0,000 mm 0,6 UV-I 228 W/m 9,8 C 18,2 C 9,7 km/h (2 Bft) 98,28 %
11.10.2017 16:28 18,2 C 11,7 C 59 % 1018,8 hPa 0,0 l/m 2,5 km/h (1 Bft) W 265 2 min 0,000 mm 0,6 UV-I 233 W/m 10,1 C 18,2 C 4,8 km/h (1 Bft) 94,00 %
11.10.2017 16:30 18,2 C 11,7 C 59 % 1018,8 hPa 0,0 l/m 2,3 km/h (1 Bft) W 265 2 min 0,000 mm 0,6 UV-I 237 W/m 10,1 C 18,2 C 4,8 km/h (1 Bft) 97,73 %
11.10.2017 16:32 18,1 C 11,7 C 59 % 1018,8 hPa 0,0 l/m 3,1 km/h (1 Bft) S-SW 213 2 min 0,000 mm 0,5 UV-I 233 W/m 10,0 C 18,1 C 6,4 km/h (2 Bft) 97,44 %
11.10.2017 16:34 18,1 C 11,7 C 60 % 1018,8 hPa 0,0 l/m 1,0 km/h (0 Bft) SW 225 2 min 0,000 mm 0,5 UV-I 231 W/m 10,2 C 18,1 C 3,2 km/h (1 Bft) 98,11 %
11.10.2017 16:36 18,1 C 11,7 C 59 % 1018,8 hPa 0,0 l/m 1,4 km/h (1 Bft) W 276 2 min 0,000 mm 0,5 UV-I 211 W/m 10,0 C 18,1 C 4,8 km/h (1 Bft) 97,87 %
11.10.2017 16:38 18,0 C 11,7 C 58 % 1018,8 hPa 0,0 l/m 0,9 km/h (0 Bft) W 276 2 min 0,000 mm 0,5 UV-I 201 W/m 9,6 C 18,0 C 3,2 km/h (1 Bft) 95,74 %
11.10.2017 16:40 17,9 C 11,7 C 58 % 1018,8 hPa 0,0 l/m 1,7 km/h (1 Bft) W 276 2 min 0,000 mm 0,4 UV-I 187 W/m 9,5 C 17,9 C 4,8 km/h (1 Bft) 98,00 %
11.10.2017 16:42 17,9 C 11,7 C 59 % 1018,8 hPa 0,0 l/m 2,2 km/h (1 Bft) W 267 2 min 0,000 mm 0,0 UV-I 189 W/m 9,8 C 17,9 C 4,8 km/h (1 Bft) 97,87 %
11.10.2017 16:44 17,9 C 11,7 C 59 % 1018,8 hPa 0,0 l/m 1,8 km/h (1 Bft) W 277 2 min 0,000 mm 0,0 UV-I 207 W/m 9,8 C 17,9 C 4,8 km/h (1 Bft) 100,00 %
11.10.2017 16:46 17,9 C 11,7 C 59 % 1018,8 hPa 0,0 l/m 2,9 km/h (1 Bft) NW 308 2 min 0,000 mm 0,0 UV-I 201 W/m 9,8 C 17,9 C 6,4 km/h (2 Bft) 98,00 %
11.10.2017 16:48 17,9 C 11,7 C 58 % 1018,8 hPa 0,0 l/m 1,5 km/h (1 Bft) W-NW 293 2 min 0,000 mm 0,0 UV-I 194 W/m 9,5 C 17,9 C 4,8 km/h (1 Bft) 100,00 %
11.10.2017 16:50 17,9 C 11,7 C 60 % 1018,8 hPa 0,0 l/m 0,8 km/h (0 Bft) W-NW 293 2 min 0,000 mm 0,0 UV-I 189 W/m 10,0 C 17,9 C 3,2 km/h (1 Bft) 100,00 %
11.10.2017 16:52 17,8 C 11,7 C 59 % 1018,8 hPa 0,0 l/m 0,7 km/h (0 Bft) W-NW 301 2 min 0,000 mm 0,0 UV-I 189 W/m 9,7 C 17,8 C 3,2 km/h (1 Bft) 98,00 %
11.10.2017 16:54 17,9 C 11,7 C 62 % 1018,8 hPa 0,0 l/m 2,3 km/h (1 Bft) NW 314 2 min 0,000 mm 0,0 UV-I 180 W/m 10,5 C 17,9 C 4,8 km/h (1 Bft) 100,00 %
11.10.2017 16:56 17,9 C 11,7 C 60 % 1018,9 hPa 0,0 l/m 1,9 km/h (1 Bft) NW 305 2 min 0,000 mm 0,0 UV-I 169 W/m 10,0 C 17,9 C 4,8 km/h (1 Bft) 100,00 %
11.10.2017 16:58 17,9 C 11,7 C 61 % 1018,9 hPa 0,0 l/m 2,6 km/h (1 Bft) W 276 2 min 0,000 mm 0,0 UV-I 171 W/m 10,3 C 17,9 C 4,8 km/h (1 Bft) 96,55 %
11.10.2017 17:00 17,9 C 11,7 C 61 % 1018,9 hPa 0,0 l/m 1,2 km/h (1 Bft) W 276 2 min 0,152 mm 0,0 UV-I 160 W/m 10,3 C 17,9 C 3,2 km/h (1 Bft) 98,21 %
11.10.2017 17:02 17,8 C 11,7 C 62 % 1018,9 hPa 0,0 l/m 0,7 km/h (0 Bft) W 276 2 min 0,000 mm 0,0 UV-I 156 W/m 10,4 C 17,8 C 3,2 km/h (1 Bft) 100,00 %
11.10.2017 17:04 17,8 C 11,7 C 61 % 1018,9 hPa 0,0 l/m 2,5 km/h (1 Bft) W 281 2 min 0,000 mm 0,0 UV-I 155 W/m 10,2 C 17,8 C 4,8 km/h (1 Bft) 97,96 %
11.10.2017 17:06 17,8 C 11,7 C 61 % 1018,9 hPa 0,0 l/m 0,1 km/h (0 Bft) W 281 2 min 0,000 mm 0,0 UV-I 142 W/m 10,2 C 17,8 C 1,6 km/h (1 Bft) 96,00 %
11.10.2017 17:08 17,8 C 11,7 C 62 % 1018,9 hPa 0,0 l/m 0,1 km/h (0 Bft) W 281 2 min 0,000 mm 0,0 UV-I 138 W/m 10,4 C 17,8 C 1,6 km/h (1 Bft) 97,92 %
11.10.2017 17:10 17,7 C 11,7 C 62 % 1018,9 hPa 0,0 l/m 0,7 km/h (0 Bft) W 281 2 min 0,000 mm 0,0 UV-I 137 W/m 10,3 C 17,7 C 3,2 km/h (1 Bft) 100,00 %
11.10.2017 17:12 17,6 C 11,7 C 63 % 1018,9 hPa 0,0 l/m 0,8 km/h (0 Bft) W 281 2 min 0,000 mm 0,0 UV-I 136 W/m 10,5 C 17,6 C 3,2 km/h (1 Bft) 100,00 %
11.10.2017 17:14 17,6 C 11,7 C 63 % 1018,9 hPa 0,0 l/m 0,4 km/h (0 Bft) W 281 2 min 0,000 mm 0,0 UV-I 130 W/m 10,5 C 17,6 C 1,6 km/h (1 Bft) 100,00 %
11.10.2017 17:16 17,6 C 11,7 C 61 % 1018,8 hPa 0,0 l/m 1,4 km/h (1 Bft) W 281 2 min 0,000 mm 0,0 UV-I 119 W/m 10,0 C 17,6 C 3,2 km/h (1 Bft) 95,74 %
11.10.2017 17:18 17,6 C 11,7 C 62 % 1018,9 hPa 0,0 l/m 1,5 km/h (1 Bft) W 281 2 min 0,000 mm 0,0 UV-I 115 W/m 10,2 C 17,6 C 3,2 km/h (1 Bft) 100,00 %
11.10.2017 17:20 17,5 C 11,7 C 61 % 1018,9 hPa 0,0 l/m 0,1 km/h (0 Bft) W 281 2 min 0,000 mm 0,0 UV-I 118 W/m 9,9 C 17,5 C 1,6 km/h (1 Bft) 100,00 %
11.10.2017 17:22 17,4 C 11,7 C 62 % 1018,9 hPa 0,0 l/m 0,2 km/h (0 Bft) W 281 2 min 0,000 mm 0,0 UV-I 103 W/m 10,0 C 17,4 C 1,6 km/h (1 Bft) 97,37 %
11.10.2017 17:24 17,4 C 11,7 C 62 % 1018,9 hPa 0,0 l/m 0,0 km/h (0 Bft) W 281 2 min 0,000 mm 0,0 UV-I 91 W/m 10,0 C 17,4 C 0,0 km/h (0 Bft) 100,00 %
11.10.2017 17:26 17,4 C 11,7 C 62 % 1018,8 hPa 0,0 l/m 0,0 km/h (0 Bft) W 281 2 min 0,000 mm 0,0 UV-I 89 W/m 10,0 C 17,4 C 0,0 km/h (0 Bft) 100,00 %
11.10.2017 17:28 17,4 C 11,7 C 61 % 1018,8 hPa 0,0 l/m 0,3 km/h (0 Bft) W 281 2 min 0,000 mm 0,0 UV-I 91 W/m 9,8 C 17,4 C 1,6 km/h (1 Bft) 100,00 %
11.10.2017 17:30 17,4 C 11,7 C 62 % 1018,8 hPa 0,0 l/m 0,3 km/h (0 Bft) W 281 2 min 0,000 mm 0,0 UV-I 89 W/m 10,0 C 17,4 C 1,6 km/h (1 Bft) 97,56 %
11.10.2017 17:32 17,4 C 11,7 C 62 % 1018,8 hPa 0,0 l/m 0,0 km/h (0 Bft) W 281 2 min 0,000 mm 0,0 UV-I 81 W/m 10,0 C 17,4 C 0,0 km/h (0 Bft) 100,00 %
11.10.2017 17:34 17,4 C 11,7 C 62 % 1018,8 hPa 0,0 l/m 0,0 km/h (0 Bft) W 281 2 min 0,000 mm 0,0 UV-I 74 W/m 10,0 C 17,4 C 0,0 km/h (0 Bft) 98,11 %
11.10.2017 17:36 17,4 C 11,7 C 61 % 1018,8 hPa 0,0 l/m 0,0 km/h (0 Bft) W 281 2 min 0,000 mm 0,0 UV-I 84 W/m 9,8 C 17,4 C 0,0 km/h (0 Bft) 100,00 %
11.10.2017 17:38 17,4 C 11,7 C 63 % 1018,8 hPa 0,0 l/m 0,0 km/h (0 Bft) W 281 2 min 0,000 mm 0,0 UV-I 81 W/m 10,3 C 17,4 C 0,0 km/h (0 Bft) 100,00 %
11.10.2017 17:40 17,3 C 11,7 C 62 % 1018,7 hPa 0,0 l/m 0,2 km/h (0 Bft) W 281 2 min 0,000 mm 0,0 UV-I 70 W/m 9,9 C 17,3 C 1,6 km/h (1 Bft) 100,00 %
11.10.2017 17:42 17,3 C 11,7 C 62 % 1018,7 hPa 0,0 l/m 0,0 km/h (0 Bft) W 281 2 min 0,000 mm 0,0 UV-I 63 W/m 9,9 C 17,3 C 0,0 km/h (0 Bft) 98,00 %
11.10.2017 17:44 17,1 C 11,7 C 67 % 1018,8 hPa 0,0 l/m 0,0 km/h (0 Bft) W 281 2 min 0,000 mm 0,0 UV-I 63 W/m 10,9 C 17,1 C 1,6 km/h (1 Bft) 100,00 %
11.10.2017 17:46 16,7 C 11,7 C 70 % 1018,8 hPa 0,0 l/m 0,1 km/h (0 Bft) W 281 2 min 0,000 mm 0,0 UV-I 56 W/m 11,2 C 16,7 C 1,6 km/h (1 Bft) 97,62 %
11.10.2017 17:48 16,2 C 11,7 C 73 % 1018,8 hPa 0,0 l/m 1,2 km/h (1 Bft) W 281 2 min 0,000 mm 0,0 UV-I 56 W/m 11,4 C 16,2 C 3,2 km/h (1 Bft) 100,00 %
11.10.2017 17:50 15,9 C 11,7 C 74 % 1018,8 hPa 0,0 l/m 0,2 km/h (0 Bft) W 281 2 min 0,000 mm 0,0 UV-I 51 W/m 11,3 C 15,9 C 1,6 km/h (1 Bft) 100,00 %
11.10.2017 17:52 15,6 C 11,7 C 75 % 1018,8 hPa 0,0 l/m 0,0 km/h (0 Bft) W 281 2 min 0,000 mm 0,0 UV-I 50 W/m 11,2 C 15,6 C 0,0 km/h (0 Bft) 97,87 %
11.10.2017 17:54 15,4 C 11,7 C 77 % 1018,8 hPa 0,0 l/m 1,8 km/h (1 Bft) W 281 2 min 0,000 mm 0,0 UV-I 49 W/m 11,4 C 15,4 C 3,2 km/h (1 Bft) 100,00 %
11.10.2017 17:56 15,2 C 11,7 C 78 % 1018,8 hPa 0,0 l/m 2,2 km/h (1 Bft) W 281 2 min 0,000 mm 0,0 UV-I 51 W/m 11,4 C 15,2 C 3,2 km/h (1 Bft) 100,00 %
11.10.2017 17:58 15,0 C 11,7 C 79 % 1018,8 hPa 0,0 l/m 0,6 km/h (0 Bft) W 281 2 min 0,000 mm 0,0 UV-I 49 W/m 11,4 C 15,0 C 1,6 km/h (1 Bft) 100,00 %
11.10.2017 18:00 14,9 C 11,7 C 79 % 1018,8 hPa 0,0 l/m 0,0 km/h (0 Bft) W 281 2 min 0,051 mm 0,0 UV-I 46 W/m 11,3 C 14,9 C 0,0 km/h (0 Bft) 100,00 %
11.10.2017 18:02 14,8 C 11,7 C 79 % 1018,8 hPa 0,0 l/m 0,0 km/h (0 Bft) W 281 2 min 0,000 mm 0,0 UV-I 44 W/m 11,2 C 14,8 C 0,0 km/h (0 Bft) 100,00 %
11.10.2017 18:04 14,7 C 11,7 C 80 % 1018,8 hPa 0,0 l/m 0,0 km/h (0 Bft) W 281 2 min 0,000 mm 0,0 UV-I 40 W/m 11,3 C 14,7 C 0,0 km/h (0 Bft) 100,00 %
11.10.2017 18:06 14,6 C 11,7 C 80 % 1018,8 hPa 0,0 l/m 0,0 km/h (0 Bft) W 281 2 min 0,000 mm 0,0 UV-I 36 W/m 11,2 C 14,6 C 0,0 km/h (0 Bft) 100,00 %
11.10.2017 18:08 14,6 C 11,7 C 80 % 1018,7 hPa 0,0 l/m 0,0 km/h (0 Bft) W 281 2 min 0,000 mm 0,0 UV-I 32 W/m 11,2 C 14,6 C 0,0 km/h (0 Bft) 100,00 %
11.10.2017 18:10 14,6 C 11,7 C 80 % 1018,8 hPa 0,0 l/m 0,0 km/h (0 Bft) W 281 2 min 0,000 mm 0,0 UV-I 30 W/m 11,2 C 14,6 C 0,0 km/h (0 Bft) 100,00 %
11.10.2017 18:12 14,5 C 11,7 C 80 % 1018,8 hPa 0,0 l/m 0,0 km/h (0 Bft) W 281 2 min 0,000 mm 0,0 UV-I 17 W/m 11,1 C 14,5 C 0,0 km/h (0 Bft) 100,00 %
11.10.2017 18:14 14,4 C 11,7 C 80 % 1018,9 hPa 0,0 l/m 0,0 km/h (0 Bft) W 281 0 min 0,000 mm 0,0 UV-I 11 W/m 11,0 C 14,4 C 0,0 km/h (0 Bft) 100,00 %
11.10.2017 18:16 14,4 C 11,7 C 80 % 1018,8 hPa 0,0 l/m 0,0 km/h (0 Bft) W 281 0 min 0,000 mm 0,0 UV-I 18 W/m 11,0 C 14,4 C 0,0 km/h (0 Bft) 100,00 %
11.10.2017 18:18 14,4 C 11,7 C 80 % 1018,9 hPa 0,0 l/m 0,0 km/h (0 Bft) W 281 0 min 0,000 mm 0,0 UV-I 15 W/m 11,0 C 14,4 C 0,0 km/h (0 Bft) 100,00 %
11.10.2017 18:20 14,4 C 11,7 C 80 % 1018,9 hPa 0,0 l/m 0,0 km/h (0 Bft) W 281 0 min 0,000 mm 0,0 UV-I 13 W/m 11,0 C 14,4 C 0,0 km/h (0 Bft) 100,00 %
11.10.2017 18:22 14,4 C 11,7 C 80 % 1018,9 hPa 0,0 l/m 0,0 km/h (0 Bft) W 281 0 min 0,000 mm 0,0 UV-I 12 W/m 11,0 C 14,4 C 0,0 km/h (0 Bft) 100,00 %
11.10.2017 18:24 14,3 C 11,7 C 80 % 1018,9 hPa 0,0 l/m 0,0 km/h (0 Bft) W 281 0 min 0,000 mm 0,0 UV-I 11 W/m 10,9 C 14,3 C 0,0 km/h (0 Bft) 96,00 %
11.10.2017 18:26 14,2 C 11,7 C 80 % 1018,8 hPa 0,0 l/m 0,3 km/h (0 Bft) W 281 0 min 0,000 mm 0,0 UV-I 11 W/m 10,8 C 14,2 C 1,6 km/h (1 Bft) 97,44 %
11.10.2017 18:28 13,8 C 11,7 C 81 % 1018,9 hPa 0,0 l/m 2,6 km/h (1 Bft) W 281 0 min 0,000 mm 0,0 UV-I 11 W/m 10,6 C 13,8 C 4,8 km/h (1 Bft) 98,00 %
11.10.2017 18:30 13,6 C 11,7 C 81 % 1018,8 hPa 0,0 l/m 3,3 km/h (1 Bft) W 281 0 min 0,000 mm 0,0 UV-I 11 W/m 10,4 C 13,6 C 4,8 km/h (1 Bft) 96,15 %
11.10.2017 18:32 13,5 C 11,7 C 82 % 1018,8 hPa 0,0 l/m 2,7 km/h (1 Bft) W 281 0 min 0,000 mm 0,0 UV-I 11 W/m 10,5 C 13,5 C 3,2 km/h (1 Bft) 96,92 %
11.10.2017 18:34 13,4 C 11,7 C 82 % 1018,8 hPa 0,0 l/m 2,6 km/h (1 Bft) W 281 0 min 0,000 mm 0,0 UV-I 9 W/m 10,4 C 13,4 C 3,2 km/h (1 Bft) 97,87 %
11.10.2017 18:36 13,2 C 11,7 C 83 % 1018,9 hPa 0,0 l/m 2,4 km/h (1 Bft) W 281 0 min 0,000 mm 0,0 UV-I 0 W/m 10,4 C 13,2 C 3,2 km/h (1 Bft) 98,11 %
11.10.2017 18:38 13,0 C 11,7 C 84 % 1018,9 hPa 0,0 l/m 2,1 km/h (1 Bft) W 281 0 min 0,000 mm 0,0 UV-I 0 W/m 10,4 C 13,0 C 3,2 km/h (1 Bft) 97,73 %
11.10.2017 18:40 12,9 C 11,7 C 85 % 1018,9 hPa 0,0 l/m 1,7 km/h (1 Bft) W 281 0 min 0,000 mm 0,0 UV-I 0 W/m 10,4 C 12,9 C 3,2 km/h (1 Bft) 98,00 %
11.10.2017 18:42 12,8 C 11,7 C 85 % 1018,9 hPa 0,0 l/m 1,5 km/h (1 Bft) W 281 0 min 0,000 mm 0,0 UV-I 5 W/m 10,3 C 12,8 C 1,6 km/h (1 Bft) 97,56 %
11.10.2017 18:44 12,8 C 11,7 C 85 % 1018,9 hPa 0,0 l/m 1,9 km/h (1 Bft) W 281 0 min 0,000 mm 0,0 UV-I 4 W/m 10,3 C 12,8 C 3,2 km/h (1 Bft) 98,11 %
11.10.2017 18:46 12,8 C 11,7 C 85 % 1018,9 hPa 0,0 l/m 0,9 km/h (0 Bft) W 281 0 min 0,000 mm 0,0 UV-I 0 W/m 10,3 C 12,8 C 1,6 km/h (1 Bft) 95,74 %
11.10.2017 18:48 12,8 C 11,7 C 84 % 1018,9 hPa 0,0 l/m 0,8 km/h (0 Bft) W 281 0 min 0,000 mm 0,0 UV-I 0 W/m 10,2 C 12,8 C 3,2 km/h (1 Bft) 100,00 %
11.10.2017 18:50 12,8 C 11,7 C 84 % 1018,9 hPa 0,0 l/m 1,8 km/h (1 Bft) W 280 0 min 0,000 mm 0,0 UV-I 0 W/m 10,2 C 12,8 C 3,2 km/h (1 Bft) 96,00 %
11.10.2017 18:52 12,7 C 11,7 C 84 % 1018,9 hPa 0,0 l/m 1,4 km/h (1 Bft) W 280 0 min 0,000 mm 0,0 UV-I 0 W/m 10,1 C 12,7 C 3,2 km/h (1 Bft) 97,87 %
11.10.2017 18:54 12,7 C 11,7 C 84 % 1018,9 hPa 0,0 l/m 1,9 km/h (1 Bft) W 280 0 min 0,000 mm 0,0 UV-I 0 W/m 10,1 C 12,7 C 3,2 km/h (1 Bft) 95,74 %
11.10.2017 18:56 12,8 C 11,7 C 84 % 1018,9 hPa 0,0 l/m 2,5 km/h (1 Bft) W 280 0 min 0,000 mm 0,0 UV-I 0 W/m 10,2 C 12,8 C 3,2 km/h (1 Bft) 95,12 %
11.10.2017 18:58 12,8 C 11,7 C 83 % 1018,9 hPa 0,0 l/m 2,0 km/h (1 Bft) W 280 0 min 0,000 mm 0,0 UV-I 0 W/m 10,0 C 12,8 C 3,2 km/h (1 Bft) 98,11 %
11.10.2017 19:00 12,9 C 11,7 C 83 % 1018,8 hPa 0,0 l/m 0,2 km/h (0 Bft) W 280 0 min 0,000 mm 0,0 UV-I 0 W/m 10,1 C 12,9 C 1,6 km/h (1 Bft) 96,30 %
11.10.2017 19:02 12,8 C 11,7 C 83 % 1018,9 hPa 0,0 l/m 1,4 km/h (1 Bft) W 279 0 min 0,000 mm 0,0 UV-I 0 W/m 10,0 C 12,8 C 3,2 km/h (1 Bft) 98,44 %
11.10.2017 19:04 12,8 C 11,7 C 82 % 1018,9 hPa 0,0 l/m 1,3 km/h (1 Bft) W 279 0 min 0,000 mm 0,0 UV-I 0 W/m 9,8 C 12,8 C 3,2 km/h (1 Bft) 96,00 %
11.10.2017 19:06 12,7 C 11,7 C 83 % 1018,9 hPa 0,0 l/m 0,0 km/h (0 Bft) W 279 0 min 0,000 mm 0,0 UV-I 0 W/m 9,9 C 12,7 C 1,6 km/h (1 Bft) 94,00 %
11.10.2017 19:08 12,5 C 11,7 C 84 % 1018,9 hPa 0,0 l/m 0,7 km/h (0 Bft) W 279 0 min 0,000 mm 0,0 UV-I 0 W/m 9,9 C 12,5 C 1,6 km/h (1 Bft) 100,00 %
11.10.2017 19:10 12,3 C 11,7 C 85 % 1018,9 hPa 0,0 l/m 0,0 km/h (0 Bft) W 279 0 min 0,000 mm 0,0 UV-I 0 W/m 9,9 C 12,3 C 1,6 km/h (1 Bft) 92,65 %
11.10.2017 19:12 12,2 C 11,7 C 85 % 1018,9 hPa 0,0 l/m 0,1 km/h (0 Bft) W 279 0 min 0,000 mm 0,0 UV-I 0 W/m 9,8 C 12,2 C 1,6 km/h (1 Bft) 95,74 %
11.10.2017 19:14 12,1 C 11,7 C 86 % 1018,9 hPa 0,0 l/m 0,0 km/h (0 Bft) W 279 0 min 0,000 mm 0,0 UV-I 0 W/m 9,8 C 12,1 C 1,6 km/h (1 Bft) 97,37 %
11.10.2017 19:16 12,0 C 11,7 C 86 % 1018,9 hPa 0,0 l/m 0,0 km/h (0 Bft) W 279 0 min 0,000 mm 0,0 UV-I 0 W/m 9,7 C 12,0 C 0,0 km/h (0 Bft) 98,00 %
11.10.2017 19:18 11,9 C 11,7 C 86 % 1018,9 hPa 0,0 l/m 0,0 km/h (0 Bft) W 279 0 min 0,000 mm 0,0 UV-I 0 W/m 9,6 C 11,9 C 0,0 km/h (0 Bft) 97,87 %
11.10.2017 19:20 11,9 C 11,7 C 86 % 1018,9 hPa 0,0 l/m 0,0 km/h (0 Bft) W 279 0 min 0,000 mm 0,0 UV-I 0 W/m 9,6 C 11,9 C 0,0 km/h (0 Bft) 97,87 %
11.10.2017 19:22 11,8 C 11,7 C 86 % 1018,9 hPa 0,0 l/m 0,0 km/h (0 Bft) W 279 0 min 0,000 mm 0,0 UV-I 0 W/m 9,5 C 11,8 C 0,0 km/h (0 Bft) 98,00 %
11.10.2017 19:24 11,7 C 11,7 C 86 % 1018,9 hPa 0,0 l/m 0,9 km/h (0 Bft) W 279 0 min 0,000 mm 0,0 UV-I 0 W/m 9,4 C 11,7 C 1,6 km/h (1 Bft) 97,37 %
11.10.2017 19:26 11,7 C 11,7 C 87 % 1018,8 hPa 0,0 l/m 0,4 km/h (0 Bft) W 279 0 min 0,000 mm 0,0 UV-I 0 W/m 9,6 C 11,7 C 1,6 km/h (1 Bft) 97,87 %
11.10.2017 19:28 11,7 C 11,7 C 87 % 1018,9 hPa 0,0 l/m 0,6 km/h (0 Bft) W 279 0 min 0,000 mm 0,0 UV-I 0 W/m 9,6 C 11,7 C 1,6 km/h (1 Bft) 98,00 %
11.10.2017 19:30 11,6 C 11,7 C 87 % 1018,9 hPa 0,0 l/m 0,7 km/h (0 Bft) W 279 0 min 0,000 mm 0,0 UV-I 0 W/m 9,5 C 11,6 C 1,6 km/h (1 Bft) 96,00 %
11.10.2017 19:32 11,6 C 11,7 C 87 % 1018,9 hPa 0,0 l/m 0,0 km/h (0 Bft) W 279 0 min 0,000 mm 0,0 UV-I 0 W/m 9,5 C 11,6 C 0,0 km/h (0 Bft) 98,00 %
11.10.2017 19:34 11,5 C 11,7 C 87 % 1018,9 hPa 0,0 l/m 0,0 km/h (0 Bft) W 279 0 min 0,000 mm 0,0 UV-I 0 W/m 9,4 C 11,5 C 0,0 km/h (0 Bft) 97,56 %
11.10.2017 19:36 11,4 C 11,7 C 87 % 1018,9 hPa 0,0 l/m 0,0 km/h (0 Bft) W 279 0 min 0,000 mm 0,0 UV-I 0 W/m 9,3 C 11,4 C 0,0 km/h (0 Bft) 98,11 %
11.10.2017 19:38 11,3 C 11,7 C 87 % 1018,9 hPa 0,0 l/m 0,9 km/h (0 Bft) W 279 0 min 0,000 mm 0,0 UV-I 0 W/m 9,2 C 11,3 C 1,6 km/h (1 Bft) 95,12 %
11.10.2017 19:40 11,3 C 11,7 C 88 % 1018,9 hPa 0,0 l/m 1,7 km/h (1 Bft) W 277 0 min 0,000 mm 0,0 UV-I 0 W/m 9,4 C 11,3 C 3,2 km/h (1 Bft) 98,11 %
11.10.2017 19:42 11,2 C 11,7 C 88 % 1018,9 hPa 0,0 l/m 1,2 km/h (1 Bft) W 277 0 min 0,000 mm 0,0 UV-I 0 W/m 9,3 C 11,2 C 3,2 km/h (1 Bft) 97,87 %
11.10.2017 19:44 11,2 C 11,7 C 88 % 1018,9 hPa 0,0 l/m 0,1 km/h (0 Bft) W 277 0 min 0,000 mm 0,0 UV-I 0 W/m 9,3 C 11,2 C 1,6 km/h (1 Bft) 97,44 %
11.10.2017 19:46 11,1 C 11,7 C 88 % 1018,9 hPa 0,0 l/m 0,4 km/h (0 Bft) W 277 0 min 0,000 mm 0,0 UV-I 0 W/m 9,2 C 11,1 C 1,6 km/h (1 Bft) 97,87 %
11.10.2017 19:48 11,2 C 11,7 C 88 % 1018,9 hPa 0,0 l/m 1,5 km/h (1 Bft) W 276 0 min 0,000 mm 0,0 UV-I 0 W/m 9,3 C 11,2 C 3,2 km/h (1 Bft) 96,00 %
11.10.2017 19:50 11,2 C 11,7 C 88 % 1018,9 hPa 0,0 l/m 1,9 km/h (1 Bft) W 276 0 min 0,000 mm 0,0 UV-I 0 W/m 9,3 C 11,2 C 3,2 km/h (1 Bft) 97,56 %
11.10.2017 19:52 11,5 C 11,7 C 88 % 1018,9 hPa 0,0 l/m 2,3 km/h (1 Bft) W-SW 238 0 min 0,000 mm 0,0 UV-I 0 W/m 9,6 C 11,5 C 3,2 km/h (1 Bft) 98,11 %
11.10.2017 19:54 11,8 C 11,7 C 88 % 1018,9 hPa 0,0 l/m 1,6 km/h (1 Bft) W-SW 238 0 min 0,000 mm 0,0 UV-I 0 W/m 9,9 C 11,8 C 3,2 km/h (1 Bft) 97,37 %
11.10.2017 19:56 11,7 C 11,7 C 86 % 1018,9 hPa 0,0 l/m 1,2 km/h (1 Bft) W-SW 238 0 min 0,000 mm 0,0 UV-I 0 W/m 9,4 C 11,7 C 1,6 km/h (1 Bft) 96,23 %
11.10.2017 19:58 11,6 C 11,7 C 86 % 1018,9 hPa 0,0 l/m 0,4 km/h (0 Bft) W-SW 238 0 min 0,000 mm 0,0 UV-I 0 W/m 9,3 C 11,6 C 1,6 km/h (1 Bft) 97,87 %
11.10.2017 20:00 11,6 C 11,7 C 86 % 1018,9 hPa 0,0 l/m 0,6 km/h (0 Bft) W-SW 238 0 min 0,000 mm 0,0 UV-I 0 W/m 9,3 C 11,6 C 1,6 km/h (1 Bft) 98,00 %
11.10.2017 20:02 11,5 C 11,7 C 87 % 1019,0 hPa 0,0 l/m 0,2 km/h (0 Bft) W-SW 238 0 min 0,000 mm 0,0 UV-I 0 W/m 9,4 C 11,5 C 1,6 km/h (1 Bft) 97,92 %
11.10.2017 20:04 11,5 C 11,7 C 87 % 1018,9 hPa 0,0 l/m 0,7 km/h (0 Bft) W-SW 238 0 min 0,000 mm 0,0 UV-I 0 W/m 9,4 C 11,5 C 3,2 km/h (1 Bft) 95,74 %
11.10.2017 20:06 11,5 C 11,7 C 87 % 1018,9 hPa 0,0 l/m 0,5 km/h (0 Bft) W-SW 238 0 min 0,000 mm 0,0 UV-I 0 W/m 9,4 C 11,5 C 1,6 km/h (1 Bft) 98,00 %
11.10.2017 20:08 11,6 C 11,7 C 87 % 1018,9 hPa 0,0 l/m 0,3 km/h (0 Bft) W-SW 238 0 min 0,000 mm 0,0 UV-I 0 W/m 9,5 C 11,6 C 1,6 km/h (1 Bft) 97,14 %
11.10.2017 20:10 11,7 C 11,7 C 87 % 1018,9 hPa 0,0 l/m 0,2 km/h (0 Bft) W-SW 238 0 min 0,000 mm 0,0 UV-I 0 W/m 9,6 C 11,7 C 1,6 km/h (1 Bft) 100,00 %
11.10.2017 20:12 11,6 C 11,7 C 86 % 1018,9 hPa 0,0 l/m 1,1 km/h (1 Bft) W-SW 238 0 min 0,000 mm 0,0 UV-I 0 W/m 9,3 C 11,6 C 3,2 km/h (1 Bft) 100,00 %
11.10.2017 20:14 11,6 C 11,7 C 87 % 1018,9 hPa 0,0 l/m 0,4 km/h (0 Bft) W-SW 238 0 min 0,000 mm 0,0 UV-I 0 W/m 9,5 C 11,6 C 1,6 km/h (1 Bft) 100,00 %
11.10.2017 20:16 11,4 C 11,7 C 87 % 1019,0 hPa 0,0 l/m 1,1 km/h (1 Bft) W-SW 238 0 min 0,000 mm 0,0 UV-I 0 W/m 9,3 C 11,4 C 3,2 km/h (1 Bft) 98,00 %
11.10.2017 20:18 11,3 C 11,7 C 87 % 1019,0 hPa 0,0 l/m 0,2 km/h (0 Bft) W-SW 238 0 min 0,000 mm 0,0 UV-I 0 W/m 9,2 C 11,3 C 1,6 km/h (1 Bft) 100,00 %
11.10.2017 20:20 11,1 C 11,7 C 87 % 1018,9 hPa 0,0 l/m 2,1 km/h (1 Bft) W-SW 238 0 min 0,000 mm 0,0 UV-I 0 W/m 9,0 C 11,1 C 3,2 km/h (1 Bft) 97,87 %
11.10.2017 20:22 10,9 C 11,7 C 87 % 1018,9 hPa 0,0 l/m 2,2 km/h (1 Bft) W-SW 238 0 min 0,000 mm 0,0 UV-I 0 W/m 8,8 C 10,9 C 3,2 km/h (1 Bft) 100,00 %
11.10.2017 20:24 10,9 C 11,7 C 88 % 1019,0 hPa 0,0 l/m 2,2 km/h (1 Bft) W-SW 238 0 min 0,000 mm 0,0 UV-I 0 W/m 9,0 C 10,9 C 4,8 km/h (1 Bft) 100,00 %
11.10.2017 20:26 10,9 C 11,7 C 88 % 1019,0 hPa 0,0 l/m 2,1 km/h (1 Bft) W-SW 238 0 min 0,000 mm 0,0 UV-I 0 W/m 9,0 C 10,9 C 3,2 km/h (1 Bft) 100,00 %
11.10.2017 20:28 10,9 C 11,7 C 88 % 1019,0 hPa 0,0 l/m 2,4 km/h (1 Bft) W-SW 238 0 min 0,000 mm 0,0 UV-I 0 W/m 9,0 C 10,9 C 3,2 km/h (1 Bft) 100,00 %
11.10.2017 20:30 10,9 C 11,7 C 88 % 1018,9 hPa 0,0 l/m 2,8 km/h (1 Bft) W-SW 238 0 min 0,000 mm 0,0 UV-I 0 W/m 9,0 C 10,9 C 4,8 km/h (1 Bft) 100,00 %
11.10.2017 20:32 10,9 C 11,7 C 89 % 1019,0 hPa 0,0 l/m 2,6 km/h (1 Bft) W-SW 238 0 min 0,000 mm 0,0 UV-I 0 W/m 9,2 C 10,9 C 3,2 km/h (1 Bft) 100,00 %
11.10.2017 20:34 10,8 C 11,7 C 89 % 1018,9 hPa 0,0 l/m 2,7 km/h (1 Bft) W-SW 238 0 min 0,000 mm 0,0 UV-I 0 W/m 9,1 C 10,8 C 4,8 km/h (1 Bft) 100,00 %
11.10.2017 20:36 10,8 C 11,7 C 89 % 1018,9 hPa 0,0 l/m 2,8 km/h (1 Bft) W-SW 238 0 min 0,000 mm 0,0 UV-I 0 W/m 9,1 C 10,8 C 4,8 km/h (1 Bft) 100,00 %
11.10.2017 20:38 10,8 C 11,7 C 89 % 1019,0 hPa 0,0 l/m 2,7 km/h (1 Bft) W-SW 238 0 min 0,000 mm 0,0 UV-I 0 W/m 9,1 C 10,8 C 4,8 km/h (1 Bft) 100,00 %
11.10.2017 20:40 10,8 C 11,7 C 90 % 1018,9 hPa 0,0 l/m 2,4 km/h (1 Bft) W-SW 238 0 min 0,000 mm 0,0 UV-I 0 W/m 9,2 C 10,8 C 4,8 km/h (1 Bft) 96,23 %
11.10.2017 20:42 10,9 C 11,7 C 90 % 1019,0 hPa 0,0 l/m 1,8 km/h (1 Bft) W-SW 238 0 min 0,000 mm 0,0 UV-I 0 W/m 9,3 C 10,9 C 3,2 km/h (1 Bft) 100,00 %
11.10.2017 20:44 11,0 C 11,7 C 89 % 1019,0 hPa 0,0 l/m 2,2 km/h (1 Bft) W-SW 238 0 min 0,000 mm 0,0 UV-I 0 W/m 9,3 C 11,0 C 3,2 km/h (1 Bft) 100,00 %
11.10.2017 20:46 11,1 C 11,7 C 89 % 1019,0 hPa 0,0 l/m 2,3 km/h (1 Bft) S-SW 212 0 min 0,000 mm 0,0 UV-I 0 W/m 9,4 C 11,1 C 4,8 km/h (1 Bft) 100,00 %
11.10.2017 20:48 11,2 C 11,7 C 88 % 1019,0 hPa 0,0 l/m 2,7 km/h (1 Bft) S-SW 212 0 min 0,000 mm 0,0 UV-I 0 W/m 9,3 C 11,2 C 3,2 km/h (1 Bft) 100,00 %
11.10.2017 20:50 11,2 C 11,7 C 88 % 1019,0 hPa 0,0 l/m 2,3 km/h (1 Bft) S-SW 212 0 min 0,000 mm 0,0 UV-I 0 W/m 9,3 C 11,2 C 4,8 km/h (1 Bft) 98,11 %
11.10.2017 20:52 11,2 C 11,7 C 88 % 1018,9 hPa 0,0 l/m 3,4 km/h (1 Bft) S-SW 211 0 min 0,000 mm 0,0 UV-I 0 W/m 9,3 C 11,2 C 6,4 km/h (2 Bft) 100,00 %
11.10.2017 20:54 11,2 C 11,7 C 88 % 1019,0 hPa 0,0 l/m 2,1 km/h (1 Bft) S-SW 211 0 min 0,000 mm 0,0 UV-I 0 W/m 9,3 C 11,2 C 4,8 km/h (1 Bft) 100,00 %
11.10.2017 20:56 11,3 C 11,7 C 88 % 1019,0 hPa 0,0 l/m 3,4 km/h (1 Bft) S-SW 202 0 min 0,000 mm 0,0 UV-I 0 W/m 9,4 C 11,3 C 4,8 km/h (1 Bft) 100,00 %
11.10.2017 20:58 11,4 C 11,7 C 88 % 1019,0 hPa 0,0 l/m 3,7 km/h (1 Bft) S 180 0 min 0,000 mm 0,0 UV-I 0 W/m 9,5 C 11,4 C 8,0 km/h (2 Bft) 95,74 %
11.10.2017 21:00 11,6 C 11,7 C 88 % 1019,0 hPa 0,0 l/m 2,7 km/h (1 Bft) S 180 0 min 0,000 mm 0,0 UV-I 0 W/m 9,7 C 11,6 C 4,8 km/h (1 Bft) 98,00 %
11.10.2017 21:03 11,6 C 11,7 C 87 % 1019,0 hPa 0,0 l/m 2,6 km/h (1 Bft) S 180 0 min 0,000 mm 0,0 UV-I 0 W/m 9,5 C 11,6 C 4,8 km/h (1 Bft) 94,37 %
11.10.2017 21:04 11,7 C 11,7 C 87 % 1019,0 hPa 0,0 l/m 3,0 km/h (1 Bft) S 180 0 min 0,000 mm 0,0 UV-I 0 W/m 9,6 C 11,7 C 4,8 km/h (1 Bft) 100,00 %
11.10.2017 21:06 11,7 C 11,7 C 87 % 1019,0 hPa 0,0 l/m 2,1 km/h (1 Bft) S 180 0 min 0,000 mm 0,0 UV-I 0 W/m 9,6 C 11,7 C 4,8 km/h (1 Bft) 93,75 %
11.10.2017 21:08 11,7 C 11,7 C 87 % 1019,0 hPa 0,0 l/m 1,8 km/h (1 Bft) S 180 0 min 0,000 mm 0,0 UV-I 0 W/m 9,6 C 11,7 C 3,2 km/h (1 Bft) 98,00 %
11.10.2017 21:10 11,6 C 11,7 C 86 % 1019,0 hPa 0,0 l/m 1,8 km/h (1 Bft) S 180 0 min 0,000 mm 0,0 UV-I 0 W/m 9,3 C 11,6 C 3,2 km/h (1 Bft) 97,37 %
11.10.2017 21:12 11,5 C 11,7 C 87 % 1019,0 hPa 0,0 l/m 2,8 km/h (1 Bft) S 180 0 min 0,000 mm 0,0 UV-I 0 W/m 9,4 C 11,5 C 3,2 km/h (1 Bft) 98,00 %
11.10.2017 21:14 11,4 C 11,7 C 87 % 1019,1 hPa 0,0 l/m 3,4 km/h (1 Bft) S 180 0 min 0,000 mm 0,0 UV-I 0 W/m 9,3 C 11,4 C 4,8 km/h (1 Bft) 98,00 %
11.10.2017 21:16 11,2 C 11,7 C 87 % 1019,1 hPa 0,0 l/m 4,8 km/h (1 Bft) S 181 0 min 0,000 mm 0,0 UV-I 0 W/m 9,1 C 11,2 C 6,4 km/h (2 Bft) 97,87 %
11.10.2017 21:18 11,1 C 11,7 C 88 % 1019,1 hPa 0,0 l/m 4,3 km/h (1 Bft) S 181 0 min 0,000 mm 0,0 UV-I 0 W/m 9,2 C 11,1 C 6,4 km/h (2 Bft) 98,00 %
11.10.2017 21:20 11,1 C 11,7 C 88 % 1019,1 hPa 0,0 l/m 3,6 km/h (1 Bft) S 182 0 min 0,000 mm 0,0 UV-I 0 W/m 9,2 C 11,1 C 4,8 km/h (1 Bft) 97,37 %
11.10.2017 21:22 11,1 C 11,7 C 88 % 1019,1 hPa 0,0 l/m 4,8 km/h (1 Bft) S 186 0 min 0,000 mm 0,0 UV-I 0 W/m 9,2 C 11,1 C 6,4 km/h (2 Bft) 97,87 %
11.10.2017 21:24 11,1 C 11,7 C 89 % 1019,1 hPa 0,0 l/m 5,1 km/h (1 Bft) S-SW 205 0 min 0,000 mm 0,0 UV-I 0 W/m 9,4 C 11,1 C 8,0 km/h (2 Bft) 96,00 %
11.10.2017 21:26 11,1 C 11,7 C 89 % 1019,1 hPa 0,0 l/m 4,6 km/h (1 Bft) S-SW 198 0 min 0,000 mm 0,0 UV-I 0 W/m 9,4 C 11,1 C 6,4 km/h (2 Bft) 98,00 %
11.10.2017 21:28 11,1 C 11,7 C 89 % 1019,1 hPa 0,0 l/m 4,3 km/h (1 Bft) S-SW 199 0 min 0,000 mm 0,0 UV-I 0 W/m 9,4 C 11,1 C 6,4 km/h (2 Bft) 97,87 %
11.10.2017 21:30 11,1 C 11,7 C 88 % 1019,1 hPa 0,0 l/m 4,4 km/h (1 Bft) S-SW 199 0 min 0,000 mm 0,0 UV-I 0 W/m 9,2 C 11,1 C 6,4 km/h (2 Bft) 97,56 %
11.10.2017 21:32 11,1 C 11,7 C 88 % 1019,1 hPa 0,0 l/m 4,5 km/h (1 Bft) S-SW 192 0 min 0,000 mm 0,0 UV-I 0 W/m 9,2 C 11,1 C 6,4 km/h (2 Bft) 95,74 %
11.10.2017 21:34 11,1 C 11,7 C 88 % 1019,1 hPa 0,0 l/m 4,0 km/h (1 Bft) S 191 0 min 0,000 mm 0,0 UV-I 0 W/m 9,2 C 11,1 C 6,4 km/h (2 Bft) 95,45 %
11.10.2017 21:36 11,1 C 11,7 C 88 % 1019,1 hPa 0,0 l/m 3,4 km/h (1 Bft) S 191 0 min 0,000 mm 0,0 UV-I 0 W/m 9,2 C 11,1 C 4,8 km/h (1 Bft) 98,00 %
11.10.2017 21:38 11,1 C 11,7 C 88 % 1019,1 hPa 0,0 l/m 3,8 km/h (1 Bft) S 191 0 min 0,000 mm 0,0 UV-I 0 W/m 9,2 C 11,1 C 4,8 km/h (1 Bft) 100,00 %
11.10.2017 21:40 11,1 C 11,7 C 88 % 1019,1 hPa 0,0 l/m 4,4 km/h (1 Bft) S 191 0 min 0,000 mm 0,0 UV-I 0 W/m 9,2 C 11,1 C 6,4 km/h (2 Bft) 100,00 %
11.10.2017 21:42 11,1 C 11,7 C 88 % 1019,1 hPa 0,0 l/m 4,9 km/h (1 Bft) S 191 0 min 0,000 mm 0,0 UV-I 0 W/m 9,2 C 11,1 C 6,4 km/h (2 Bft) 97,87 %
11.10.2017 21:44 11,1 C 11,7 C 88 % 1019,1 hPa 0,0 l/m 4,3 km/h (1 Bft) S 191 0 min 0,000 mm 0,0 UV-I 0 W/m 9,2 C 11,1 C 6,4 km/h (2 Bft) 97,22 %
11.10.2017 21:46 10,9 C 11,7 C 88 % 1019,1 hPa 0,0 l/m 4,4 km/h (1 Bft) S 191 0 min 0,000 mm 0,0 UV-I 0 W/m 9,0 C 10,9 C 6,4 km/h (2 Bft) 100,00 %
11.10.2017 21:48 11,0 C 11,7 C 89 % 1019,1 hPa 0,0 l/m 5,0 km/h (1 Bft) S 191 0 min 0,000 mm 0,0 UV-I 0 W/m 9,3 C 11,0 C 6,4 km/h (2 Bft) 100,00 %
11.10.2017 21:50 10,9 C 11,7 C 89 % 1019,1 hPa 0,0 l/m 5,1 km/h (1 Bft) S 191 0 min 0,000 mm 0,0 UV-I 0 W/m 9,2 C 10,9 C 6,4 km/h (2 Bft) 100,00 %
11.10.2017 21:52 10,9 C 11,7 C 89 % 1019,1 hPa 0,0 l/m 5,4 km/h (1 Bft) S 191 0 min 0,000 mm 0,0 UV-I 0 W/m 9,2 C 10,9 C 8,0 km/h (2 Bft) 100,00 %
11.10.2017 21:54 10,9 C 11,7 C 89 % 1019,1 hPa 0,0 l/m 4,7 km/h (1 Bft) S 191 0 min 0,000 mm 0,0 UV-I 0 W/m 9,2 C 10,9 C 6,4 km/h (2 Bft) 100,00 %
11.10.2017 21:56 10,9 C 11,7 C 89 % 1019,1 hPa 0,0 l/m 4,2 km/h (1 Bft) S 191 0 min 0,000 mm 0,0 UV-I 0 W/m 9,2 C 10,9 C 6,4 km/h (2 Bft) 100,00 %
11.10.2017 21:58 10,9 C 11,7 C 89 % 1019,1 hPa 0,0 l/m 4,8 km/h (1 Bft) S 191 0 min 0,000 mm 0,0 UV-I 0 W/m 9,2 C 10,9 C 6,4 km/h (2 Bft) 100,00 %
11.10.2017 22:00 10,9 C 11,7 C 89 % 1019,1 hPa 0,0 l/m 4,2 km/h (1 Bft) S 191 0 min 0,000 mm 0,0 UV-I 0 W/m 9,2 C 10,9 C 6,4 km/h (2 Bft) 100,00 %
11.10.2017 22:02 10,9 C 11,7 C 89 % 1019,1 hPa 0,0 l/m 3,9 km/h (1 Bft) S 191 0 min 0,000 mm 0,0 UV-I 0 W/m 9,2 C 10,9 C 6,4 km/h (2 Bft) 100,00 %
11.10.2017 22:04 10,8 C 11,7 C 89 % 1019,2 hPa 0,0 l/m 3,9 km/h (1 Bft) S 191 0 min 0,000 mm 0,0 UV-I 0 W/m 9,1 C 10,8 C 4,8 km/h (1 Bft) 100,00 %
11.10.2017 22:06 10,8 C 11,7 C 89 % 1019,1 hPa 0,0 l/m 3,8 km/h (1 Bft) S 191 0 min 0,000 mm 0,0 UV-I 0 W/m 9,1 C 10,8 C 4,8 km/h (1 Bft) 100,00 %
11.10.2017 22:08 10,7 C 11,7 C 89 % 1019,2 hPa 0,0 l/m 4,1 km/h (1 Bft) S 191 0 min 0,000 mm 0,0 UV-I 0 W/m 9,0 C 10,7 C 4,8 km/h (1 Bft) 100,00 %
11.10.2017 22:10 10,7 C 11,7 C 89 % 1019,1 hPa 0,0 l/m 4,6 km/h (1 Bft) S 191 0 min 0,000 mm 0,0 UV-I 0 W/m 9,0 C 10,7 C 6,4 km/h (2 Bft) 100,00 %
11.10.2017 22:12 10,7 C 11,7 C 89 % 1019,2 hPa 0,0 l/m 4,0 km/h (1 Bft) S 191 0 min 0,000 mm 0,0 UV-I 0 W/m 9,0 C 10,7 C 6,4 km/h (2 Bft) 97,87 %
11.10.2017 22:14 10,6 C 11,7 C 89 % 1019,1 hPa 0,0 l/m 4,0 km/h (1 Bft) S 191 0 min 0,000 mm 0,0 UV-I 0 W/m 8,9 C 10,6 C 6,4 km/h (2 Bft) 100,00 %
11.10.2017 22:16 10,4 C 11,7 C 90 % 1019,1 hPa 0,0 l/m 4,3 km/h (1 Bft) S 191 0 min 0,000 mm 0,0 UV-I 0 W/m 8,8 C 10,4 C 6,4 km/h (2 Bft) 100,00 %
11.10.2017 22:18 10,4 C 11,7 C 90 % 1019,1 hPa 0,0 l/m 3,5 km/h (1 Bft) S 191 0 min 0,000 mm 0,0 UV-I 0 W/m 8,8 C 10,4 C 4,8 km/h (1 Bft) 100,00 %
11.10.2017 22:20 10,3 C 11,7 C 90 % 1019,1 hPa 0,0 l/m 3,7 km/h (1 Bft) S 191 0 min 0,000 mm 0,0 UV-I 0 W/m 8,7 C 10,3 C 4,8 km/h (1 Bft) 100,00 %
11.10.2017 22:22 10,3 C 11,7 C 90 % 1019,1 hPa 0,0 l/m 3,6 km/h (1 Bft) S 191 0 min 0,000 mm 0,0 UV-I 0 W/m 8,7 C 10,3 C 4,8 km/h (1 Bft) 100,00 %
11.10.2017 22:24 10,3 C 11,7 C 90 % 1019,1 hPa 0,0 l/m 4,6 km/h (1 Bft) S 191 0 min 0,000 mm 0,0 UV-I 0 W/m 8,7 C 10,3 C 6,4 km/h (2 Bft) 100,00 %
11.10.2017 22:26 10,3 C 11,7 C 91 % 1019,1 hPa 0,0 l/m 4,6 km/h (1 Bft) S 191 0 min 0,000 mm 0,0 UV-I 0 W/m 8,9 C 10,3 C 6,4 km/h (2 Bft) 100,00 %
11.10.2017 22:28 10,3 C 11,7 C 91 % 1019,1 hPa 0,0 l/m 5,3 km/h (1 Bft) S 191 0 min 0,000 mm 0,0 UV-I 0 W/m 8,9 C 10,3 C 8,0 km/h (2 Bft) 97,37 %
11.10.2017 22:30 10,2 C 11,7 C 91 % 1019,1 hPa 0,0 l/m 5,7 km/h (1 Bft) S-SW 192 0 min 0,000 mm 0,0 UV-I 0 W/m 8,8 C 10,2 C 8,0 km/h (2 Bft) 100,00 %
11.10.2017 22:32 10,2 C 11,7 C 91 % 1019,2 hPa 0,0 l/m 5,1 km/h (1 Bft) S-SW 192 0 min 0,000 mm 0,0 UV-I 0 W/m 8,8 C 10,2 C 6,4 km/h (2 Bft) 97,87 %
11.10.2017 22:34 10,3 C 11,7 C 91 % 1019,1 hPa 0,0 l/m 4,5 km/h (1 Bft) S-SW 195 0 min 0,000 mm 0,0 UV-I 0 W/m 8,9 C 10,3 C 6,4 km/h (2 Bft) 100,00 %
11.10.2017 22:36 10,3 C 11,7 C 91 % 1019,1 hPa 0,0 l/m 5,4 km/h (1 Bft) S-SW 208 0 min 0,000 mm 0,0 UV-I 0 W/m 8,9 C 10,3 C 8,0 km/h (2 Bft) 100,00 %
11.10.2017 22:38 10,2 C 11,7 C 91 % 1019,1 hPa 0,0 l/m 5,5 km/h (1 Bft) S-SW 210 0 min 0,000 mm 0,0 UV-I 0 W/m 8,8 C 10,2 C 8,0 km/h (2 Bft) 100,00 %
11.10.2017 22:40 10,2 C 11,7 C 91 % 1019,1 hPa 0,0 l/m 5,3 km/h (1 Bft) S-SW 207 0 min 0,000 mm 0,0 UV-I 0 W/m 8,8 C 10,2 C 8,0 km/h (2 Bft) 93,62 %
11.10.2017 22:42 10,1 C 11,7 C 91 % 1019,1 hPa 0,0 l/m 4,3 km/h (1 Bft) S-SW 208 0 min 0,000 mm 0,0 UV-I 0 W/m 8,7 C 10,1 C 8,0 km/h (2 Bft) 100,00 %
11.10.2017 22:44 10,1 C 11,7 C 91 % 1019,1 hPa 0,0 l/m 4,7 km/h (1 Bft) S-SW 208 0 min 0,000 mm 0,0 UV-I 0 W/m 8,7 C 10,1 C 6,4 km/h (2 Bft) 100,00 %
11.10.2017 22:46 10,1 C 11,7 C 91 % 1019,1 hPa 0,0 l/m 6,0 km/h (2 Bft) S-SW 207 0 min 0,000 mm 0,0 UV-I 0 W/m 8,7 C 10,1 C 8,0 km/h (2 Bft) 100,00 %
11.10.2017 22:48 10,0 C 11,7 C 91 % 1019,2 hPa 0,0 l/m 4,0 km/h (1 Bft) S-SW 206 0 min 0,000 mm 0,0 UV-I 0 W/m 8,6 C 10,0 C 6,4 km/h (2 Bft) 100,00 %
11.10.2017 22:50 10,0 C 11,7 C 91 % 1019,3 hPa 0,0 l/m 6,2 km/h (2 Bft) S-SW 207 0 min 0,000 mm 0,0 UV-I 0 W/m 8,6 C 10,0 C 8,0 km/h (2 Bft) 100,00 %
11.10.2017 22:52 10,0 C 11,7 C 91 % 1019,3 hPa 0,0 l/m 4,4 km/h (1 Bft) S-SW 207 0 min 0,000 mm 0,0 UV-I 0 W/m 8,6 C 10,0 C 6,4 km/h (2 Bft) 100,00 %
11.10.2017 22:54 9,9 C 11,7 C 91 % 1019,2 hPa 0,0 l/m 5,2 km/h (1 Bft) S-SW 207 0 min 0,000 mm 0,0 UV-I 0 W/m 8,5 C 9,9 C 6,4 km/h (2 Bft) 98,00 %
11.10.2017 22:56 9,9 C 11,7 C 91 % 1019,2 hPa 0,0 l/m 4,1 km/h (1 Bft) S 190 0 min 0,000 mm 0,0 UV-I 0 W/m 8,5 C 9,9 C 6,4 km/h (2 Bft) 97,87 %
11.10.2017 22:58 9,9 C 11,7 C 91 % 1019,2 hPa 0,0 l/m 5,4 km/h (1 Bft) S-SW 196 0 min 0,000 mm 0,0 UV-I 0 W/m 8,5 C 9,9 C 6,4 km/h (2 Bft) 96,00 %
11.10.2017 23:00 9,9 C 11,7 C 91 % 1019,2 hPa 0,0 l/m 4,6 km/h (1 Bft) S-SW 196 0 min 0,000 mm 0,0 UV-I 0 W/m 8,5 C 9,9 C 6,4 km/h (2 Bft) 98,00 %
11.10.2017 23:02 9,9 C 11,7 C 91 % 1019,2 hPa 0,0 l/m 3,3 km/h (1 Bft) S-SW 196 0 min 0,000 mm 0,0 UV-I 0 W/m 8,5 C 9,9 C 4,8 km/h (1 Bft) 95,74 %
11.10.2017 23:04 9,8 C 11,7 C 91 % 1019,3 hPa 0,0 l/m 3,3 km/h (1 Bft) S-SW 196 0 min 0,000 mm 0,0 UV-I 0 W/m 8,4 C 9,8 C 4,8 km/h (1 Bft) 100,00 %
11.10.2017 23:06 9,8 C 11,7 C 92 % 1019,2 hPa 0,0 l/m 3,8 km/h (1 Bft) S-SW 196 0 min 0,000 mm 0,0 UV-I 0 W/m 8,6 C 9,8 C 6,4 km/h (2 Bft) 96,23 %
11.10.2017 23:08 9,8 C 11,7 C 92 % 1019,3 hPa 0,0 l/m 4,1 km/h (1 Bft) S-SW 196 0 min 0,000 mm 0,0 UV-I 0 W/m 8,6 C 9,8 C 8,0 km/h (2 Bft) 93,62 %
11.10.2017 23:10 9,8 C 11,7 C 92 % 1019,3 hPa 0,0 l/m 2,4 km/h (1 Bft) S-SW 195 0 min 0,000 mm 0,0 UV-I 0 W/m 8,6 C 9,8 C 4,8 km/h (1 Bft) 94,74 %
11.10.2017 23:12 9,8 C 11,7 C 92 % 1019,3 hPa 0,0 l/m 3,7 km/h (1 Bft) S-SW 195 0 min 0,000 mm 0,0 UV-I 0 W/m 8,6 C 9,8 C 6,4 km/h (2 Bft) 96,00 %
11.10.2017 23:14 9,8 C 11,7 C 92 % 1019,2 hPa 0,0 l/m 2,1 km/h (1 Bft) S-SW 195 0 min 0,000 mm 0,0 UV-I 0 W/m 8,6 C 9,8 C 4,8 km/h (1 Bft) 96,23 %
11.10.2017 23:16 9,8 C 11,7 C 92 % 1019,2 hPa 0,0 l/m 2,5 km/h (1 Bft) S-SW 195 0 min 0,000 mm 0,0 UV-I 0 W/m 8,6 C 9,8 C 4,8 km/h (1 Bft) 92,11 %
11.10.2017 23:18 9,7 C 11,7 C 91 % 1019,2 hPa 0,0 l/m 2,1 km/h (1 Bft) S-SW 195 0 min 0,000 mm 0,0 UV-I 0 W/m 8,3 C 9,7 C 4,8 km/h (1 Bft) 95,12 %
11.10.2017 23:20 9,6 C 11,7 C 91 % 1019,3 hPa 0,0 l/m 2,8 km/h (1 Bft) S-SW 195 0 min 0,000 mm 0,0 UV-I 0 W/m 8,2 C 9,6 C 4,8 km/h (1 Bft) 98,21 %
11.10.2017 23:22 9,6 C 11,7 C 92 % 1019,3 hPa 0,0 l/m 2,5 km/h (1 Bft) S-SW 195 0 min 0,000 mm 0,0 UV-I 0 W/m 8,4 C 9,6 C 4,8 km/h (1 Bft) 93,62 %
11.10.2017 23:24 9,6 C 11,7 C 92 % 1019,3 hPa 0,0 l/m 2,9 km/h (1 Bft) S-SW 195 0 min 0,000 mm 0,0 UV-I 0 W/m 8,4 C 9,6 C 4,8 km/h (1 Bft) 94,00 %
11.10.2017 23:26 9,5 C 11,7 C 92 % 1019,3 hPa 0,0 l/m 3,3 km/h (1 Bft) S-SW 195 0 min 0,000 mm 0,0 UV-I 0 W/m 8,3 C 9,5 C 4,8 km/h (1 Bft) 94,00 %
11.10.2017 23:28 9,4 C 11,7 C 92 % 1019,3 hPa 0,0 l/m 3,5 km/h (1 Bft) S-SW 195 0 min 0,000 mm 0,0 UV-I 0 W/m 8,2 C 9,4 C 4,8 km/h (1 Bft) 95,12 %
11.10.2017 23:30 9,4 C 11,7 C 92 % 1019,2 hPa 0,0 l/m 3,7 km/h (1 Bft) S-SW 195 0 min 0,000 mm 0,0 UV-I 0 W/m 8,2 C 9,4 C 4,8 km/h (1 Bft) 96,00 %
11.10.2017 23:33 9,4 C 11,7 C 92 % 1019,3 hPa 0,0 l/m 3,9 km/h (1 Bft) S-SW 195 0 min 0,000 mm 0,0 UV-I 0 W/m 8,2 C 9,4 C 6,4 km/h (2 Bft) 95,38 %
11.10.2017 23:34 9,4 C 11,7 C 92 % 1019,3 hPa 0,0 l/m 2,7 km/h (1 Bft) S-SW 195 0 min 0,000 mm 0,0 UV-I 0 W/m 8,2 C 9,4 C 4,8 km/h (1 Bft) 96,15 %
11.10.2017 23:36 9,5 C 11,7 C 92 % 1019,3 hPa 0,0 l/m 3,6 km/h (1 Bft) S-SW 195 0 min 0,000 mm 0,0 UV-I 0 W/m 8,3 C 9,5 C 6,4 km/h (2 Bft) 91,67 %
11.10.2017 23:38 9,6 C 11,7 C 93 % 1019,3 hPa 0,0 l/m 4,3 km/h (1 Bft) S-SW 194 0 min 0,000 mm 0,0 UV-I 0 W/m 8,5 C 9,6 C 6,4 km/h (2 Bft) 96,23 %
11.10.2017 23:40 9,7 C 11,7 C 93 % 1019,3 hPa 0,0 l/m 4,1 km/h (1 Bft) S-SW 194 0 min 0,000 mm 0,0 UV-I 0 W/m 8,6 C 9,7 C 6,4 km/h (2 Bft) 94,23 %
11.10.2017 23:42 9,7 C 11,7 C 92 % 1019,4 hPa 0,0 l/m 3,5 km/h (1 Bft) S-SW 194 0 min 0,000 mm 0,0 UV-I 0 W/m 8,5 C 9,7 C 6,4 km/h (2 Bft) 93,75 %
11.10.2017 23:44 9,7 C 11,7 C 92 % 1019,3 hPa 0,0 l/m 3,1 km/h (1 Bft) S-SW 194 0 min 0,000 mm 0,0 UV-I 0 W/m 8,5 C 9,7 C 4,8 km/h (1 Bft) 97,37 %
11.10.2017 23:46 9,7 C 11,7 C 92 % 1019,3 hPa 0,0 l/m 2,6 km/h (1 Bft) S-SW 194 0 min 0,000 mm 0,0 UV-I 0 W/m 8,5 C 9,7 C 3,2 km/h (1 Bft) 98,31 %
11.10.2017 23:48 9,7 C 11,7 C 92 % 1019,3 hPa 0,0 l/m 2,0 km/h (1 Bft) S-SW 194 0 min 0,000 mm 0,0 UV-I 0 W/m 8,5 C 9,7 C 4,8 km/h (1 Bft) 97,37 %
11.10.2017 23:50 9,6 C 11,7 C 92 % 1019,3 hPa 0,0 l/m 3,2 km/h (1 Bft) S-SW 194 0 min 0,000 mm 0,0 UV-I 0 W/m 8,4 C 9,6 C 4,8 km/h (1 Bft) 94,34 %
11.10.2017 23:52 9,6 C 11,7 C 92 % 1019,3 hPa 0,0 l/m 3,7 km/h (1 Bft) S-SW 194 0 min 0,000 mm 0,0 UV-I 0 W/m 8,4 C 9,6 C 6,4 km/h (2 Bft) 98,00 %
11.10.2017 23:54 9,5 C 11,7 C 92 % 1019,3 hPa 0,0 l/m 3,1 km/h (1 Bft) S-SW 194 0 min 0,000 mm 0,0 UV-I 0 W/m 8,3 C 9,5 C 4,8 km/h (1 Bft) 97,87 %
11.10.2017 23:56 9,4 C 11,7 C 92 % 1019,3 hPa 0,0 l/m 2,7 km/h (1 Bft) S-SW 194 0 min 0,000 mm 0,0 UV-I 0 W/m 8,2 C 9,4 C 4,8 km/h (1 Bft) 100,00 %
11.10.2017 23:58 9,4 C 11,7 C 92 % 1019,4 hPa 0,0 l/m 2,7 km/h (1 Bft) S-SW 194 0 min 0,000 mm 0,0 UV-I 0 W/m 8,2 C 9,4 C 4,8 km/h (1 Bft) 100,00 %
_ Min-Zeit 23:28 00:00 15:18 17:40 - 17:24 - - - - - - 23:28 03:36 17:24 23:36
Minimum _ 9,4 C 11,1 C 55 % 1018,7 hPa - 0,0 km/h (0 Bft) - - - - - - 8,2 C 6,8 C 0,0 km/h (0 Bft) 91,67 %
_ Max-Zeit 14:18 12:38 00:00 09:00 00:00 03:36 - - 07:28 13:02 12:40 12:46 12:12 14:18 00:42 00:50
Maximum _ 19,2 C 11,7 C 94 % 1021,0 hPa 0,0 l/m 15,4 km/h
W (3 Bft)
- - 2 min 0,330 mm 2,8 UV-I 786 W/m 12,0 C 19,2 C 24,1 km/h
SW (4 Bft)
100,00 %
Durchschnitt _ 13,3 C 11,4 C 82 % 1019,9 hPa #0,0 l/m 5,5 km/h (1 Bft) SW - #10:10 h #2,210 mm 1,6 UV-I 322 W/m 10,1 C 12,7 C 9,0 km/h (2 Bft) 98,10 %